<?xml version='1.0' encoding='UTF-8' standalone='yes' ?>
<gpx version="1.1" xmlns="http://www.topografix.com/GPX/1/1" xmlns:geotracker="http://ilyabogdanovich.com/gpx/extensions/geotracker" xmlns:xsi="http://www.w3.org/2001/XMLSchema-instance" xsi:schemaLocation="http://www.topografix.com/GPX/1/1 http://www.topografix.com/GPX/1/1/gpx.xsd" creator="Geo Tracker 3.3.0.1338 for Android by Ilya Bogdanovich">
  <metadata>
    <name>Gf Anello dei lucretili</name>
    <author>
      <name>mhr369</name>
      <link href="http://www.gpsies.com/map.do?fileId=uqnstjrzuhtearzf" />
    </author>
    <link href="http://www.gpsies.com/map.do?fileId=uqnstjrzuhtearzf" />
    <time>2016-09-22T01:17:40.000Z</time>
  </metadata>
  <trk>
    <name>Gf Anello dei lucretili on GPSies.com</name>
    <link href="http://www.gpsies.com/charts/uq/tab/uqnstjrzuhtearzf_tab.png" />
    <extensions>
      <geotracker:meta>
        <length>47855.18</length>
        <duration>17217000</duration>
        <activity>0</activity>
      </geotracker:meta>
    </extensions>
    <trkseg>
      <trkpt lat="42.087936" lon="12.781863">
        <ele>301</ele>
        <time>2010-01-01T00:00:00.000Z</time>
      </trkpt>
      <trkpt lat="42.087891" lon="12.78179">
        <ele>301</ele>
        <time>2010-01-01T00:00:02.000Z</time>
      </trkpt>
      <trkpt lat="42.087841" lon="12.78191">
        <ele>301</ele>
        <time>2010-01-01T00:00:06.000Z</time>
      </trkpt>
      <trkpt lat="42.087898" lon="12.78203">
        <ele>300</ele>
        <time>2010-01-01T00:00:11.000Z</time>
      </trkpt>
      <trkpt lat="42.088051" lon="12.78258">
        <ele>298</ele>
        <time>2010-01-01T00:00:28.000Z</time>
      </trkpt>
      <trkpt lat="42.088211" lon="12.78289">
        <ele>295</ele>
        <time>2010-01-01T00:00:39.000Z</time>
      </trkpt>
      <trkpt lat="42.088322" lon="12.78308">
        <ele>293</ele>
        <time>2010-01-01T00:00:47.000Z</time>
      </trkpt>
      <trkpt lat="42.088539" lon="12.78377">
        <ele>290</ele>
        <time>2010-01-01T00:01:09.000Z</time>
      </trkpt>
      <trkpt lat="42.088558" lon="12.78387">
        <ele>290</ele>
        <time>2010-01-01T00:01:12.000Z</time>
      </trkpt>
      <trkpt lat="42.088558" lon="12.78423">
        <ele>292</ele>
        <time>2010-01-01T00:01:23.000Z</time>
      </trkpt>
      <trkpt lat="42.08847" lon="12.78468">
        <ele>297</ele>
        <time>2010-01-01T00:01:36.000Z</time>
      </trkpt>
      <trkpt lat="42.08812" lon="12.78566">
        <ele>312</ele>
        <time>2010-01-01T00:02:09.000Z</time>
      </trkpt>
      <trkpt lat="42.088001" lon="12.78592">
        <ele>318</ele>
        <time>2010-01-01T00:02:18.000Z</time>
      </trkpt>
      <trkpt lat="42.087551" lon="12.78676">
        <ele>322</ele>
        <time>2010-01-01T00:02:49.000Z</time>
      </trkpt>
      <trkpt lat="42.087471" lon="12.78743">
        <ele>329</ele>
        <time>2010-01-01T00:03:09.000Z</time>
      </trkpt>
      <trkpt lat="42.08744" lon="12.78762">
        <ele>332</ele>
        <time>2010-01-01T00:03:15.000Z</time>
      </trkpt>
      <trkpt lat="42.087372" lon="12.78786">
        <ele>335</ele>
        <time>2010-01-01T00:03:22.000Z</time>
      </trkpt>
      <trkpt lat="42.08712" lon="12.78852">
        <ele>341</ele>
        <time>2010-01-01T00:03:44.000Z</time>
      </trkpt>
      <trkpt lat="42.08709" lon="12.78866">
        <ele>342</ele>
        <time>2010-01-01T00:03:49.000Z</time>
      </trkpt>
      <trkpt lat="42.087059" lon="12.78894">
        <ele>345</ele>
        <time>2010-01-01T00:03:57.000Z</time>
      </trkpt>
      <trkpt lat="42.087078" lon="12.78916">
        <ele>347</ele>
        <time>2010-01-01T00:04:04.000Z</time>
      </trkpt>
      <trkpt lat="42.087059" lon="12.78937">
        <ele>347</ele>
        <time>2010-01-01T00:04:10.000Z</time>
      </trkpt>
      <trkpt lat="42.087009" lon="12.78955">
        <ele>348</ele>
        <time>2010-01-01T00:04:16.000Z</time>
      </trkpt>
      <trkpt lat="42.08691" lon="12.78981">
        <ele>349</ele>
        <time>2010-01-01T00:04:24.000Z</time>
      </trkpt>
      <trkpt lat="42.08662" lon="12.79034">
        <ele>355</ele>
        <time>2010-01-01T00:04:44.000Z</time>
      </trkpt>
      <trkpt lat="42.08651" lon="12.79073">
        <ele>360</ele>
        <time>2010-01-01T00:04:56.000Z</time>
      </trkpt>
      <trkpt lat="42.086369" lon="12.79151">
        <ele>366</ele>
        <time>2010-01-01T00:05:20.000Z</time>
      </trkpt>
      <trkpt lat="42.086109" lon="12.79263">
        <ele>375</ele>
        <time>2010-01-01T00:05:55.000Z</time>
      </trkpt>
      <trkpt lat="42.086071" lon="12.79305">
        <ele>376</ele>
        <time>2010-01-01T00:06:07.000Z</time>
      </trkpt>
      <trkpt lat="42.086071" lon="12.79318">
        <ele>377</ele>
        <time>2010-01-01T00:06:11.000Z</time>
      </trkpt>
      <trkpt lat="42.086189" lon="12.79373">
        <ele>382</ele>
        <time>2010-01-01T00:06:28.000Z</time>
      </trkpt>
      <trkpt lat="42.086269" lon="12.79394">
        <ele>385</ele>
        <time>2010-01-01T00:06:35.000Z</time>
      </trkpt>
      <trkpt lat="42.086849" lon="12.79528">
        <ele>401</ele>
        <time>2010-01-01T00:07:21.000Z</time>
      </trkpt>
      <trkpt lat="42.08765" lon="12.79636">
        <ele>417</ele>
        <time>2010-01-01T00:08:07.000Z</time>
      </trkpt>
      <trkpt lat="42.08783" lon="12.79656">
        <ele>420</ele>
        <time>2010-01-01T00:08:16.000Z</time>
      </trkpt>
      <trkpt lat="42.08799" lon="12.79666">
        <ele>424</ele>
        <time>2010-01-01T00:08:23.000Z</time>
      </trkpt>
      <trkpt lat="42.088051" lon="12.79673">
        <ele>425</ele>
        <time>2010-01-01T00:08:26.000Z</time>
      </trkpt>
      <trkpt lat="42.08807" lon="12.79681">
        <ele>425</ele>
        <time>2010-01-01T00:08:29.000Z</time>
      </trkpt>
      <trkpt lat="42.08807" lon="12.79692">
        <ele>424</ele>
        <time>2010-01-01T00:08:32.000Z</time>
      </trkpt>
      <trkpt lat="42.088032" lon="12.79701">
        <ele>424</ele>
        <time>2010-01-01T00:08:35.000Z</time>
      </trkpt>
      <trkpt lat="42.087952" lon="12.79708">
        <ele>423</ele>
        <time>2010-01-01T00:08:39.000Z</time>
      </trkpt>
      <trkpt lat="42.087349" lon="12.79721">
        <ele>423</ele>
        <time>2010-01-01T00:09:03.000Z</time>
      </trkpt>
      <trkpt lat="42.08659" lon="12.79724">
        <ele>428</ele>
        <time>2010-01-01T00:09:34.000Z</time>
      </trkpt>
      <trkpt lat="42.086479" lon="12.79731">
        <ele>430</ele>
        <time>2010-01-01T00:09:39.000Z</time>
      </trkpt>
      <trkpt lat="42.086399" lon="12.79739">
        <ele>432</ele>
        <time>2010-01-01T00:09:43.000Z</time>
      </trkpt>
      <trkpt lat="42.086201" lon="12.79769">
        <ele>435</ele>
        <time>2010-01-01T00:09:55.000Z</time>
      </trkpt>
      <trkpt lat="42.086121" lon="12.79787">
        <ele>436</ele>
        <time>2010-01-01T00:10:01.000Z</time>
      </trkpt>
      <trkpt lat="42.08606" lon="12.79805">
        <ele>437</ele>
        <time>2010-01-01T00:10:07.000Z</time>
      </trkpt>
      <trkpt lat="42.086021" lon="12.79864">
        <ele>445</ele>
        <time>2010-01-01T00:10:24.000Z</time>
      </trkpt>
      <trkpt lat="42.085991" lon="12.7988">
        <ele>447</ele>
        <time>2010-01-01T00:10:29.000Z</time>
      </trkpt>
      <trkpt lat="42.085781" lon="12.79922">
        <ele>453</ele>
        <time>2010-01-01T00:10:44.000Z</time>
      </trkpt>
      <trkpt lat="42.0854" lon="12.79975">
        <ele>458</ele>
        <time>2010-01-01T00:11:06.000Z</time>
      </trkpt>
      <trkpt lat="42.085209" lon="12.80006">
        <ele>461</ele>
        <time>2010-01-01T00:11:18.000Z</time>
      </trkpt>
      <trkpt lat="42.08493" lon="12.80044">
        <ele>466</ele>
        <time>2010-01-01T00:11:34.000Z</time>
      </trkpt>
      <trkpt lat="42.084789" lon="12.8007">
        <ele>467</ele>
        <time>2010-01-01T00:11:44.000Z</time>
      </trkpt>
      <trkpt lat="42.084492" lon="12.80137">
        <ele>474</ele>
        <time>2010-01-01T00:12:07.000Z</time>
      </trkpt>
      <trkpt lat="42.084278" lon="12.80167">
        <ele>480</ele>
        <time>2010-01-01T00:12:19.000Z</time>
      </trkpt>
      <trkpt lat="42.084042" lon="12.80194">
        <ele>483</ele>
        <time>2010-01-01T00:12:32.000Z</time>
      </trkpt>
      <trkpt lat="42.083698" lon="12.80228">
        <ele>485</ele>
        <time>2010-01-01T00:12:49.000Z</time>
      </trkpt>
      <trkpt lat="42.083569" lon="12.80249">
        <ele>485</ele>
        <time>2010-01-01T00:12:57.000Z</time>
      </trkpt>
      <trkpt lat="42.083542" lon="12.80258">
        <ele>486</ele>
        <time>2010-01-01T00:13:00.000Z</time>
      </trkpt>
      <trkpt lat="42.0835" lon="12.80285">
        <ele>490</ele>
        <time>2010-01-01T00:13:08.000Z</time>
      </trkpt>
      <trkpt lat="42.08345" lon="12.80373">
        <ele>499</ele>
        <time>2010-01-01T00:13:34.000Z</time>
      </trkpt>
      <trkpt lat="42.083481" lon="12.80394">
        <ele>501</ele>
        <time>2010-01-01T00:13:40.000Z</time>
      </trkpt>
      <trkpt lat="42.083542" lon="12.80415">
        <ele>503</ele>
        <time>2010-01-01T00:13:47.000Z</time>
      </trkpt>
      <trkpt lat="42.083599" lon="12.80429">
        <ele>504</ele>
        <time>2010-01-01T00:13:52.000Z</time>
      </trkpt>
      <trkpt lat="42.083698" lon="12.80445">
        <ele>505</ele>
        <time>2010-01-01T00:13:58.000Z</time>
      </trkpt>
      <trkpt lat="42.083839" lon="12.8046">
        <ele>509</ele>
        <time>2010-01-01T00:14:05.000Z</time>
      </trkpt>
      <trkpt lat="42.083981" lon="12.80467">
        <ele>512</ele>
        <time>2010-01-01T00:14:11.000Z</time>
      </trkpt>
      <trkpt lat="42.08416" lon="12.80471">
        <ele>516</ele>
        <time>2010-01-01T00:14:19.000Z</time>
      </trkpt>
      <trkpt lat="42.08445" lon="12.80488">
        <ele>515</ele>
        <time>2010-01-01T00:14:31.000Z</time>
      </trkpt>
      <trkpt lat="42.08453" lon="12.80489">
        <ele>517</ele>
        <time>2010-01-01T00:14:34.000Z</time>
      </trkpt>
      <trkpt lat="42.084888" lon="12.80482">
        <ele>522</ele>
        <time>2010-01-01T00:14:49.000Z</time>
      </trkpt>
      <trkpt lat="42.085201" lon="12.80479">
        <ele>521</ele>
        <time>2010-01-01T00:15:01.000Z</time>
      </trkpt>
      <trkpt lat="42.085911" lon="12.80485">
        <ele>525</ele>
        <time>2010-01-01T00:15:30.000Z</time>
      </trkpt>
      <trkpt lat="42.086411" lon="12.80495">
        <ele>533</ele>
        <time>2010-01-01T00:15:50.000Z</time>
      </trkpt>
      <trkpt lat="42.087109" lon="12.80515">
        <ele>541</ele>
        <time>2010-01-01T00:16:19.000Z</time>
      </trkpt>
      <trkpt lat="42.087349" lon="12.8052">
        <ele>544</ele>
        <time>2010-01-01T00:16:29.000Z</time>
      </trkpt>
      <trkpt lat="42.087601" lon="12.80522">
        <ele>547</ele>
        <time>2010-01-01T00:16:39.000Z</time>
      </trkpt>
      <trkpt lat="42.089378" lon="12.80508">
        <ele>568</ele>
        <time>2010-01-01T00:17:50.000Z</time>
      </trkpt>
      <trkpt lat="42.090248" lon="12.80522">
        <ele>576</ele>
        <time>2010-01-01T00:18:25.000Z</time>
      </trkpt>
      <trkpt lat="42.090569" lon="12.80533">
        <ele>580</ele>
        <time>2010-01-01T00:18:38.000Z</time>
      </trkpt>
      <trkpt lat="42.090801" lon="12.80543">
        <ele>584</ele>
        <time>2010-01-01T00:18:48.000Z</time>
      </trkpt>
      <trkpt lat="42.09127" lon="12.80568">
        <ele>588</ele>
        <time>2010-01-01T00:19:08.000Z</time>
      </trkpt>
      <trkpt lat="42.09203" lon="12.80596">
        <ele>599</ele>
        <time>2010-01-01T00:19:40.000Z</time>
      </trkpt>
      <trkpt lat="42.09235" lon="12.80611">
        <ele>604</ele>
        <time>2010-01-01T00:19:53.000Z</time>
      </trkpt>
      <trkpt lat="42.092579" lon="12.80627">
        <ele>605</ele>
        <time>2010-01-01T00:20:04.000Z</time>
      </trkpt>
      <trkpt lat="42.092739" lon="12.80633">
        <ele>607</ele>
        <time>2010-01-01T00:20:10.000Z</time>
      </trkpt>
      <trkpt lat="42.09296" lon="12.80635">
        <ele>610</ele>
        <time>2010-01-01T00:20:19.000Z</time>
      </trkpt>
      <trkpt lat="42.09317" lon="12.80633">
        <ele>613</ele>
        <time>2010-01-01T00:20:27.000Z</time>
      </trkpt>
      <trkpt lat="42.093361" lon="12.80629">
        <ele>615</ele>
        <time>2010-01-01T00:20:35.000Z</time>
      </trkpt>
      <trkpt lat="42.093929" lon="12.80604">
        <ele>620</ele>
        <time>2010-01-01T00:20:59.000Z</time>
      </trkpt>
      <trkpt lat="42.094021" lon="12.80598">
        <ele>622</ele>
        <time>2010-01-01T00:21:03.000Z</time>
      </trkpt>
      <trkpt lat="42.094231" lon="12.80577">
        <ele>628</ele>
        <time>2010-01-01T00:21:14.000Z</time>
      </trkpt>
      <trkpt lat="42.09436" lon="12.80568">
        <ele>630</ele>
        <time>2010-01-01T00:21:19.000Z</time>
      </trkpt>
      <trkpt lat="42.094421" lon="12.80571">
        <ele>629</ele>
        <time>2010-01-01T00:21:22.000Z</time>
      </trkpt>
      <trkpt lat="42.094639" lon="12.80601">
        <ele>627</ele>
        <time>2010-01-01T00:21:35.000Z</time>
      </trkpt>
      <trkpt lat="42.09473" lon="12.80609">
        <ele>628</ele>
        <time>2010-01-01T00:21:39.000Z</time>
      </trkpt>
      <trkpt lat="42.094978" lon="12.80623">
        <ele>632</ele>
        <time>2010-01-01T00:21:50.000Z</time>
      </trkpt>
      <trkpt lat="42.095161" lon="12.80634">
        <ele>634</ele>
        <time>2010-01-01T00:21:58.000Z</time>
      </trkpt>
      <trkpt lat="42.095879" lon="12.80698">
        <ele>644</ele>
        <time>2010-01-01T00:22:32.000Z</time>
      </trkpt>
      <trkpt lat="42.096031" lon="12.80707">
        <ele>645</ele>
        <time>2010-01-01T00:22:39.000Z</time>
      </trkpt>
      <trkpt lat="42.09613" lon="12.80718">
        <ele>646</ele>
        <time>2010-01-01T00:22:44.000Z</time>
      </trkpt>
      <trkpt lat="42.096279" lon="12.80741">
        <ele>649</ele>
        <time>2010-01-01T00:22:53.000Z</time>
      </trkpt>
      <trkpt lat="42.096298" lon="12.80751">
        <ele>650</ele>
        <time>2010-01-01T00:22:56.000Z</time>
      </trkpt>
      <trkpt lat="42.096272" lon="12.80769">
        <ele>651</ele>
        <time>2010-01-01T00:23:02.000Z</time>
      </trkpt>
      <trkpt lat="42.096149" lon="12.80794">
        <ele>651</ele>
        <time>2010-01-01T00:23:10.000Z</time>
      </trkpt>
      <trkpt lat="42.096008" lon="12.80831">
        <ele>653</ele>
        <time>2010-01-01T00:23:23.000Z</time>
      </trkpt>
      <trkpt lat="42.095909" lon="12.80876">
        <ele>655</ele>
        <time>2010-01-01T00:23:37.000Z</time>
      </trkpt>
      <trkpt lat="42.095879" lon="12.80889">
        <ele>657</ele>
        <time>2010-01-01T00:23:41.000Z</time>
      </trkpt>
      <trkpt lat="42.09584" lon="12.80895">
        <ele>657</ele>
        <time>2010-01-01T00:23:43.000Z</time>
      </trkpt>
      <trkpt lat="42.09565" lon="12.80906">
        <ele>658</ele>
        <time>2010-01-01T00:23:51.000Z</time>
      </trkpt>
      <trkpt lat="42.09557" lon="12.80908">
        <ele>659</ele>
        <time>2010-01-01T00:23:55.000Z</time>
      </trkpt>
      <trkpt lat="42.09547" lon="12.80906">
        <ele>660</ele>
        <time>2010-01-01T00:23:59.000Z</time>
      </trkpt>
      <trkpt lat="42.095371" lon="12.80902">
        <ele>661</ele>
        <time>2010-01-01T00:24:03.000Z</time>
      </trkpt>
      <trkpt lat="42.0952" lon="12.8089">
        <ele>661</ele>
        <time>2010-01-01T00:24:11.000Z</time>
      </trkpt>
      <trkpt lat="42.095131" lon="12.80888">
        <ele>660</ele>
        <time>2010-01-01T00:24:13.000Z</time>
      </trkpt>
      <trkpt lat="42.09507" lon="12.80888">
        <ele>660</ele>
        <time>2010-01-01T00:24:16.000Z</time>
      </trkpt>
      <trkpt lat="42.095032" lon="12.80892">
        <ele>660</ele>
        <time>2010-01-01T00:24:18.000Z</time>
      </trkpt>
      <trkpt lat="42.095001" lon="12.80899">
        <ele>660</ele>
        <time>2010-01-01T00:24:20.000Z</time>
      </trkpt>
      <trkpt lat="42.095039" lon="12.80942">
        <ele>662</ele>
        <time>2010-01-01T00:24:33.000Z</time>
      </trkpt>
      <trkpt lat="42.095009" lon="12.80988">
        <ele>666</ele>
        <time>2010-01-01T00:24:47.000Z</time>
      </trkpt>
      <trkpt lat="42.0947" lon="12.81136">
        <ele>681</ele>
        <time>2010-01-01T00:25:33.000Z</time>
      </trkpt>
      <trkpt lat="42.094559" lon="12.81222">
        <ele>692</ele>
        <time>2010-01-01T00:25:59.000Z</time>
      </trkpt>
      <trkpt lat="42.094452" lon="12.81268">
        <ele>694</ele>
        <time>2010-01-01T00:26:13.000Z</time>
      </trkpt>
      <trkpt lat="42.094318" lon="12.81302">
        <ele>697</ele>
        <time>2010-01-01T00:26:24.000Z</time>
      </trkpt>
      <trkpt lat="42.09417" lon="12.81334">
        <ele>699</ele>
        <time>2010-01-01T00:26:36.000Z</time>
      </trkpt>
      <trkpt lat="42.094139" lon="12.81346">
        <ele>699</ele>
        <time>2010-01-01T00:26:39.000Z</time>
      </trkpt>
      <trkpt lat="42.094158" lon="12.81358">
        <ele>700</ele>
        <time>2010-01-01T00:26:43.000Z</time>
      </trkpt>
      <trkpt lat="42.094238" lon="12.8138">
        <ele>701</ele>
        <time>2010-01-01T00:26:50.000Z</time>
      </trkpt>
      <trkpt lat="42.094372" lon="12.81397">
        <ele>702</ele>
        <time>2010-01-01T00:26:58.000Z</time>
      </trkpt>
      <trkpt lat="42.094681" lon="12.81429">
        <ele>703</ele>
        <time>2010-01-01T00:27:13.000Z</time>
      </trkpt>
      <trkpt lat="42.095001" lon="12.81453">
        <ele>705</ele>
        <time>2010-01-01T00:27:28.000Z</time>
      </trkpt>
      <trkpt lat="42.096039" lon="12.81515">
        <ele>720</ele>
        <time>2010-01-01T00:28:13.000Z</time>
      </trkpt>
      <trkpt lat="42.096352" lon="12.81541">
        <ele>721</ele>
        <time>2010-01-01T00:28:28.000Z</time>
      </trkpt>
      <trkpt lat="42.096458" lon="12.81553">
        <ele>723</ele>
        <time>2010-01-01T00:28:34.000Z</time>
      </trkpt>
      <trkpt lat="42.096561" lon="12.81573">
        <ele>724</ele>
        <time>2010-01-01T00:28:41.000Z</time>
      </trkpt>
      <trkpt lat="42.097301" lon="12.81729">
        <ele>732</ele>
        <time>2010-01-01T00:29:36.000Z</time>
      </trkpt>
      <trkpt lat="42.09734" lon="12.81747">
        <ele>734</ele>
        <time>2010-01-01T00:29:41.000Z</time>
      </trkpt>
      <trkpt lat="42.097351" lon="12.81765">
        <ele>735</ele>
        <time>2010-01-01T00:29:47.000Z</time>
      </trkpt>
      <trkpt lat="42.09734" lon="12.81783">
        <ele>736</ele>
        <time>2010-01-01T00:29:52.000Z</time>
      </trkpt>
      <trkpt lat="42.097301" lon="12.81798">
        <ele>736</ele>
        <time>2010-01-01T00:29:57.000Z</time>
      </trkpt>
      <trkpt lat="42.097198" lon="12.81818">
        <ele>737</ele>
        <time>2010-01-01T00:30:04.000Z</time>
      </trkpt>
      <trkpt lat="42.096809" lon="12.81877">
        <ele>744</ele>
        <time>2010-01-01T00:30:27.000Z</time>
      </trkpt>
      <trkpt lat="42.096329" lon="12.81942">
        <ele>748</ele>
        <time>2010-01-01T00:30:55.000Z</time>
      </trkpt>
      <trkpt lat="42.09631" lon="12.81949">
        <ele>748</ele>
        <time>2010-01-01T00:30:57.000Z</time>
      </trkpt>
      <trkpt lat="42.096321" lon="12.81959">
        <ele>748</ele>
        <time>2010-01-01T00:31:00.000Z</time>
      </trkpt>
      <trkpt lat="42.096371" lon="12.81975">
        <ele>749</ele>
        <time>2010-01-01T00:31:05.000Z</time>
      </trkpt>
      <trkpt lat="42.096668" lon="12.82017">
        <ele>751</ele>
        <time>2010-01-01T00:31:22.000Z</time>
      </trkpt>
      <trkpt lat="42.096668" lon="12.82016">
        <ele>751</ele>
        <time>2010-01-01T00:31:23.000Z</time>
      </trkpt>
      <trkpt lat="42.09687" lon="12.82048">
        <ele>754</ele>
        <time>2010-01-01T00:31:35.000Z</time>
      </trkpt>
      <trkpt lat="42.097012" lon="12.82062">
        <ele>757</ele>
        <time>2010-01-01T00:31:42.000Z</time>
      </trkpt>
      <trkpt lat="42.097221" lon="12.82076">
        <ele>762</ele>
        <time>2010-01-01T00:31:52.000Z</time>
      </trkpt>
      <trkpt lat="42.09745" lon="12.82096">
        <ele>763</ele>
        <time>2010-01-01T00:32:02.000Z</time>
      </trkpt>
      <trkpt lat="42.097679" lon="12.82123">
        <ele>762</ele>
        <time>2010-01-01T00:32:15.000Z</time>
      </trkpt>
      <trkpt lat="42.097919" lon="12.82154">
        <ele>766</ele>
        <time>2010-01-01T00:32:28.000Z</time>
      </trkpt>
      <trkpt lat="42.098091" lon="12.8218">
        <ele>769</ele>
        <time>2010-01-01T00:32:38.000Z</time>
      </trkpt>
      <trkpt lat="42.098221" lon="12.82203">
        <ele>771</ele>
        <time>2010-01-01T00:32:47.000Z</time>
      </trkpt>
      <trkpt lat="42.098289" lon="12.82222">
        <ele>773</ele>
        <time>2010-01-01T00:32:53.000Z</time>
      </trkpt>
      <trkpt lat="42.098358" lon="12.82265">
        <ele>779</ele>
        <time>2010-01-01T00:33:06.000Z</time>
      </trkpt>
      <trkpt lat="42.098331" lon="12.82293">
        <ele>781</ele>
        <time>2010-01-01T00:33:15.000Z</time>
      </trkpt>
      <trkpt lat="42.09824" lon="12.82309">
        <ele>780</ele>
        <time>2010-01-01T00:33:21.000Z</time>
      </trkpt>
      <trkpt lat="42.098068" lon="12.82321">
        <ele>778</ele>
        <time>2010-01-01T00:33:28.000Z</time>
      </trkpt>
      <trkpt lat="42.098011" lon="12.82331">
        <ele>778</ele>
        <time>2010-01-01T00:33:32.000Z</time>
      </trkpt>
      <trkpt lat="42.097961" lon="12.82342">
        <ele>779</ele>
        <time>2010-01-01T00:33:36.000Z</time>
      </trkpt>
      <trkpt lat="42.0979" lon="12.8238">
        <ele>783</ele>
        <time>2010-01-01T00:33:47.000Z</time>
      </trkpt>
      <trkpt lat="42.097912" lon="12.82404">
        <ele>786</ele>
        <time>2010-01-01T00:33:55.000Z</time>
      </trkpt>
      <trkpt lat="42.097889" lon="12.82438">
        <ele>789</ele>
        <time>2010-01-01T00:34:05.000Z</time>
      </trkpt>
      <trkpt lat="42.097912" lon="12.82458">
        <ele>791</ele>
        <time>2010-01-01T00:34:11.000Z</time>
      </trkpt>
      <trkpt lat="42.09864" lon="12.82551">
        <ele>784</ele>
        <time>2010-01-01T00:34:51.000Z</time>
      </trkpt>
      <trkpt lat="42.098881" lon="12.82578">
        <ele>782</ele>
        <time>2010-01-01T00:35:03.000Z</time>
      </trkpt>
      <trkpt lat="42.099369" lon="12.82622">
        <ele>779</ele>
        <time>2010-01-01T00:35:27.000Z</time>
      </trkpt>
      <trkpt lat="42.09996" lon="12.82687">
        <ele>778</ele>
        <time>2010-01-01T00:35:58.000Z</time>
      </trkpt>
      <trkpt lat="42.100052" lon="12.82694">
        <ele>776</ele>
        <time>2010-01-01T00:36:02.000Z</time>
      </trkpt>
      <trkpt lat="42.100159" lon="12.82697">
        <ele>776</ele>
        <time>2010-01-01T00:36:06.000Z</time>
      </trkpt>
      <trkpt lat="42.100471" lon="12.82694">
        <ele>776</ele>
        <time>2010-01-01T00:36:19.000Z</time>
      </trkpt>
      <trkpt lat="42.101601" lon="12.82656">
        <ele>769</ele>
        <time>2010-01-01T00:37:05.000Z</time>
      </trkpt>
      <trkpt lat="42.101768" lon="12.82647">
        <ele>769</ele>
        <time>2010-01-01T00:37:13.000Z</time>
      </trkpt>
      <trkpt lat="42.101921" lon="12.82645">
        <ele>768</ele>
        <time>2010-01-01T00:37:19.000Z</time>
      </trkpt>
      <trkpt lat="42.102211" lon="12.82648">
        <ele>766</ele>
        <time>2010-01-01T00:37:30.000Z</time>
      </trkpt>
      <trkpt lat="42.102779" lon="12.82644">
        <ele>769</ele>
        <time>2010-01-01T00:37:53.000Z</time>
      </trkpt>
      <trkpt lat="42.102901" lon="12.82645">
        <ele>769</ele>
        <time>2010-01-01T00:37:58.000Z</time>
      </trkpt>
      <trkpt lat="42.103199" lon="12.82659">
        <ele>768</ele>
        <time>2010-01-01T00:38:11.000Z</time>
      </trkpt>
      <trkpt lat="42.103512" lon="12.8267">
        <ele>767</ele>
        <time>2010-01-01T00:38:23.000Z</time>
      </trkpt>
      <trkpt lat="42.103699" lon="12.82663">
        <ele>766</ele>
        <time>2010-01-01T00:38:31.000Z</time>
      </trkpt>
      <trkpt lat="42.104099" lon="12.82637">
        <ele>758</ele>
        <time>2010-01-01T00:38:49.000Z</time>
      </trkpt>
      <trkpt lat="42.104279" lon="12.82633">
        <ele>758</ele>
        <time>2010-01-01T00:38:56.000Z</time>
      </trkpt>
      <trkpt lat="42.104488" lon="12.82632">
        <ele>759</ele>
        <time>2010-01-01T00:39:05.000Z</time>
      </trkpt>
      <trkpt lat="42.104961" lon="12.82643">
        <ele>762</ele>
        <time>2010-01-01T00:39:24.000Z</time>
      </trkpt>
      <trkpt lat="42.105148" lon="12.82651">
        <ele>764</ele>
        <time>2010-01-01T00:39:32.000Z</time>
      </trkpt>
      <trkpt lat="42.105301" lon="12.82662">
        <ele>765</ele>
        <time>2010-01-01T00:39:39.000Z</time>
      </trkpt>
      <trkpt lat="42.105301" lon="12.82661">
        <ele>765</ele>
        <time>2010-01-01T00:39:39.000Z</time>
      </trkpt>
      <trkpt lat="42.10619" lon="12.8274">
        <ele>771</ele>
        <time>2010-01-01T00:40:22.000Z</time>
      </trkpt>
      <trkpt lat="42.10648" lon="12.82758">
        <ele>773</ele>
        <time>2010-01-01T00:40:34.000Z</time>
      </trkpt>
      <trkpt lat="42.10677" lon="12.82773">
        <ele>776</ele>
        <time>2010-01-01T00:40:47.000Z</time>
      </trkpt>
      <trkpt lat="42.10688" lon="12.82776">
        <ele>777</ele>
        <time>2010-01-01T00:40:51.000Z</time>
      </trkpt>
      <trkpt lat="42.106972" lon="12.82774">
        <ele>778</ele>
        <time>2010-01-01T00:40:55.000Z</time>
      </trkpt>
      <trkpt lat="42.10717" lon="12.82769">
        <ele>778</ele>
        <time>2010-01-01T00:41:03.000Z</time>
      </trkpt>
      <trkpt lat="42.107239" lon="12.82764">
        <ele>778</ele>
        <time>2010-01-01T00:41:06.000Z</time>
      </trkpt>
      <trkpt lat="42.107239" lon="12.82765">
        <ele>778</ele>
        <time>2010-01-01T00:41:07.000Z</time>
      </trkpt>
      <trkpt lat="42.107262" lon="12.82763">
        <ele>778</ele>
        <time>2010-01-01T00:41:08.000Z</time>
      </trkpt>
      <trkpt lat="42.107269" lon="12.82776">
        <ele>779</ele>
        <time>2010-01-01T00:41:12.000Z</time>
      </trkpt>
      <trkpt lat="42.107719" lon="12.82885">
        <ele>795</ele>
        <time>2010-01-01T00:41:49.000Z</time>
      </trkpt>
      <trkpt lat="42.107719" lon="12.82884">
        <ele>795</ele>
        <time>2010-01-01T00:41:49.000Z</time>
      </trkpt>
      <trkpt lat="42.10775" lon="12.82891">
        <ele>796</ele>
        <time>2010-01-01T00:41:51.000Z</time>
      </trkpt>
      <trkpt lat="42.108269" lon="12.830149">
        <ele>815</ele>
        <time>2010-01-01T00:42:33.000Z</time>
      </trkpt>
      <trkpt lat="42.108494" lon="12.830707">
        <ele>814</ele>
        <time>2010-01-01T00:42:52.000Z</time>
      </trkpt>
      <trkpt lat="42.108665" lon="12.830593">
        <ele>814</ele>
        <time>2010-01-01T00:43:00.000Z</time>
      </trkpt>
      <trkpt lat="42.108994" lon="12.830878">
        <ele>810</ele>
        <time>2010-01-01T00:43:16.000Z</time>
      </trkpt>
      <trkpt lat="42.109291" lon="12.831709">
        <ele>805</ele>
        <time>2010-01-01T00:43:43.000Z</time>
      </trkpt>
      <trkpt lat="42.109406" lon="12.832047">
        <ele>805</ele>
        <time>2010-01-01T00:43:54.000Z</time>
      </trkpt>
      <trkpt lat="42.10939" lon="12.83206">
        <ele>805</ele>
        <time>2010-01-01T00:43:55.000Z</time>
      </trkpt>
      <trkpt lat="42.109928" lon="12.83289">
        <ele>811</ele>
        <time>2010-01-01T00:44:28.000Z</time>
      </trkpt>
      <trkpt lat="42.110149" lon="12.83311">
        <ele>816</ele>
        <time>2010-01-01T00:44:39.000Z</time>
      </trkpt>
      <trkpt lat="42.110451" lon="12.83348">
        <ele>824</ele>
        <time>2010-01-01T00:44:55.000Z</time>
      </trkpt>
      <trkpt lat="42.110931" lon="12.83419">
        <ele>833</ele>
        <time>2010-01-01T00:45:23.000Z</time>
      </trkpt>
      <trkpt lat="42.111511" lon="12.83499">
        <ele>839</ele>
        <time>2010-01-01T00:45:57.000Z</time>
      </trkpt>
      <trkpt lat="42.11208" lon="12.83543">
        <ele>850</ele>
        <time>2010-01-01T00:46:23.000Z</time>
      </trkpt>
      <trkpt lat="42.11208" lon="12.83542">
        <ele>850</ele>
        <time>2010-01-01T00:46:23.000Z</time>
      </trkpt>
      <trkpt lat="42.11227" lon="12.83559">
        <ele>853</ele>
        <time>2010-01-01T00:46:32.000Z</time>
      </trkpt>
      <trkpt lat="42.112411" lon="12.83574">
        <ele>855</ele>
        <time>2010-01-01T00:46:39.000Z</time>
      </trkpt>
      <trkpt lat="42.112549" lon="12.83591">
        <ele>856</ele>
        <time>2010-01-01T00:46:47.000Z</time>
      </trkpt>
      <trkpt lat="42.112709" lon="12.83616">
        <ele>854</ele>
        <time>2010-01-01T00:46:57.000Z</time>
      </trkpt>
      <trkpt lat="42.113041" lon="12.83648">
        <ele>845</ele>
        <time>2010-01-01T00:47:13.000Z</time>
      </trkpt>
      <trkpt lat="42.11319" lon="12.83666">
        <ele>841</ele>
        <time>2010-01-01T00:47:21.000Z</time>
      </trkpt>
      <trkpt lat="42.113289" lon="12.8368">
        <ele>839</ele>
        <time>2010-01-01T00:47:27.000Z</time>
      </trkpt>
      <trkpt lat="42.113468" lon="12.83717">
        <ele>837</ele>
        <time>2010-01-01T00:47:40.000Z</time>
      </trkpt>
      <trkpt lat="42.113609" lon="12.83715">
        <ele>836</ele>
        <time>2010-01-01T00:47:46.000Z</time>
      </trkpt>
      <trkpt lat="42.113831" lon="12.837">
        <ele>835</ele>
        <time>2010-01-01T00:47:56.000Z</time>
      </trkpt>
      <trkpt lat="42.113991" lon="12.83692">
        <ele>835</ele>
        <time>2010-01-01T00:48:02.000Z</time>
      </trkpt>
      <trkpt lat="42.11425" lon="12.83697">
        <ele>839</ele>
        <time>2010-01-01T00:48:13.000Z</time>
      </trkpt>
      <trkpt lat="42.11438" lon="12.83704">
        <ele>841</ele>
        <time>2010-01-01T00:48:18.000Z</time>
      </trkpt>
      <trkpt lat="42.114712" lon="12.83728">
        <ele>842</ele>
        <time>2010-01-01T00:48:33.000Z</time>
      </trkpt>
      <trkpt lat="42.114841" lon="12.83723">
        <ele>841</ele>
        <time>2010-01-01T00:48:39.000Z</time>
      </trkpt>
      <trkpt lat="42.114941" lon="12.83717">
        <ele>841</ele>
        <time>2010-01-01T00:48:43.000Z</time>
      </trkpt>
      <trkpt lat="42.115028" lon="12.83707">
        <ele>840</ele>
        <time>2010-01-01T00:48:48.000Z</time>
      </trkpt>
      <trkpt lat="42.115131" lon="12.83704">
        <ele>840</ele>
        <time>2010-01-01T00:48:52.000Z</time>
      </trkpt>
      <trkpt lat="42.115341" lon="12.8371">
        <ele>839</ele>
        <time>2010-01-01T00:49:01.000Z</time>
      </trkpt>
      <trkpt lat="42.115601" lon="12.83769">
        <ele>846</ele>
        <time>2010-01-01T00:49:21.000Z</time>
      </trkpt>
      <trkpt lat="42.115662" lon="12.83777">
        <ele>846</ele>
        <time>2010-01-01T00:49:24.000Z</time>
      </trkpt>
      <trkpt lat="42.115799" lon="12.83787">
        <ele>845</ele>
        <time>2010-01-01T00:49:31.000Z</time>
      </trkpt>
      <trkpt lat="42.11607" lon="12.8382">
        <ele>847</ele>
        <time>2010-01-01T00:49:45.000Z</time>
      </trkpt>
      <trkpt lat="42.116131" lon="12.83833">
        <ele>847</ele>
        <time>2010-01-01T00:49:50.000Z</time>
      </trkpt>
      <trkpt lat="42.116199" lon="12.83858">
        <ele>846</ele>
        <time>2010-01-01T00:49:58.000Z</time>
      </trkpt>
      <trkpt lat="42.116211" lon="12.83877">
        <ele>846</ele>
        <time>2010-01-01T00:50:03.000Z</time>
      </trkpt>
      <trkpt lat="42.116199" lon="12.83895">
        <ele>847</ele>
        <time>2010-01-01T00:50:09.000Z</time>
      </trkpt>
      <trkpt lat="42.116131" lon="12.83915">
        <ele>850</ele>
        <time>2010-01-01T00:50:15.000Z</time>
      </trkpt>
      <trkpt lat="42.116131" lon="12.83922">
        <ele>850</ele>
        <time>2010-01-01T00:50:17.000Z</time>
      </trkpt>
      <trkpt lat="42.116138" lon="12.83928">
        <ele>851</ele>
        <time>2010-01-01T00:50:19.000Z</time>
      </trkpt>
      <trkpt lat="42.116199" lon="12.83929">
        <ele>849</ele>
        <time>2010-01-01T00:50:22.000Z</time>
      </trkpt>
      <trkpt lat="42.116192" lon="12.83929">
        <ele>849</ele>
        <time>2010-01-01T00:50:22.000Z</time>
      </trkpt>
      <trkpt lat="42.116371" lon="12.83935">
        <ele>845</ele>
        <time>2010-01-01T00:50:30.000Z</time>
      </trkpt>
      <trkpt lat="42.1166" lon="12.83948">
        <ele>846</ele>
        <time>2010-01-01T00:50:40.000Z</time>
      </trkpt>
      <trkpt lat="42.116798" lon="12.83948">
        <ele>848</ele>
        <time>2010-01-01T00:50:48.000Z</time>
      </trkpt>
      <trkpt lat="42.11692" lon="12.83953">
        <ele>850</ele>
        <time>2010-01-01T00:50:53.000Z</time>
      </trkpt>
      <trkpt lat="42.11721" lon="12.83972">
        <ele>858</ele>
        <time>2010-01-01T00:51:05.000Z</time>
      </trkpt>
      <trkpt lat="42.117432" lon="12.83976">
        <ele>862</ele>
        <time>2010-01-01T00:51:14.000Z</time>
      </trkpt>
      <trkpt lat="42.117771" lon="12.83969">
        <ele>869</ele>
        <time>2010-01-01T00:51:28.000Z</time>
      </trkpt>
      <trkpt lat="42.117989" lon="12.83957">
        <ele>868</ele>
        <time>2010-01-01T00:51:38.000Z</time>
      </trkpt>
      <trkpt lat="42.11816" lon="12.8395">
        <ele>867</ele>
        <time>2010-01-01T00:51:45.000Z</time>
      </trkpt>
      <trkpt lat="42.118568" lon="12.83964">
        <ele>873</ele>
        <time>2010-01-01T00:52:02.000Z</time>
      </trkpt>
      <trkpt lat="42.11903" lon="12.83961">
        <ele>875</ele>
        <time>2010-01-01T00:52:20.000Z</time>
      </trkpt>
      <trkpt lat="42.119221" lon="12.83967">
        <ele>878</ele>
        <time>2010-01-01T00:52:28.000Z</time>
      </trkpt>
      <trkpt lat="42.119732" lon="12.84">
        <ele>888</ele>
        <time>2010-01-01T00:52:51.000Z</time>
      </trkpt>
      <trkpt lat="42.120079" lon="12.84041">
        <ele>896</ele>
        <time>2010-01-01T00:53:09.000Z</time>
      </trkpt>
      <trkpt lat="42.120651" lon="12.84092">
        <ele>904</ele>
        <time>2010-01-01T00:53:36.000Z</time>
      </trkpt>
      <trkpt lat="42.12077" lon="12.84092">
        <ele>902</ele>
        <time>2010-01-01T00:53:41.000Z</time>
      </trkpt>
      <trkpt lat="42.120838" lon="12.84087">
        <ele>899</ele>
        <time>2010-01-01T00:53:44.000Z</time>
      </trkpt>
      <trkpt lat="42.12125" lon="12.84041">
        <ele>895</ele>
        <time>2010-01-01T00:54:06.000Z</time>
      </trkpt>
      <trkpt lat="42.121288" lon="12.84031">
        <ele>895</ele>
        <time>2010-01-01T00:54:09.000Z</time>
      </trkpt>
      <trkpt lat="42.121239" lon="12.83979">
        <ele>891</ele>
        <time>2010-01-01T00:54:25.000Z</time>
      </trkpt>
      <trkpt lat="42.121269" lon="12.83966">
        <ele>892</ele>
        <time>2010-01-01T00:54:29.000Z</time>
      </trkpt>
      <trkpt lat="42.121361" lon="12.83951">
        <ele>894</ele>
        <time>2010-01-01T00:54:35.000Z</time>
      </trkpt>
      <trkpt lat="42.121552" lon="12.83948">
        <ele>898</ele>
        <time>2010-01-01T00:54:42.000Z</time>
      </trkpt>
      <trkpt lat="42.121658" lon="12.83954">
        <ele>901</ele>
        <time>2010-01-01T00:54:47.000Z</time>
      </trkpt>
      <trkpt lat="42.12175" lon="12.83966">
        <ele>901</ele>
        <time>2010-01-01T00:54:52.000Z</time>
      </trkpt>
      <trkpt lat="42.12183" lon="12.83992">
        <ele>902</ele>
        <time>2010-01-01T00:55:00.000Z</time>
      </trkpt>
      <trkpt lat="42.121861" lon="12.84025">
        <ele>906</ele>
        <time>2010-01-01T00:55:10.000Z</time>
      </trkpt>
      <trkpt lat="42.121811" lon="12.84079">
        <ele>908</ele>
        <time>2010-01-01T00:55:26.000Z</time>
      </trkpt>
      <trkpt lat="42.121769" lon="12.84111">
        <ele>908</ele>
        <time>2010-01-01T00:55:36.000Z</time>
      </trkpt>
      <trkpt lat="42.121868" lon="12.84112">
        <ele>908</ele>
        <time>2010-01-01T00:55:40.000Z</time>
      </trkpt>
      <trkpt lat="42.12188" lon="12.84122">
        <ele>907</ele>
        <time>2010-01-01T00:55:43.000Z</time>
      </trkpt>
      <trkpt lat="42.121792" lon="12.84155">
        <ele>902</ele>
        <time>2010-01-01T00:55:53.000Z</time>
      </trkpt>
      <trkpt lat="42.121441" lon="12.84168">
        <ele>907</ele>
        <time>2010-01-01T00:56:08.000Z</time>
      </trkpt>
      <trkpt lat="42.1213" lon="12.84191">
        <ele>910</ele>
        <time>2010-01-01T00:56:17.000Z</time>
      </trkpt>
      <trkpt lat="42.121052" lon="12.84265">
        <ele>914</ele>
        <time>2010-01-01T00:56:41.000Z</time>
      </trkpt>
      <trkpt lat="42.121052" lon="12.84285">
        <ele>914</ele>
        <time>2010-01-01T00:56:47.000Z</time>
      </trkpt>
      <trkpt lat="42.12109" lon="12.8431">
        <ele>910</ele>
        <time>2010-01-01T00:56:55.000Z</time>
      </trkpt>
      <trkpt lat="42.121078" lon="12.84327">
        <ele>907</ele>
        <time>2010-01-01T00:57:00.000Z</time>
      </trkpt>
      <trkpt lat="42.121021" lon="12.84347">
        <ele>906</ele>
        <time>2010-01-01T00:57:06.000Z</time>
      </trkpt>
      <trkpt lat="42.12093" lon="12.84366">
        <ele>906</ele>
        <time>2010-01-01T00:57:13.000Z</time>
      </trkpt>
      <trkpt lat="42.120811" lon="12.84383">
        <ele>909</ele>
        <time>2010-01-01T00:57:20.000Z</time>
      </trkpt>
      <trkpt lat="42.120731" lon="12.84403">
        <ele>911</ele>
        <time>2010-01-01T00:57:26.000Z</time>
      </trkpt>
      <trkpt lat="42.120701" lon="12.84426">
        <ele>908</ele>
        <time>2010-01-01T00:57:33.000Z</time>
      </trkpt>
      <trkpt lat="42.120701" lon="12.84457">
        <ele>902</ele>
        <time>2010-01-01T00:57:43.000Z</time>
      </trkpt>
      <trkpt lat="42.12072" lon="12.84478">
        <ele>898</ele>
        <time>2010-01-01T00:57:49.000Z</time>
      </trkpt>
      <trkpt lat="42.120708" lon="12.84487">
        <ele>897</ele>
        <time>2010-01-01T00:57:52.000Z</time>
      </trkpt>
      <trkpt lat="42.120682" lon="12.84498">
        <ele>896</ele>
        <time>2010-01-01T00:57:55.000Z</time>
      </trkpt>
      <trkpt lat="42.120541" lon="12.84518">
        <ele>894</ele>
        <time>2010-01-01T00:58:03.000Z</time>
      </trkpt>
      <trkpt lat="42.120331" lon="12.84544">
        <ele>894</ele>
        <time>2010-01-01T00:58:15.000Z</time>
      </trkpt>
      <trkpt lat="42.120079" lon="12.8457">
        <ele>891</ele>
        <time>2010-01-01T00:58:27.000Z</time>
      </trkpt>
      <trkpt lat="42.11964" lon="12.84602">
        <ele>890</ele>
        <time>2010-01-01T00:58:47.000Z</time>
      </trkpt>
      <trkpt lat="42.119091" lon="12.84645">
        <ele>887</ele>
        <time>2010-01-01T00:59:13.000Z</time>
      </trkpt>
      <trkpt lat="42.119011" lon="12.84655">
        <ele>885</ele>
        <time>2010-01-01T00:59:17.000Z</time>
      </trkpt>
      <trkpt lat="42.118889" lon="12.84676">
        <ele>879</ele>
        <time>2010-01-01T00:59:25.000Z</time>
      </trkpt>
      <trkpt lat="42.118771" lon="12.8469">
        <ele>877</ele>
        <time>2010-01-01T00:59:31.000Z</time>
      </trkpt>
      <trkpt lat="42.11832" lon="12.8472">
        <ele>875</ele>
        <time>2010-01-01T00:59:51.000Z</time>
      </trkpt>
      <trkpt lat="42.117962" lon="12.84742">
        <ele>870</ele>
        <time>2010-01-01T01:00:07.000Z</time>
      </trkpt>
      <trkpt lat="42.117722" lon="12.84752">
        <ele>867</ele>
        <time>2010-01-01T01:00:17.000Z</time>
      </trkpt>
      <trkpt lat="42.117439" lon="12.84756">
        <ele>864</ele>
        <time>2010-01-01T01:00:29.000Z</time>
      </trkpt>
      <trkpt lat="42.117199" lon="12.84756">
        <ele>861</ele>
        <time>2010-01-01T01:00:38.000Z</time>
      </trkpt>
      <trkpt lat="42.116619" lon="12.84745">
        <ele>861</ele>
        <time>2010-01-01T01:01:02.000Z</time>
      </trkpt>
      <trkpt lat="42.116409" lon="12.84745">
        <ele>863</ele>
        <time>2010-01-01T01:01:10.000Z</time>
      </trkpt>
      <trkpt lat="42.116138" lon="12.84747">
        <ele>864</ele>
        <time>2010-01-01T01:01:21.000Z</time>
      </trkpt>
      <trkpt lat="42.115589" lon="12.84762">
        <ele>854</ele>
        <time>2010-01-01T01:01:43.000Z</time>
      </trkpt>
      <trkpt lat="42.115398" lon="12.8477">
        <ele>851</ele>
        <time>2010-01-01T01:01:51.000Z</time>
      </trkpt>
      <trkpt lat="42.115261" lon="12.84781">
        <ele>846</ele>
        <time>2010-01-01T01:01:58.000Z</time>
      </trkpt>
      <trkpt lat="42.115131" lon="12.84788">
        <ele>843</ele>
        <time>2010-01-01T01:02:03.000Z</time>
      </trkpt>
      <trkpt lat="42.115051" lon="12.8479">
        <ele>842</ele>
        <time>2010-01-01T01:02:07.000Z</time>
      </trkpt>
      <trkpt lat="42.11414" lon="12.84778">
        <ele>853</ele>
        <time>2010-01-01T01:02:43.000Z</time>
      </trkpt>
      <trkpt lat="42.113998" lon="12.8478">
        <ele>852</ele>
        <time>2010-01-01T01:02:49.000Z</time>
      </trkpt>
      <trkpt lat="42.11377" lon="12.84793">
        <ele>845</ele>
        <time>2010-01-01T01:02:59.000Z</time>
      </trkpt>
      <trkpt lat="42.113609" lon="12.8481">
        <ele>836</ele>
        <time>2010-01-01T01:03:07.000Z</time>
      </trkpt>
      <trkpt lat="42.11343" lon="12.84821">
        <ele>838</ele>
        <time>2010-01-01T01:03:15.000Z</time>
      </trkpt>
      <trkpt lat="42.113258" lon="12.84828">
        <ele>842</ele>
        <time>2010-01-01T01:03:22.000Z</time>
      </trkpt>
      <trkpt lat="42.11311" lon="12.8483">
        <ele>846</ele>
        <time>2010-01-01T01:03:28.000Z</time>
      </trkpt>
      <trkpt lat="42.112659" lon="12.84859">
        <ele>844</ele>
        <time>2010-01-01T01:03:48.000Z</time>
      </trkpt>
      <trkpt lat="42.112541" lon="12.84864">
        <ele>847</ele>
        <time>2010-01-01T01:03:53.000Z</time>
      </trkpt>
      <trkpt lat="42.112411" lon="12.84874">
        <ele>851</ele>
        <time>2010-01-01T01:03:59.000Z</time>
      </trkpt>
      <trkpt lat="42.112049" lon="12.84946">
        <ele>847</ele>
        <time>2010-01-01T01:04:25.000Z</time>
      </trkpt>
      <trkpt lat="42.11145" lon="12.84997">
        <ele>852</ele>
        <time>2010-01-01T01:04:53.000Z</time>
      </trkpt>
      <trkpt lat="42.11121" lon="12.85013">
        <ele>857</ele>
        <time>2010-01-01T01:05:04.000Z</time>
      </trkpt>
      <trkpt lat="42.111038" lon="12.85027">
        <ele>857</ele>
        <time>2010-01-01T01:05:12.000Z</time>
      </trkpt>
      <trkpt lat="42.110821" lon="12.85031">
        <ele>862</ele>
        <time>2010-01-01T01:05:21.000Z</time>
      </trkpt>
      <trkpt lat="42.11002" lon="12.85073">
        <ele>857</ele>
        <time>2010-01-01T01:05:55.000Z</time>
      </trkpt>
      <trkpt lat="42.10944" lon="12.851">
        <ele>860</ele>
        <time>2010-01-01T01:06:20.000Z</time>
      </trkpt>
      <trkpt lat="42.10931" lon="12.85109">
        <ele>860</ele>
        <time>2010-01-01T01:06:26.000Z</time>
      </trkpt>
      <trkpt lat="42.109268" lon="12.85117">
        <ele>860</ele>
        <time>2010-01-01T01:06:28.000Z</time>
      </trkpt>
      <trkpt lat="42.10928" lon="12.85125">
        <ele>860</ele>
        <time>2010-01-01T01:06:31.000Z</time>
      </trkpt>
      <trkpt lat="42.10931" lon="12.85133">
        <ele>860</ele>
        <time>2010-01-01T01:06:33.000Z</time>
      </trkpt>
      <trkpt lat="42.109379" lon="12.85134">
        <ele>860</ele>
        <time>2010-01-01T01:06:36.000Z</time>
      </trkpt>
      <trkpt lat="42.109371" lon="12.85134">
        <ele>860</ele>
        <time>2010-01-01T01:06:37.000Z</time>
      </trkpt>
      <trkpt lat="42.10968" lon="12.85137">
        <ele>859</ele>
        <time>2010-01-01T01:06:49.000Z</time>
      </trkpt>
      <trkpt lat="42.10981" lon="12.85144">
        <ele>860</ele>
        <time>2010-01-01T01:06:55.000Z</time>
      </trkpt>
      <trkpt lat="42.109959" lon="12.85144">
        <ele>859</ele>
        <time>2010-01-01T01:07:01.000Z</time>
      </trkpt>
      <trkpt lat="42.110199" lon="12.85128">
        <ele>855</ele>
        <time>2010-01-01T01:07:11.000Z</time>
      </trkpt>
      <trkpt lat="42.110748" lon="12.85108">
        <ele>853</ele>
        <time>2010-01-01T01:07:34.000Z</time>
      </trkpt>
      <trkpt lat="42.111439" lon="12.85091">
        <ele>849</ele>
        <time>2010-01-01T01:08:02.000Z</time>
      </trkpt>
      <trkpt lat="42.111649" lon="12.85081">
        <ele>846</ele>
        <time>2010-01-01T01:08:11.000Z</time>
      </trkpt>
      <trkpt lat="42.112209" lon="12.85069">
        <ele>837</ele>
        <time>2010-01-01T01:08:34.000Z</time>
      </trkpt>
      <trkpt lat="42.11235" lon="12.85061">
        <ele>835</ele>
        <time>2010-01-01T01:08:40.000Z</time>
      </trkpt>
      <trkpt lat="42.112591" lon="12.85038">
        <ele>830</ele>
        <time>2010-01-01T01:08:52.000Z</time>
      </trkpt>
      <trkpt lat="42.112808" lon="12.85024">
        <ele>825</ele>
        <time>2010-01-01T01:09:02.000Z</time>
      </trkpt>
      <trkpt lat="42.11298" lon="12.85032">
        <ele>826</ele>
        <time>2010-01-01T01:09:09.000Z</time>
      </trkpt>
      <trkpt lat="42.113239" lon="12.8504">
        <ele>825</ele>
        <time>2010-01-01T01:09:19.000Z</time>
      </trkpt>
      <trkpt lat="42.1133" lon="12.85039">
        <ele>824</ele>
        <time>2010-01-01T01:09:22.000Z</time>
      </trkpt>
      <trkpt lat="42.113541" lon="12.85043">
        <ele>825</ele>
        <time>2010-01-01T01:09:32.000Z</time>
      </trkpt>
      <trkpt lat="42.113701" lon="12.85049">
        <ele>826</ele>
        <time>2010-01-01T01:09:38.000Z</time>
      </trkpt>
      <trkpt lat="42.113869" lon="12.85061">
        <ele>829</ele>
        <time>2010-01-01T01:09:46.000Z</time>
      </trkpt>
      <trkpt lat="42.11409" lon="12.85074">
        <ele>826</ele>
        <time>2010-01-01T01:09:55.000Z</time>
      </trkpt>
      <trkpt lat="42.114208" lon="12.85087">
        <ele>824</ele>
        <time>2010-01-01T01:10:02.000Z</time>
      </trkpt>
      <trkpt lat="42.114311" lon="12.85108">
        <ele>825</ele>
        <time>2010-01-01T01:10:09.000Z</time>
      </trkpt>
      <trkpt lat="42.114391" lon="12.85128">
        <ele>825</ele>
        <time>2010-01-01T01:10:16.000Z</time>
      </trkpt>
      <trkpt lat="42.114429" lon="12.85159">
        <ele>829</ele>
        <time>2010-01-01T01:10:25.000Z</time>
      </trkpt>
      <trkpt lat="42.114479" lon="12.85179">
        <ele>834</ele>
        <time>2010-01-01T01:10:31.000Z</time>
      </trkpt>
      <trkpt lat="42.114552" lon="12.85187">
        <ele>836</ele>
        <time>2010-01-01T01:10:35.000Z</time>
      </trkpt>
      <trkpt lat="42.11467" lon="12.85189">
        <ele>835</ele>
        <time>2010-01-01T01:10:40.000Z</time>
      </trkpt>
      <trkpt lat="42.11491" lon="12.85184">
        <ele>833</ele>
        <time>2010-01-01T01:10:50.000Z</time>
      </trkpt>
      <trkpt lat="42.115219" lon="12.85164">
        <ele>826</ele>
        <time>2010-01-01T01:11:03.000Z</time>
      </trkpt>
      <trkpt lat="42.115459" lon="12.85156">
        <ele>828</ele>
        <time>2010-01-01T01:11:13.000Z</time>
      </trkpt>
      <trkpt lat="42.1157" lon="12.85152">
        <ele>831</ele>
        <time>2010-01-01T01:11:23.000Z</time>
      </trkpt>
      <trkpt lat="42.11594" lon="12.85153">
        <ele>831</ele>
        <time>2010-01-01T01:11:33.000Z</time>
      </trkpt>
      <trkpt lat="42.116081" lon="12.85158">
        <ele>829</ele>
        <time>2010-01-01T01:11:38.000Z</time>
      </trkpt>
      <trkpt lat="42.11618" lon="12.85166">
        <ele>828</ele>
        <time>2010-01-01T01:11:43.000Z</time>
      </trkpt>
      <trkpt lat="42.116249" lon="12.85177">
        <ele>829</ele>
        <time>2010-01-01T01:11:47.000Z</time>
      </trkpt>
      <trkpt lat="42.116299" lon="12.85192">
        <ele>831</ele>
        <time>2010-01-01T01:11:52.000Z</time>
      </trkpt>
      <trkpt lat="42.11631" lon="12.85236">
        <ele>838</ele>
        <time>2010-01-01T01:12:05.000Z</time>
      </trkpt>
      <trkpt lat="42.11636" lon="12.85274">
        <ele>839</ele>
        <time>2010-01-01T01:12:17.000Z</time>
      </trkpt>
      <trkpt lat="42.116322" lon="12.85306">
        <ele>846</ele>
        <time>2010-01-01T01:12:26.000Z</time>
      </trkpt>
      <trkpt lat="42.116348" lon="12.85316">
        <ele>847</ele>
        <time>2010-01-01T01:12:30.000Z</time>
      </trkpt>
      <trkpt lat="42.11639" lon="12.85322">
        <ele>847</ele>
        <time>2010-01-01T01:12:32.000Z</time>
      </trkpt>
      <trkpt lat="42.116718" lon="12.85333">
        <ele>842</ele>
        <time>2010-01-01T01:12:46.000Z</time>
      </trkpt>
      <trkpt lat="42.11694" lon="12.85338">
        <ele>844</ele>
        <time>2010-01-01T01:12:55.000Z</time>
      </trkpt>
      <trkpt lat="42.117222" lon="12.85336">
        <ele>844</ele>
        <time>2010-01-01T01:13:06.000Z</time>
      </trkpt>
      <trkpt lat="42.11805" lon="12.8531">
        <ele>840</ele>
        <time>2010-01-01T01:13:40.000Z</time>
      </trkpt>
      <trkpt lat="42.11829" lon="12.85306">
        <ele>842</ele>
        <time>2010-01-01T01:13:50.000Z</time>
      </trkpt>
      <trkpt lat="42.118439" lon="12.85307">
        <ele>844</ele>
        <time>2010-01-01T01:13:56.000Z</time>
      </trkpt>
      <trkpt lat="42.118599" lon="12.85312">
        <ele>847</ele>
        <time>2010-01-01T01:14:02.000Z</time>
      </trkpt>
      <trkpt lat="42.11871" lon="12.85325">
        <ele>849</ele>
        <time>2010-01-01T01:14:08.000Z</time>
      </trkpt>
      <trkpt lat="42.11879" lon="12.85345">
        <ele>853</ele>
        <time>2010-01-01T01:14:15.000Z</time>
      </trkpt>
      <trkpt lat="42.118919" lon="12.85357">
        <ele>854</ele>
        <time>2010-01-01T01:14:21.000Z</time>
      </trkpt>
      <trkpt lat="42.119431" lon="12.85392">
        <ele>857</ele>
        <time>2010-01-01T01:14:44.000Z</time>
      </trkpt>
      <trkpt lat="42.11953" lon="12.85391">
        <ele>856</ele>
        <time>2010-01-01T01:14:48.000Z</time>
      </trkpt>
      <trkpt lat="42.11977" lon="12.85384">
        <ele>850</ele>
        <time>2010-01-01T01:14:58.000Z</time>
      </trkpt>
      <trkpt lat="42.119949" lon="12.85384">
        <ele>848</ele>
        <time>2010-01-01T01:15:05.000Z</time>
      </trkpt>
      <trkpt lat="42.12006" lon="12.85388">
        <ele>849</ele>
        <time>2010-01-01T01:15:10.000Z</time>
      </trkpt>
      <trkpt lat="42.12043" lon="12.85407">
        <ele>857</ele>
        <time>2010-01-01T01:15:25.000Z</time>
      </trkpt>
      <trkpt lat="42.12077" lon="12.85405">
        <ele>858</ele>
        <time>2010-01-01T01:15:39.000Z</time>
      </trkpt>
      <trkpt lat="42.120918" lon="12.85394">
        <ele>857</ele>
        <time>2010-01-01T01:15:46.000Z</time>
      </trkpt>
      <trkpt lat="42.121262" lon="12.8536">
        <ele>853</ele>
        <time>2010-01-01T01:16:03.000Z</time>
      </trkpt>
      <trkpt lat="42.12146" lon="12.85342">
        <ele>852</ele>
        <time>2010-01-01T01:16:12.000Z</time>
      </trkpt>
      <trkpt lat="42.12167" lon="12.85327">
        <ele>855</ele>
        <time>2010-01-01T01:16:22.000Z</time>
      </trkpt>
      <trkpt lat="42.122009" lon="12.8531">
        <ele>857</ele>
        <time>2010-01-01T01:16:36.000Z</time>
      </trkpt>
      <trkpt lat="42.122131" lon="12.8531">
        <ele>857</ele>
        <time>2010-01-01T01:16:41.000Z</time>
      </trkpt>
      <trkpt lat="42.122372" lon="12.85325">
        <ele>864</ele>
        <time>2010-01-01T01:16:52.000Z</time>
      </trkpt>
      <trkpt lat="42.122581" lon="12.85334">
        <ele>867</ele>
        <time>2010-01-01T01:17:01.000Z</time>
      </trkpt>
      <trkpt lat="42.1231" lon="12.85345">
        <ele>876</ele>
        <time>2010-01-01T01:17:22.000Z</time>
      </trkpt>
      <trkpt lat="42.123379" lon="12.85342">
        <ele>877</ele>
        <time>2010-01-01T01:17:33.000Z</time>
      </trkpt>
      <trkpt lat="42.123569" lon="12.85336">
        <ele>879</ele>
        <time>2010-01-01T01:17:41.000Z</time>
      </trkpt>
      <trkpt lat="42.124088" lon="12.85315">
        <ele>882</ele>
        <time>2010-01-01T01:18:03.000Z</time>
      </trkpt>
      <trkpt lat="42.124611" lon="12.8529">
        <ele>884</ele>
        <time>2010-01-01T01:18:25.000Z</time>
      </trkpt>
      <trkpt lat="42.12479" lon="12.85287">
        <ele>884</ele>
        <time>2010-01-01T01:18:32.000Z</time>
      </trkpt>
      <trkpt lat="42.124989" lon="12.85285">
        <ele>883</ele>
        <time>2010-01-01T01:18:40.000Z</time>
      </trkpt>
      <trkpt lat="42.12513" lon="12.85288">
        <ele>884</ele>
        <time>2010-01-01T01:18:46.000Z</time>
      </trkpt>
      <trkpt lat="42.125351" lon="12.85299">
        <ele>888</ele>
        <time>2010-01-01T01:18:55.000Z</time>
      </trkpt>
      <trkpt lat="42.125481" lon="12.85302">
        <ele>891</ele>
        <time>2010-01-01T01:19:00.000Z</time>
      </trkpt>
      <trkpt lat="42.1259" lon="12.85304">
        <ele>887</ele>
        <time>2010-01-01T01:19:17.000Z</time>
      </trkpt>
      <trkpt lat="42.12606" lon="12.85314">
        <ele>887</ele>
        <time>2010-01-01T01:19:24.000Z</time>
      </trkpt>
      <trkpt lat="42.126099" lon="12.85321">
        <ele>889</ele>
        <time>2010-01-01T01:19:27.000Z</time>
      </trkpt>
      <trkpt lat="42.126129" lon="12.85332">
        <ele>891</ele>
        <time>2010-01-01T01:19:30.000Z</time>
      </trkpt>
      <trkpt lat="42.126141" lon="12.8534">
        <ele>893</ele>
        <time>2010-01-01T01:19:33.000Z</time>
      </trkpt>
      <trkpt lat="42.126099" lon="12.85354">
        <ele>899</ele>
        <time>2010-01-01T01:19:37.000Z</time>
      </trkpt>
      <trkpt lat="42.126129" lon="12.85381">
        <ele>904</ele>
        <time>2010-01-01T01:19:45.000Z</time>
      </trkpt>
      <trkpt lat="42.12611" lon="12.85418">
        <ele>906</ele>
        <time>2010-01-01T01:19:56.000Z</time>
      </trkpt>
      <trkpt lat="42.126148" lon="12.85493">
        <ele>901</ele>
        <time>2010-01-01T01:20:19.000Z</time>
      </trkpt>
      <trkpt lat="42.126129" lon="12.85505">
        <ele>900</ele>
        <time>2010-01-01T01:20:22.000Z</time>
      </trkpt>
      <trkpt lat="42.125912" lon="12.85522">
        <ele>908</ele>
        <time>2010-01-01T01:20:32.000Z</time>
      </trkpt>
      <trkpt lat="42.125751" lon="12.85538">
        <ele>912</ele>
        <time>2010-01-01T01:20:40.000Z</time>
      </trkpt>
      <trkpt lat="42.125629" lon="12.85556">
        <ele>913</ele>
        <time>2010-01-01T01:20:48.000Z</time>
      </trkpt>
      <trkpt lat="42.12532" lon="12.85589">
        <ele>918</ele>
        <time>2010-01-01T01:21:03.000Z</time>
      </trkpt>
      <trkpt lat="42.12524" lon="12.85601">
        <ele>918</ele>
        <time>2010-01-01T01:21:08.000Z</time>
      </trkpt>
      <trkpt lat="42.12508" lon="12.85616">
        <ele>920</ele>
        <time>2010-01-01T01:21:16.000Z</time>
      </trkpt>
      <trkpt lat="42.12495" lon="12.85635">
        <ele>917</ele>
        <time>2010-01-01T01:21:24.000Z</time>
      </trkpt>
      <trkpt lat="42.12458" lon="12.85658">
        <ele>929</ele>
        <time>2010-01-01T01:21:40.000Z</time>
      </trkpt>
      <trkpt lat="42.124458" lon="12.85677">
        <ele>930</ele>
        <time>2010-01-01T01:21:47.000Z</time>
      </trkpt>
      <trkpt lat="42.124161" lon="12.85743">
        <ele>931</ele>
        <time>2010-01-01T01:22:10.000Z</time>
      </trkpt>
      <trkpt lat="42.12389" lon="12.85782">
        <ele>930</ele>
        <time>2010-01-01T01:22:26.000Z</time>
      </trkpt>
      <trkpt lat="42.123772" lon="12.85797">
        <ele>935</ele>
        <time>2010-01-01T01:22:33.000Z</time>
      </trkpt>
      <trkpt lat="42.123718" lon="12.85816">
        <ele>935</ele>
        <time>2010-01-01T01:22:39.000Z</time>
      </trkpt>
      <trkpt lat="42.123741" lon="12.85847">
        <ele>929</ele>
        <time>2010-01-01T01:22:48.000Z</time>
      </trkpt>
      <trkpt lat="42.123711" lon="12.85872">
        <ele>928</ele>
        <time>2010-01-01T01:22:55.000Z</time>
      </trkpt>
      <trkpt lat="42.123611" lon="12.85894">
        <ele>933</ele>
        <time>2010-01-01T01:23:03.000Z</time>
      </trkpt>
      <trkpt lat="42.123459" lon="12.85911">
        <ele>939</ele>
        <time>2010-01-01T01:23:11.000Z</time>
      </trkpt>
      <trkpt lat="42.123329" lon="12.85934">
        <ele>943</ele>
        <time>2010-01-01T01:23:20.000Z</time>
      </trkpt>
      <trkpt lat="42.123299" lon="12.85958">
        <ele>944</ele>
        <time>2010-01-01T01:23:27.000Z</time>
      </trkpt>
      <trkpt lat="42.123341" lon="12.85984">
        <ele>941</ele>
        <time>2010-01-01T01:23:35.000Z</time>
      </trkpt>
      <trkpt lat="42.123489" lon="12.86018">
        <ele>935</ele>
        <time>2010-01-01T01:23:46.000Z</time>
      </trkpt>
      <trkpt lat="42.123581" lon="12.8605">
        <ele>934</ele>
        <time>2010-01-01T01:23:57.000Z</time>
      </trkpt>
      <trkpt lat="42.12365" lon="12.86083">
        <ele>934</ele>
        <time>2010-01-01T01:24:07.000Z</time>
      </trkpt>
      <trkpt lat="42.123711" lon="12.86104">
        <ele>932</ele>
        <time>2010-01-01T01:24:13.000Z</time>
      </trkpt>
      <trkpt lat="42.123749" lon="12.86152">
        <ele>931</ele>
        <time>2010-01-01T01:24:28.000Z</time>
      </trkpt>
      <trkpt lat="42.123741" lon="12.86172">
        <ele>931</ele>
        <time>2010-01-01T01:24:34.000Z</time>
      </trkpt>
      <trkpt lat="42.123798" lon="12.86196">
        <ele>926</ele>
        <time>2010-01-01T01:24:41.000Z</time>
      </trkpt>
      <trkpt lat="42.123859" lon="12.86215">
        <ele>922</ele>
        <time>2010-01-01T01:24:47.000Z</time>
      </trkpt>
      <trkpt lat="42.123859" lon="12.86231">
        <ele>921</ele>
        <time>2010-01-01T01:24:52.000Z</time>
      </trkpt>
      <trkpt lat="42.123829" lon="12.86239">
        <ele>921</ele>
        <time>2010-01-01T01:24:55.000Z</time>
      </trkpt>
      <trkpt lat="42.12373" lon="12.86251">
        <ele>920</ele>
        <time>2010-01-01T01:25:00.000Z</time>
      </trkpt>
      <trkpt lat="42.123501" lon="12.8626">
        <ele>918</ele>
        <time>2010-01-01T01:25:10.000Z</time>
      </trkpt>
      <trkpt lat="42.123058" lon="12.86262">
        <ele>918</ele>
        <time>2010-01-01T01:25:27.000Z</time>
      </trkpt>
      <trkpt lat="42.122959" lon="12.86267">
        <ele>918</ele>
        <time>2010-01-01T01:25:32.000Z</time>
      </trkpt>
      <trkpt lat="42.122871" lon="12.8628">
        <ele>915</ele>
        <time>2010-01-01T01:25:37.000Z</time>
      </trkpt>
      <trkpt lat="42.122761" lon="12.86306">
        <ele>910</ele>
        <time>2010-01-01T01:25:46.000Z</time>
      </trkpt>
      <trkpt lat="42.122688" lon="12.86334">
        <ele>908</ele>
        <time>2010-01-01T01:25:55.000Z</time>
      </trkpt>
      <trkpt lat="42.122559" lon="12.86392">
        <ele>902</ele>
        <time>2010-01-01T01:26:13.000Z</time>
      </trkpt>
      <trkpt lat="42.122459" lon="12.86408">
        <ele>899</ele>
        <time>2010-01-01T01:26:19.000Z</time>
      </trkpt>
      <trkpt lat="42.122162" lon="12.86419">
        <ele>900</ele>
        <time>2010-01-01T01:26:31.000Z</time>
      </trkpt>
      <trkpt lat="42.12207" lon="12.86427">
        <ele>900</ele>
        <time>2010-01-01T01:26:36.000Z</time>
      </trkpt>
      <trkpt lat="42.121971" lon="12.8644">
        <ele>899</ele>
        <time>2010-01-01T01:26:41.000Z</time>
      </trkpt>
      <trkpt lat="42.121799" lon="12.86473">
        <ele>901</ele>
        <time>2010-01-01T01:26:53.000Z</time>
      </trkpt>
      <trkpt lat="42.12162" lon="12.8649">
        <ele>905</ele>
        <time>2010-01-01T01:27:02.000Z</time>
      </trkpt>
      <trkpt lat="42.121521" lon="12.86505">
        <ele>906</ele>
        <time>2010-01-01T01:27:08.000Z</time>
      </trkpt>
      <trkpt lat="42.121449" lon="12.86554">
        <ele>904</ele>
        <time>2010-01-01T01:27:23.000Z</time>
      </trkpt>
      <trkpt lat="42.121078" lon="12.86568">
        <ele>911</ele>
        <time>2010-01-01T01:27:38.000Z</time>
      </trkpt>
      <trkpt lat="42.120811" lon="12.86579">
        <ele>916</ele>
        <time>2010-01-01T01:27:49.000Z</time>
      </trkpt>
      <trkpt lat="42.12064" lon="12.8659">
        <ele>920</ele>
        <time>2010-01-01T01:27:57.000Z</time>
      </trkpt>
      <trkpt lat="42.120461" lon="12.86607">
        <ele>923</ele>
        <time>2010-01-01T01:28:06.000Z</time>
      </trkpt>
      <trkpt lat="42.120331" lon="12.86617">
        <ele>925</ele>
        <time>2010-01-01T01:28:12.000Z</time>
      </trkpt>
      <trkpt lat="42.12019" lon="12.86633">
        <ele>926</ele>
        <time>2010-01-01T01:28:19.000Z</time>
      </trkpt>
      <trkpt lat="42.11982" lon="12.86656">
        <ele>933</ele>
        <time>2010-01-01T01:28:35.000Z</time>
      </trkpt>
      <trkpt lat="42.11945" lon="12.86674">
        <ele>938</ele>
        <time>2010-01-01T01:28:51.000Z</time>
      </trkpt>
      <trkpt lat="42.11916" lon="12.86707">
        <ele>942</ele>
        <time>2010-01-01T01:29:06.000Z</time>
      </trkpt>
      <trkpt lat="42.119061" lon="12.86723">
        <ele>944</ele>
        <time>2010-01-01T01:29:12.000Z</time>
      </trkpt>
      <trkpt lat="42.118919" lon="12.86754">
        <ele>947</ele>
        <time>2010-01-01T01:29:23.000Z</time>
      </trkpt>
      <trkpt lat="42.11879" lon="12.8677">
        <ele>952</ele>
        <time>2010-01-01T01:29:30.000Z</time>
      </trkpt>
      <trkpt lat="42.118679" lon="12.86785">
        <ele>957</ele>
        <time>2010-01-01T01:29:37.000Z</time>
      </trkpt>
      <trkpt lat="42.118568" lon="12.86822">
        <ele>960</ele>
        <time>2010-01-01T01:29:48.000Z</time>
      </trkpt>
      <trkpt lat="42.118488" lon="12.86842">
        <ele>963</ele>
        <time>2010-01-01T01:29:55.000Z</time>
      </trkpt>
      <trkpt lat="42.11842" lon="12.86855">
        <ele>964</ele>
        <time>2010-01-01T01:30:00.000Z</time>
      </trkpt>
      <trkpt lat="42.118309" lon="12.86866">
        <ele>967</ele>
        <time>2010-01-01T01:30:05.000Z</time>
      </trkpt>
      <trkpt lat="42.11768" lon="12.86899">
        <ele>984</ele>
        <time>2010-01-01T01:30:32.000Z</time>
      </trkpt>
      <trkpt lat="42.117329" lon="12.86928">
        <ele>992</ele>
        <time>2010-01-01T01:30:49.000Z</time>
      </trkpt>
      <trkpt lat="42.11721" lon="12.86941">
        <ele>995</ele>
        <time>2010-01-01T01:30:55.000Z</time>
      </trkpt>
      <trkpt lat="42.117081" lon="12.86961">
        <ele>998</ele>
        <time>2010-01-01T01:31:03.000Z</time>
      </trkpt>
      <trkpt lat="42.117031" lon="12.86977">
        <ele>999</ele>
        <time>2010-01-01T01:31:08.000Z</time>
      </trkpt>
      <trkpt lat="42.117001" lon="12.86992">
        <ele>1001</ele>
        <time>2010-01-01T01:31:13.000Z</time>
      </trkpt>
      <trkpt lat="42.116989" lon="12.87009">
        <ele>1002</ele>
        <time>2010-01-01T01:31:18.000Z</time>
      </trkpt>
      <trkpt lat="42.117008" lon="12.8702">
        <ele>1003</ele>
        <time>2010-01-01T01:31:21.000Z</time>
      </trkpt>
      <trkpt lat="42.11729" lon="12.87065">
        <ele>1003</ele>
        <time>2010-01-01T01:31:39.000Z</time>
      </trkpt>
      <trkpt lat="42.117321" lon="12.87075">
        <ele>1003</ele>
        <time>2010-01-01T01:31:42.000Z</time>
      </trkpt>
      <trkpt lat="42.117329" lon="12.87092">
        <ele>1004</ele>
        <time>2010-01-01T01:31:47.000Z</time>
      </trkpt>
      <trkpt lat="42.117298" lon="12.87101">
        <ele>1005</ele>
        <time>2010-01-01T01:31:50.000Z</time>
      </trkpt>
      <trkpt lat="42.117222" lon="12.87108">
        <ele>1008</ele>
        <time>2010-01-01T01:31:54.000Z</time>
      </trkpt>
      <trkpt lat="42.117149" lon="12.87108">
        <ele>1009</ele>
        <time>2010-01-01T01:31:56.000Z</time>
      </trkpt>
      <trkpt lat="42.11702" lon="12.87099">
        <ele>1010</ele>
        <time>2010-01-01T01:32:02.000Z</time>
      </trkpt>
      <trkpt lat="42.116871" lon="12.87094">
        <ele>1013</ele>
        <time>2010-01-01T01:32:08.000Z</time>
      </trkpt>
      <trkpt lat="42.11676" lon="12.87098">
        <ele>1015</ele>
        <time>2010-01-01T01:32:13.000Z</time>
      </trkpt>
      <trkpt lat="42.11652" lon="12.87117">
        <ele>1018</ele>
        <time>2010-01-01T01:32:24.000Z</time>
      </trkpt>
      <trkpt lat="42.116451" lon="12.87121">
        <ele>1019</ele>
        <time>2010-01-01T01:32:27.000Z</time>
      </trkpt>
      <trkpt lat="42.116051" lon="12.87127">
        <ele>1024</ele>
        <time>2010-01-01T01:32:43.000Z</time>
      </trkpt>
      <trkpt lat="42.115711" lon="12.87125">
        <ele>1032</ele>
        <time>2010-01-01T01:32:57.000Z</time>
      </trkpt>
      <trkpt lat="42.115452" lon="12.87136">
        <ele>1035</ele>
        <time>2010-01-01T01:33:08.000Z</time>
      </trkpt>
      <trkpt lat="42.115379" lon="12.87145">
        <ele>1035</ele>
        <time>2010-01-01T01:33:12.000Z</time>
      </trkpt>
      <trkpt lat="42.115311" lon="12.8716">
        <ele>1034</ele>
        <time>2010-01-01T01:33:17.000Z</time>
      </trkpt>
      <trkpt lat="42.115238" lon="12.87192">
        <ele>1030</ele>
        <time>2010-01-01T01:33:27.000Z</time>
      </trkpt>
      <trkpt lat="42.115181" lon="12.87198">
        <ele>1030</ele>
        <time>2010-01-01T01:33:30.000Z</time>
      </trkpt>
      <trkpt lat="42.114979" lon="12.87202">
        <ele>1034</ele>
        <time>2010-01-01T01:33:38.000Z</time>
      </trkpt>
      <trkpt lat="42.114769" lon="12.87202">
        <ele>1040</ele>
        <time>2010-01-01T01:33:46.000Z</time>
      </trkpt>
      <trkpt lat="42.114651" lon="12.8721">
        <ele>1042</ele>
        <time>2010-01-01T01:33:52.000Z</time>
      </trkpt>
      <trkpt lat="42.114559" lon="12.8722">
        <ele>1042</ele>
        <time>2010-01-01T01:33:56.000Z</time>
      </trkpt>
      <trkpt lat="42.114342" lon="12.87256">
        <ele>1041</ele>
        <time>2010-01-01T01:34:10.000Z</time>
      </trkpt>
      <trkpt lat="42.114182" lon="12.87276">
        <ele>1041</ele>
        <time>2010-01-01T01:34:19.000Z</time>
      </trkpt>
      <trkpt lat="42.114071" lon="12.87278">
        <ele>1041</ele>
        <time>2010-01-01T01:34:23.000Z</time>
      </trkpt>
      <trkpt lat="42.113411" lon="12.87276">
        <ele>1045</ele>
        <time>2010-01-01T01:34:50.000Z</time>
      </trkpt>
      <trkpt lat="42.112991" lon="12.87289">
        <ele>1041</ele>
        <time>2010-01-01T01:35:07.000Z</time>
      </trkpt>
      <trkpt lat="42.112751" lon="12.8729">
        <ele>1042</ele>
        <time>2010-01-01T01:35:17.000Z</time>
      </trkpt>
      <trkpt lat="42.112309" lon="12.87289">
        <ele>1043</ele>
        <time>2010-01-01T01:35:34.000Z</time>
      </trkpt>
      <trkpt lat="42.112141" lon="12.87293">
        <ele>1045</ele>
        <time>2010-01-01T01:35:41.000Z</time>
      </trkpt>
      <trkpt lat="42.11208" lon="12.87297">
        <ele>1045</ele>
        <time>2010-01-01T01:35:44.000Z</time>
      </trkpt>
      <trkpt lat="42.112011" lon="12.87317">
        <ele>1044</ele>
        <time>2010-01-01T01:35:50.000Z</time>
      </trkpt>
      <trkpt lat="42.111931" lon="12.87368">
        <ele>1040</ele>
        <time>2010-01-01T01:36:06.000Z</time>
      </trkpt>
      <trkpt lat="42.11187" lon="12.87382">
        <ele>1039</ele>
        <time>2010-01-01T01:36:11.000Z</time>
      </trkpt>
      <trkpt lat="42.111759" lon="12.87394">
        <ele>1041</ele>
        <time>2010-01-01T01:36:16.000Z</time>
      </trkpt>
      <trkpt lat="42.11161" lon="12.87408">
        <ele>1041</ele>
        <time>2010-01-01T01:36:24.000Z</time>
      </trkpt>
      <trkpt lat="42.111401" lon="12.87419">
        <ele>1043</ele>
        <time>2010-01-01T01:36:33.000Z</time>
      </trkpt>
      <trkpt lat="42.11092" lon="12.87413">
        <ele>1053</ele>
        <time>2010-01-01T01:36:52.000Z</time>
      </trkpt>
      <trkpt lat="42.11079" lon="12.87417">
        <ele>1056</ele>
        <time>2010-01-01T01:36:57.000Z</time>
      </trkpt>
      <trkpt lat="42.11068" lon="12.87423">
        <ele>1060</ele>
        <time>2010-01-01T01:37:02.000Z</time>
      </trkpt>
      <trkpt lat="42.110592" lon="12.87431">
        <ele>1061</ele>
        <time>2010-01-01T01:37:06.000Z</time>
      </trkpt>
      <trkpt lat="42.110458" lon="12.87479">
        <ele>1058</ele>
        <time>2010-01-01T01:37:22.000Z</time>
      </trkpt>
      <trkpt lat="42.110439" lon="12.87496">
        <ele>1056</ele>
        <time>2010-01-01T01:37:27.000Z</time>
      </trkpt>
      <trkpt lat="42.110481" lon="12.87531">
        <ele>1050</ele>
        <time>2010-01-01T01:37:37.000Z</time>
      </trkpt>
      <trkpt lat="42.110458" lon="12.87542">
        <ele>1050</ele>
        <time>2010-01-01T01:37:41.000Z</time>
      </trkpt>
      <trkpt lat="42.110378" lon="12.87554">
        <ele>1050</ele>
        <time>2010-01-01T01:37:45.000Z</time>
      </trkpt>
      <trkpt lat="42.11031" lon="12.87558">
        <ele>1051</ele>
        <time>2010-01-01T01:37:48.000Z</time>
      </trkpt>
      <trkpt lat="42.110229" lon="12.87558">
        <ele>1053</ele>
        <time>2010-01-01T01:37:52.000Z</time>
      </trkpt>
      <trkpt lat="42.110088" lon="12.8755">
        <ele>1056</ele>
        <time>2010-01-01T01:37:58.000Z</time>
      </trkpt>
      <trkpt lat="42.109821" lon="12.87542">
        <ele>1063</ele>
        <time>2010-01-01T01:38:09.000Z</time>
      </trkpt>
      <trkpt lat="42.109402" lon="12.87547">
        <ele>1070</ele>
        <time>2010-01-01T01:38:26.000Z</time>
      </trkpt>
      <trkpt lat="42.10928" lon="12.87552">
        <ele>1073</ele>
        <time>2010-01-01T01:38:31.000Z</time>
      </trkpt>
      <trkpt lat="42.109138" lon="12.87572">
        <ele>1075</ele>
        <time>2010-01-01T01:38:39.000Z</time>
      </trkpt>
      <trkpt lat="42.10907" lon="12.87589">
        <ele>1074</ele>
        <time>2010-01-01T01:38:45.000Z</time>
      </trkpt>
      <trkpt lat="42.10899" lon="12.87601">
        <ele>1075</ele>
        <time>2010-01-01T01:38:49.000Z</time>
      </trkpt>
      <trkpt lat="42.108952" lon="12.87617">
        <ele>1073</ele>
        <time>2010-01-01T01:38:54.000Z</time>
      </trkpt>
      <trkpt lat="42.108952" lon="12.87641">
        <ele>1068</ele>
        <time>2010-01-01T01:39:02.000Z</time>
      </trkpt>
      <trkpt lat="42.10891" lon="12.87656">
        <ele>1067</ele>
        <time>2010-01-01T01:39:06.000Z</time>
      </trkpt>
      <trkpt lat="42.108841" lon="12.87666">
        <ele>1066</ele>
        <time>2010-01-01T01:39:10.000Z</time>
      </trkpt>
      <trkpt lat="42.108719" lon="12.87678">
        <ele>1066</ele>
        <time>2010-01-01T01:39:16.000Z</time>
      </trkpt>
      <trkpt lat="42.108681" lon="12.87688">
        <ele>1066</ele>
        <time>2010-01-01T01:39:20.000Z</time>
      </trkpt>
      <trkpt lat="42.10862" lon="12.87702">
        <ele>1065</ele>
        <time>2010-01-01T01:39:25.000Z</time>
      </trkpt>
      <trkpt lat="42.108479" lon="12.87749">
        <ele>1064</ele>
        <time>2010-01-01T01:39:40.000Z</time>
      </trkpt>
      <trkpt lat="42.108452" lon="12.87814">
        <ele>1067</ele>
        <time>2010-01-01T01:39:59.000Z</time>
      </trkpt>
      <trkpt lat="42.108471" lon="12.87847">
        <ele>1073</ele>
        <time>2010-01-01T01:40:09.000Z</time>
      </trkpt>
      <trkpt lat="42.108509" lon="12.87868">
        <ele>1079</ele>
        <time>2010-01-01T01:40:15.000Z</time>
      </trkpt>
      <trkpt lat="42.108589" lon="12.87883">
        <ele>1084</ele>
        <time>2010-01-01T01:40:21.000Z</time>
      </trkpt>
      <trkpt lat="42.108688" lon="12.87892">
        <ele>1085</ele>
        <time>2010-01-01T01:40:25.000Z</time>
      </trkpt>
      <trkpt lat="42.108799" lon="12.87898">
        <ele>1085</ele>
        <time>2010-01-01T01:40:30.000Z</time>
      </trkpt>
      <trkpt lat="42.10907" lon="12.87904">
        <ele>1082</ele>
        <time>2010-01-01T01:40:41.000Z</time>
      </trkpt>
      <trkpt lat="42.109192" lon="12.87909">
        <ele>1081</ele>
        <time>2010-01-01T01:40:46.000Z</time>
      </trkpt>
      <trkpt lat="42.109329" lon="12.87926">
        <ele>1084</ele>
        <time>2010-01-01T01:40:54.000Z</time>
      </trkpt>
      <trkpt lat="42.109531" lon="12.87937">
        <ele>1083</ele>
        <time>2010-01-01T01:41:02.000Z</time>
      </trkpt>
      <trkpt lat="42.109909" lon="12.87937">
        <ele>1080</ele>
        <time>2010-01-01T01:41:18.000Z</time>
      </trkpt>
      <trkpt lat="42.10997" lon="12.87941">
        <ele>1080</ele>
        <time>2010-01-01T01:41:20.000Z</time>
      </trkpt>
      <trkpt lat="42.110008" lon="12.8795">
        <ele>1081</ele>
        <time>2010-01-01T01:41:23.000Z</time>
      </trkpt>
      <trkpt lat="42.110001" lon="12.8796">
        <ele>1082</ele>
        <time>2010-01-01T01:41:26.000Z</time>
      </trkpt>
      <trkpt lat="42.10994" lon="12.87976">
        <ele>1085</ele>
        <time>2010-01-01T01:41:32.000Z</time>
      </trkpt>
      <trkpt lat="42.109718" lon="12.88016">
        <ele>1091</ele>
        <time>2010-01-01T01:41:47.000Z</time>
      </trkpt>
      <trkpt lat="42.109482" lon="12.88052">
        <ele>1097</ele>
        <time>2010-01-01T01:42:01.000Z</time>
      </trkpt>
      <trkpt lat="42.109451" lon="12.8806">
        <ele>1097</ele>
        <time>2010-01-01T01:42:04.000Z</time>
      </trkpt>
      <trkpt lat="42.109371" lon="12.8808">
        <ele>1097</ele>
        <time>2010-01-01T01:42:10.000Z</time>
      </trkpt>
      <trkpt lat="42.109322" lon="12.881">
        <ele>1097</ele>
        <time>2010-01-01T01:42:17.000Z</time>
      </trkpt>
      <trkpt lat="42.109161" lon="12.88132">
        <ele>1102</ele>
        <time>2010-01-01T01:42:28.000Z</time>
      </trkpt>
      <trkpt lat="42.109119" lon="12.88147">
        <ele>1104</ele>
        <time>2010-01-01T01:42:33.000Z</time>
      </trkpt>
      <trkpt lat="42.10915" lon="12.88155">
        <ele>1103</ele>
        <time>2010-01-01T01:42:35.000Z</time>
      </trkpt>
      <trkpt lat="42.109219" lon="12.88159">
        <ele>1101</ele>
        <time>2010-01-01T01:42:38.000Z</time>
      </trkpt>
      <trkpt lat="42.109322" lon="12.8816">
        <ele>1099</ele>
        <time>2010-01-01T01:42:42.000Z</time>
      </trkpt>
      <trkpt lat="42.109699" lon="12.88143">
        <ele>1092</ele>
        <time>2010-01-01T01:42:58.000Z</time>
      </trkpt>
      <trkpt lat="42.11013" lon="12.88134">
        <ele>1094</ele>
        <time>2010-01-01T01:43:16.000Z</time>
      </trkpt>
      <trkpt lat="42.110561" lon="12.88149">
        <ele>1101</ele>
        <time>2010-01-01T01:43:34.000Z</time>
      </trkpt>
      <trkpt lat="42.111519" lon="12.88166">
        <ele>1108</ele>
        <time>2010-01-01T01:44:12.000Z</time>
      </trkpt>
      <trkpt lat="42.111679" lon="12.88166">
        <ele>1110</ele>
        <time>2010-01-01T01:44:19.000Z</time>
      </trkpt>
      <trkpt lat="42.112049" lon="12.88159">
        <ele>1109</ele>
        <time>2010-01-01T01:44:34.000Z</time>
      </trkpt>
      <trkpt lat="42.112141" lon="12.88159">
        <ele>1109</ele>
        <time>2010-01-01T01:44:37.000Z</time>
      </trkpt>
      <trkpt lat="42.112301" lon="12.88162">
        <ele>1110</ele>
        <time>2010-01-01T01:44:44.000Z</time>
      </trkpt>
      <trkpt lat="42.11248" lon="12.88169">
        <ele>1115</ele>
        <time>2010-01-01T01:44:51.000Z</time>
      </trkpt>
      <trkpt lat="42.112659" lon="12.88166">
        <ele>1116</ele>
        <time>2010-01-01T01:44:59.000Z</time>
      </trkpt>
      <trkpt lat="42.112808" lon="12.88158">
        <ele>1114</ele>
        <time>2010-01-01T01:45:05.000Z</time>
      </trkpt>
      <trkpt lat="42.11298" lon="12.88152">
        <ele>1112</ele>
        <time>2010-01-01T01:45:12.000Z</time>
      </trkpt>
      <trkpt lat="42.113392" lon="12.88149">
        <ele>1115</ele>
        <time>2010-01-01T01:45:29.000Z</time>
      </trkpt>
      <trkpt lat="42.113621" lon="12.88155">
        <ele>1119</ele>
        <time>2010-01-01T01:45:38.000Z</time>
      </trkpt>
      <trkpt lat="42.11375" lon="12.88164">
        <ele>1123</ele>
        <time>2010-01-01T01:45:44.000Z</time>
      </trkpt>
      <trkpt lat="42.113991" lon="12.88175">
        <ele>1129</ele>
        <time>2010-01-01T01:45:54.000Z</time>
      </trkpt>
      <trkpt lat="42.114128" lon="12.8817">
        <ele>1128</ele>
        <time>2010-01-01T01:46:00.000Z</time>
      </trkpt>
      <trkpt lat="42.114262" lon="12.88161">
        <ele>1127</ele>
        <time>2010-01-01T01:46:06.000Z</time>
      </trkpt>
      <trkpt lat="42.114422" lon="12.88145">
        <ele>1123</ele>
        <time>2010-01-01T01:46:14.000Z</time>
      </trkpt>
      <trkpt lat="42.114971" lon="12.88111">
        <ele>1127</ele>
        <time>2010-01-01T01:46:38.000Z</time>
      </trkpt>
      <trkpt lat="42.115162" lon="12.88105">
        <ele>1129</ele>
        <time>2010-01-01T01:46:46.000Z</time>
      </trkpt>
      <trkpt lat="42.115391" lon="12.88102">
        <ele>1131</ele>
        <time>2010-01-01T01:46:55.000Z</time>
      </trkpt>
      <trkpt lat="42.115639" lon="12.88107">
        <ele>1132</ele>
        <time>2010-01-01T01:47:05.000Z</time>
      </trkpt>
      <trkpt lat="42.115841" lon="12.88119">
        <ele>1133</ele>
        <time>2010-01-01T01:47:14.000Z</time>
      </trkpt>
      <trkpt lat="42.11599" lon="12.88139">
        <ele>1139</ele>
        <time>2010-01-01T01:47:22.000Z</time>
      </trkpt>
      <trkpt lat="42.116192" lon="12.88179">
        <ele>1145</ele>
        <time>2010-01-01T01:47:37.000Z</time>
      </trkpt>
      <trkpt lat="42.11628" lon="12.88188">
        <ele>1146</ele>
        <time>2010-01-01T01:47:41.000Z</time>
      </trkpt>
      <trkpt lat="42.11644" lon="12.88195">
        <ele>1145</ele>
        <time>2010-01-01T01:47:48.000Z</time>
      </trkpt>
      <trkpt lat="42.116871" lon="12.88192">
        <ele>1142</ele>
        <time>2010-01-01T01:48:05.000Z</time>
      </trkpt>
      <trkpt lat="42.117439" lon="12.88172">
        <ele>1142</ele>
        <time>2010-01-01T01:48:29.000Z</time>
      </trkpt>
      <trkpt lat="42.117641" lon="12.88167">
        <ele>1142</ele>
        <time>2010-01-01T01:48:37.000Z</time>
      </trkpt>
      <trkpt lat="42.117741" lon="12.88169">
        <ele>1142</ele>
        <time>2010-01-01T01:48:41.000Z</time>
      </trkpt>
      <trkpt lat="42.11776" lon="12.88176">
        <ele>1143</ele>
        <time>2010-01-01T01:48:43.000Z</time>
      </trkpt>
      <trkpt lat="42.117691" lon="12.88211">
        <ele>1145</ele>
        <time>2010-01-01T01:48:54.000Z</time>
      </trkpt>
      <trkpt lat="42.117649" lon="12.8822">
        <ele>1145</ele>
        <time>2010-01-01T01:48:57.000Z</time>
      </trkpt>
      <trkpt lat="42.11747" lon="12.88236">
        <ele>1147</ele>
        <time>2010-01-01T01:49:05.000Z</time>
      </trkpt>
      <trkpt lat="42.117378" lon="12.88252">
        <ele>1148</ele>
        <time>2010-01-01T01:49:11.000Z</time>
      </trkpt>
      <trkpt lat="42.117279" lon="12.88288">
        <ele>1146</ele>
        <time>2010-01-01T01:49:23.000Z</time>
      </trkpt>
      <trkpt lat="42.117149" lon="12.88329">
        <ele>1148</ele>
        <time>2010-01-01T01:49:36.000Z</time>
      </trkpt>
      <trkpt lat="42.117142" lon="12.88339">
        <ele>1148</ele>
        <time>2010-01-01T01:49:39.000Z</time>
      </trkpt>
      <trkpt lat="42.11718" lon="12.8835">
        <ele>1147</ele>
        <time>2010-01-01T01:49:43.000Z</time>
      </trkpt>
      <trkpt lat="42.117432" lon="12.88392">
        <ele>1143</ele>
        <time>2010-01-01T01:49:59.000Z</time>
      </trkpt>
      <trkpt lat="42.118038" lon="12.8841">
        <ele>1134</ele>
        <time>2010-01-01T01:50:24.000Z</time>
      </trkpt>
      <trkpt lat="42.11808" lon="12.88414">
        <ele>1133</ele>
        <time>2010-01-01T01:50:26.000Z</time>
      </trkpt>
      <trkpt lat="42.118069" lon="12.88427">
        <ele>1133</ele>
        <time>2010-01-01T01:50:30.000Z</time>
      </trkpt>
      <trkpt lat="42.118038" lon="12.88433">
        <ele>1133</ele>
        <time>2010-01-01T01:50:32.000Z</time>
      </trkpt>
      <trkpt lat="42.11787" lon="12.8845">
        <ele>1135</ele>
        <time>2010-01-01T01:50:40.000Z</time>
      </trkpt>
      <trkpt lat="42.117809" lon="12.88458">
        <ele>1136</ele>
        <time>2010-01-01T01:50:44.000Z</time>
      </trkpt>
      <trkpt lat="42.117802" lon="12.88475">
        <ele>1136</ele>
        <time>2010-01-01T01:50:49.000Z</time>
      </trkpt>
      <trkpt lat="42.117859" lon="12.88522">
        <ele>1128</ele>
        <time>2010-01-01T01:51:03.000Z</time>
      </trkpt>
      <trkpt lat="42.117828" lon="12.88538">
        <ele>1128</ele>
        <time>2010-01-01T01:51:08.000Z</time>
      </trkpt>
      <trkpt lat="42.117748" lon="12.88562">
        <ele>1127</ele>
        <time>2010-01-01T01:51:16.000Z</time>
      </trkpt>
      <trkpt lat="42.11779" lon="12.88595">
        <ele>1121</ele>
        <time>2010-01-01T01:51:25.000Z</time>
      </trkpt>
      <trkpt lat="42.117771" lon="12.88607">
        <ele>1119</ele>
        <time>2010-01-01T01:51:29.000Z</time>
      </trkpt>
      <trkpt lat="42.11763" lon="12.88619">
        <ele>1121</ele>
        <time>2010-01-01T01:51:36.000Z</time>
      </trkpt>
      <trkpt lat="42.117569" lon="12.88628">
        <ele>1120</ele>
        <time>2010-01-01T01:51:39.000Z</time>
      </trkpt>
      <trkpt lat="42.117519" lon="12.88639">
        <ele>1118</ele>
        <time>2010-01-01T01:51:43.000Z</time>
      </trkpt>
      <trkpt lat="42.11742" lon="12.88675">
        <ele>1113</ele>
        <time>2010-01-01T01:51:55.000Z</time>
      </trkpt>
      <trkpt lat="42.117359" lon="12.88705">
        <ele>1109</ele>
        <time>2010-01-01T01:52:04.000Z</time>
      </trkpt>
      <trkpt lat="42.117378" lon="12.88718">
        <ele>1106</ele>
        <time>2010-01-01T01:52:08.000Z</time>
      </trkpt>
      <trkpt lat="42.1175" lon="12.88755">
        <ele>1096</ele>
        <time>2010-01-01T01:52:20.000Z</time>
      </trkpt>
      <trkpt lat="42.11755" lon="12.88762">
        <ele>1094</ele>
        <time>2010-01-01T01:52:23.000Z</time>
      </trkpt>
      <trkpt lat="42.117729" lon="12.88775">
        <ele>1093</ele>
        <time>2010-01-01T01:52:31.000Z</time>
      </trkpt>
      <trkpt lat="42.11779" lon="12.88782">
        <ele>1092</ele>
        <time>2010-01-01T01:52:34.000Z</time>
      </trkpt>
      <trkpt lat="42.117889" lon="12.88803">
        <ele>1092</ele>
        <time>2010-01-01T01:52:41.000Z</time>
      </trkpt>
      <trkpt lat="42.117901" lon="12.8881">
        <ele>1092</ele>
        <time>2010-01-01T01:52:43.000Z</time>
      </trkpt>
      <trkpt lat="42.117859" lon="12.88825">
        <ele>1090</ele>
        <time>2010-01-01T01:52:48.000Z</time>
      </trkpt>
      <trkpt lat="42.11784" lon="12.88845">
        <ele>1087</ele>
        <time>2010-01-01T01:52:54.000Z</time>
      </trkpt>
      <trkpt lat="42.117889" lon="12.88867">
        <ele>1084</ele>
        <time>2010-01-01T01:53:01.000Z</time>
      </trkpt>
      <trkpt lat="42.118038" lon="12.88888">
        <ele>1084</ele>
        <time>2010-01-01T01:53:10.000Z</time>
      </trkpt>
      <trkpt lat="42.11834" lon="12.88905">
        <ele>1085</ele>
        <time>2010-01-01T01:53:23.000Z</time>
      </trkpt>
      <trkpt lat="42.118439" lon="12.88916">
        <ele>1085</ele>
        <time>2010-01-01T01:53:28.000Z</time>
      </trkpt>
      <trkpt lat="42.118561" lon="12.88938">
        <ele>1088</ele>
        <time>2010-01-01T01:53:36.000Z</time>
      </trkpt>
      <trkpt lat="42.11861" lon="12.88953">
        <ele>1089</ele>
        <time>2010-01-01T01:53:41.000Z</time>
      </trkpt>
      <trkpt lat="42.118641" lon="12.88965">
        <ele>1089</ele>
        <time>2010-01-01T01:53:45.000Z</time>
      </trkpt>
      <trkpt lat="42.118671" lon="12.88988">
        <ele>1090</ele>
        <time>2010-01-01T01:53:52.000Z</time>
      </trkpt>
      <trkpt lat="42.11866" lon="12.89019">
        <ele>1087</ele>
        <time>2010-01-01T01:54:01.000Z</time>
      </trkpt>
      <trkpt lat="42.118721" lon="12.89063">
        <ele>1082</ele>
        <time>2010-01-01T01:54:14.000Z</time>
      </trkpt>
      <trkpt lat="42.1189" lon="12.89116">
        <ele>1079</ele>
        <time>2010-01-01T01:54:31.000Z</time>
      </trkpt>
      <trkpt lat="42.118992" lon="12.89135">
        <ele>1078</ele>
        <time>2010-01-01T01:54:38.000Z</time>
      </trkpt>
      <trkpt lat="42.119091" lon="12.89164">
        <ele>1074</ele>
        <time>2010-01-01T01:54:48.000Z</time>
      </trkpt>
      <trkpt lat="42.119171" lon="12.89204">
        <ele>1069</ele>
        <time>2010-01-01T01:55:00.000Z</time>
      </trkpt>
      <trkpt lat="42.119129" lon="12.89275">
        <ele>1063</ele>
        <time>2010-01-01T01:55:21.000Z</time>
      </trkpt>
      <trkpt lat="42.11908" lon="12.89292">
        <ele>1061</ele>
        <time>2010-01-01T01:55:26.000Z</time>
      </trkpt>
      <trkpt lat="42.119011" lon="12.89304">
        <ele>1059</ele>
        <time>2010-01-01T01:55:31.000Z</time>
      </trkpt>
      <trkpt lat="42.118919" lon="12.89309">
        <ele>1058</ele>
        <time>2010-01-01T01:55:35.000Z</time>
      </trkpt>
      <trkpt lat="42.118851" lon="12.8931">
        <ele>1057</ele>
        <time>2010-01-01T01:55:38.000Z</time>
      </trkpt>
      <trkpt lat="42.118778" lon="12.89308">
        <ele>1056</ele>
        <time>2010-01-01T01:55:41.000Z</time>
      </trkpt>
      <trkpt lat="42.118721" lon="12.893">
        <ele>1055</ele>
        <time>2010-01-01T01:55:44.000Z</time>
      </trkpt>
      <trkpt lat="42.11861" lon="12.89263">
        <ele>1054</ele>
        <time>2010-01-01T01:55:56.000Z</time>
      </trkpt>
      <trkpt lat="42.118549" lon="12.89258">
        <ele>1052</ele>
        <time>2010-01-01T01:55:59.000Z</time>
      </trkpt>
      <trkpt lat="42.118488" lon="12.89256">
        <ele>1051</ele>
        <time>2010-01-01T01:56:01.000Z</time>
      </trkpt>
      <trkpt lat="42.11845" lon="12.89248">
        <ele>1050</ele>
        <time>2010-01-01T01:56:04.000Z</time>
      </trkpt>
      <trkpt lat="42.11734" lon="12.889838">
        <ele>1047</ele>
        <time>2010-01-01T01:57:34.000Z</time>
      </trkpt>
      <trkpt lat="42.116936" lon="12.88928">
        <ele>1042</ele>
        <time>2010-01-01T01:57:57.000Z</time>
      </trkpt>
      <trkpt lat="42.116539" lon="12.889227">
        <ele>1036</ele>
        <time>2010-01-01T01:58:13.000Z</time>
      </trkpt>
      <trkpt lat="42.116203" lon="12.889173">
        <ele>1030</ele>
        <time>2010-01-01T01:58:27.000Z</time>
      </trkpt>
      <trkpt lat="42.11594" lon="12.888647">
        <ele>1031</ele>
        <time>2010-01-01T01:58:46.000Z</time>
      </trkpt>
      <trkpt lat="42.115574" lon="12.888412">
        <ele>1028</ele>
        <time>2010-01-01T01:59:02.000Z</time>
      </trkpt>
      <trkpt lat="42.115192" lon="12.888283">
        <ele>1022</ele>
        <time>2010-01-01T01:59:18.000Z</time>
      </trkpt>
      <trkpt lat="42.114738" lon="12.888132">
        <ele>1009</ele>
        <time>2010-01-01T01:59:36.000Z</time>
      </trkpt>
      <trkpt lat="42.114166" lon="12.887971">
        <ele>1005</ele>
        <time>2010-01-01T02:00:00.000Z</time>
      </trkpt>
      <trkpt lat="42.113941" lon="12.888068">
        <ele>999</ele>
        <time>2010-01-01T02:00:09.000Z</time>
      </trkpt>
      <trkpt lat="42.114159" lon="12.888154">
        <ele>996</ele>
        <time>2010-01-01T02:00:18.000Z</time>
      </trkpt>
      <trkpt lat="42.114292" lon="12.888347">
        <ele>989</ele>
        <time>2010-01-01T02:00:26.000Z</time>
      </trkpt>
      <trkpt lat="42.114307" lon="12.888551">
        <ele>984</ele>
        <time>2010-01-01T02:00:32.000Z</time>
      </trkpt>
      <trkpt lat="42.114197" lon="12.888583">
        <ele>981</ele>
        <time>2010-01-01T02:00:37.000Z</time>
      </trkpt>
      <trkpt lat="42.114079" lon="12.888529">
        <ele>981</ele>
        <time>2010-01-01T02:00:42.000Z</time>
      </trkpt>
      <trkpt lat="42.113632" lon="12.888551">
        <ele>976</ele>
        <time>2010-01-01T02:00:59.000Z</time>
      </trkpt>
      <trkpt lat="42.113186" lon="12.888572">
        <ele>966</ele>
        <time>2010-01-01T02:01:17.000Z</time>
      </trkpt>
      <trkpt lat="42.112534" lon="12.88869">
        <ele>957</ele>
        <time>2010-01-01T02:01:44.000Z</time>
      </trkpt>
      <trkpt lat="42.111572" lon="12.888894">
        <ele>944</ele>
        <time>2010-01-01T02:02:23.000Z</time>
      </trkpt>
      <trkpt lat="42.109638" lon="12.889399">
        <ele>915</ele>
        <time>2010-01-01T02:03:42.000Z</time>
      </trkpt>
      <trkpt lat="42.108994" lon="12.889591">
        <ele>904</ele>
        <time>2010-01-01T02:04:08.000Z</time>
      </trkpt>
      <trkpt lat="42.108246" lon="12.889967">
        <ele>900</ele>
        <time>2010-01-01T02:04:40.000Z</time>
      </trkpt>
      <trkpt lat="42.107662" lon="12.890063">
        <ele>900</ele>
        <time>2010-01-01T02:05:03.000Z</time>
      </trkpt>
      <trkpt lat="42.107506" lon="12.890128">
        <ele>895</ele>
        <time>2010-01-01T02:05:10.000Z</time>
      </trkpt>
      <trkpt lat="42.106335" lon="12.890353">
        <ele>891</ele>
        <time>2010-01-01T02:05:57.000Z</time>
      </trkpt>
      <trkpt lat="42.10577" lon="12.890429">
        <ele>885</ele>
        <time>2010-01-01T02:06:20.000Z</time>
      </trkpt>
      <trkpt lat="42.105141" lon="12.890321">
        <ele>879</ele>
        <time>2010-01-01T02:06:45.000Z</time>
      </trkpt>
      <trkpt lat="42.103889" lon="12.89045">
        <ele>879</ele>
        <time>2010-01-01T02:07:36.000Z</time>
      </trkpt>
      <trkpt lat="42.102798" lon="12.890858">
        <ele>868</ele>
        <time>2010-01-01T02:08:21.000Z</time>
      </trkpt>
      <trkpt lat="42.102219" lon="12.89133">
        <ele>858</ele>
        <time>2010-01-01T02:08:48.000Z</time>
      </trkpt>
      <trkpt lat="42.102116" lon="12.891673">
        <ele>850</ele>
        <time>2010-01-01T02:08:59.000Z</time>
      </trkpt>
      <trkpt lat="42.10104" lon="12.89282">
        <ele>840</ele>
        <time>2010-01-01T02:09:54.000Z</time>
      </trkpt>
      <trkpt lat="42.100636" lon="12.893196">
        <ele>836</ele>
        <time>2010-01-01T02:10:14.000Z</time>
      </trkpt>
      <trkpt lat="42.100262" lon="12.893786">
        <ele>832</ele>
        <time>2010-01-01T02:10:37.000Z</time>
      </trkpt>
      <trkpt lat="42.100071" lon="12.894377">
        <ele>819</ele>
        <time>2010-01-01T02:10:56.000Z</time>
      </trkpt>
      <trkpt lat="42.100029" lon="12.894731">
        <ele>813</ele>
        <time>2010-01-01T02:11:07.000Z</time>
      </trkpt>
      <trkpt lat="42.099442" lon="12.895771">
        <ele>812</ele>
        <time>2010-01-01T02:11:45.000Z</time>
      </trkpt>
      <trkpt lat="42.098995" lon="12.89648">
        <ele>813</ele>
        <time>2010-01-01T02:12:13.000Z</time>
      </trkpt>
      <trkpt lat="42.098469" lon="12.896425">
        <ele>815</ele>
        <time>2010-01-01T02:12:34.000Z</time>
      </trkpt>
      <trkpt lat="42.098087" lon="12.896576">
        <ele>805</ele>
        <time>2010-01-01T02:12:50.000Z</time>
      </trkpt>
      <trkpt lat="42.097729" lon="12.896715">
        <ele>799</ele>
        <time>2010-01-01T02:13:05.000Z</time>
      </trkpt>
      <trkpt lat="42.097595" lon="12.896801">
        <ele>797</ele>
        <time>2010-01-01T02:13:11.000Z</time>
      </trkpt>
      <trkpt lat="42.097305" lon="12.897552">
        <ele>783</ele>
        <time>2010-01-01T02:13:36.000Z</time>
      </trkpt>
      <trkpt lat="42.096851" lon="12.897573">
        <ele>782</ele>
        <time>2010-01-01T02:13:54.000Z</time>
      </trkpt>
      <trkpt lat="42.09557" lon="12.897638">
        <ele>775</ele>
        <time>2010-01-01T02:14:46.000Z</time>
      </trkpt>
      <trkpt lat="42.095119" lon="12.897412">
        <ele>773</ele>
        <time>2010-01-01T02:15:05.000Z</time>
      </trkpt>
      <trkpt lat="42.094887" lon="12.897284">
        <ele>770</ele>
        <time>2010-01-01T02:15:15.000Z</time>
      </trkpt>
      <trkpt lat="42.094505" lon="12.896887">
        <ele>776</ele>
        <time>2010-01-01T02:15:34.000Z</time>
      </trkpt>
      <trkpt lat="42.094257" lon="12.897005">
        <ele>767</ele>
        <time>2010-01-01T02:15:45.000Z</time>
      </trkpt>
      <trkpt lat="42.093956" lon="12.896791">
        <ele>770</ele>
        <time>2010-01-01T02:15:58.000Z</time>
      </trkpt>
      <trkpt lat="42.09362" lon="12.896833">
        <ele>761</ele>
        <time>2010-01-01T02:16:12.000Z</time>
      </trkpt>
      <trkpt lat="42.093182" lon="12.896619">
        <ele>761</ele>
        <time>2010-01-01T02:16:30.000Z</time>
      </trkpt>
      <trkpt lat="42.092617" lon="12.897026">
        <ele>752</ele>
        <time>2010-01-01T02:16:56.000Z</time>
      </trkpt>
      <trkpt lat="42.091927" lon="12.896662">
        <ele>752</ele>
        <time>2010-01-01T02:17:26.000Z</time>
      </trkpt>
      <trkpt lat="42.091175" lon="12.896801">
        <ele>735</ele>
        <time>2010-01-01T02:17:56.000Z</time>
      </trkpt>
      <trkpt lat="42.090961" lon="12.896458">
        <ele>734</ele>
        <time>2010-01-01T02:18:10.000Z</time>
      </trkpt>
      <trkpt lat="42.091042" lon="12.895621">
        <ele>738</ele>
        <time>2010-01-01T02:18:35.000Z</time>
      </trkpt>
      <trkpt lat="42.08984" lon="12.894923">
        <ele>715</ele>
        <time>2010-01-01T02:19:27.000Z</time>
      </trkpt>
      <trkpt lat="42.089146" lon="12.894935">
        <ele>706</ele>
        <time>2010-01-01T02:19:55.000Z</time>
      </trkpt>
      <trkpt lat="42.088612" lon="12.895407">
        <ele>702</ele>
        <time>2010-01-01T02:20:20.000Z</time>
      </trkpt>
      <trkpt lat="42.087975" lon="12.895599">
        <ele>691</ele>
        <time>2010-01-01T02:20:46.000Z</time>
      </trkpt>
      <trkpt lat="42.087418" lon="12.895599">
        <ele>691</ele>
        <time>2010-01-01T02:21:09.000Z</time>
      </trkpt>
      <trkpt lat="42.086742" lon="12.895836">
        <ele>679</ele>
        <time>2010-01-01T02:21:37.000Z</time>
      </trkpt>
      <trkpt lat="42.086208" lon="12.895235">
        <ele>663</ele>
        <time>2010-01-01T02:22:04.000Z</time>
      </trkpt>
      <trkpt lat="42.085716" lon="12.895267">
        <ele>652</ele>
        <time>2010-01-01T02:22:24.000Z</time>
      </trkpt>
      <trkpt lat="42.085365" lon="12.894945">
        <ele>646</ele>
        <time>2010-01-01T02:22:41.000Z</time>
      </trkpt>
      <trkpt lat="42.085278" lon="12.894591">
        <ele>644</ele>
        <time>2010-01-01T02:22:52.000Z</time>
      </trkpt>
      <trkpt lat="42.085281" lon="12.89456">
        <ele>643</ele>
        <time>2010-01-01T02:22:53.000Z</time>
      </trkpt>
      <trkpt lat="42.085251" lon="12.89456">
        <ele>644</ele>
        <time>2010-01-01T02:22:54.000Z</time>
      </trkpt>
      <trkpt lat="42.085331" lon="12.89449">
        <ele>643</ele>
        <time>2010-01-01T02:22:58.000Z</time>
      </trkpt>
      <trkpt lat="42.086151" lon="12.89393">
        <ele>638</ele>
        <time>2010-01-01T02:23:35.000Z</time>
      </trkpt>
      <trkpt lat="42.08643" lon="12.89352">
        <ele>631</ele>
        <time>2010-01-01T02:23:52.000Z</time>
      </trkpt>
      <trkpt lat="42.08654" lon="12.8934">
        <ele>629</ele>
        <time>2010-01-01T02:23:57.000Z</time>
      </trkpt>
      <trkpt lat="42.087181" lon="12.89322">
        <ele>630</ele>
        <time>2010-01-01T02:24:23.000Z</time>
      </trkpt>
      <trkpt lat="42.087391" lon="12.89312">
        <ele>628</ele>
        <time>2010-01-01T02:24:32.000Z</time>
      </trkpt>
      <trkpt lat="42.08749" lon="12.89303">
        <ele>627</ele>
        <time>2010-01-01T02:24:37.000Z</time>
      </trkpt>
      <trkpt lat="42.087631" lon="12.89258">
        <ele>624</ele>
        <time>2010-01-01T02:24:52.000Z</time>
      </trkpt>
      <trkpt lat="42.087742" lon="12.89239">
        <ele>625</ele>
        <time>2010-01-01T02:24:59.000Z</time>
      </trkpt>
      <trkpt lat="42.087898" lon="12.89216">
        <ele>627</ele>
        <time>2010-01-01T02:25:08.000Z</time>
      </trkpt>
      <trkpt lat="42.088039" lon="12.89152">
        <ele>633</ele>
        <time>2010-01-01T02:25:28.000Z</time>
      </trkpt>
      <trkpt lat="42.088058" lon="12.89133">
        <ele>634</ele>
        <time>2010-01-01T02:25:34.000Z</time>
      </trkpt>
      <trkpt lat="42.088081" lon="12.89089">
        <ele>634</ele>
        <time>2010-01-01T02:25:47.000Z</time>
      </trkpt>
      <trkpt lat="42.08812" lon="12.89074">
        <ele>634</ele>
        <time>2010-01-01T02:25:52.000Z</time>
      </trkpt>
      <trkpt lat="42.088219" lon="12.89051">
        <ele>634</ele>
        <time>2010-01-01T02:26:00.000Z</time>
      </trkpt>
      <trkpt lat="42.088531" lon="12.89003">
        <ele>635</ele>
        <time>2010-01-01T02:26:18.000Z</time>
      </trkpt>
      <trkpt lat="42.088661" lon="12.88984">
        <ele>635</ele>
        <time>2010-01-01T02:26:26.000Z</time>
      </trkpt>
      <trkpt lat="42.08894" lon="12.88956">
        <ele>633</ele>
        <time>2010-01-01T02:26:40.000Z</time>
      </trkpt>
      <trkpt lat="42.088989" lon="12.88947">
        <ele>632</ele>
        <time>2010-01-01T02:26:43.000Z</time>
      </trkpt>
      <trkpt lat="42.089111" lon="12.88917">
        <ele>632</ele>
        <time>2010-01-01T02:26:54.000Z</time>
      </trkpt>
      <trkpt lat="42.08918" lon="12.88907">
        <ele>632</ele>
        <time>2010-01-01T02:26:58.000Z</time>
      </trkpt>
      <trkpt lat="42.089359" lon="12.88893">
        <ele>635</ele>
        <time>2010-01-01T02:27:06.000Z</time>
      </trkpt>
      <trkpt lat="42.089432" lon="12.88891">
        <ele>636</ele>
        <time>2010-01-01T02:27:09.000Z</time>
      </trkpt>
      <trkpt lat="42.08952" lon="12.88881">
        <ele>637</ele>
        <time>2010-01-01T02:27:13.000Z</time>
      </trkpt>
      <trkpt lat="42.0896" lon="12.88866">
        <ele>637</ele>
        <time>2010-01-01T02:27:19.000Z</time>
      </trkpt>
      <trkpt lat="42.089668" lon="12.88848">
        <ele>636</ele>
        <time>2010-01-01T02:27:25.000Z</time>
      </trkpt>
      <trkpt lat="42.089729" lon="12.88838">
        <ele>635</ele>
        <time>2010-01-01T02:27:29.000Z</time>
      </trkpt>
      <trkpt lat="42.08979" lon="12.88832">
        <ele>635</ele>
        <time>2010-01-01T02:27:32.000Z</time>
      </trkpt>
      <trkpt lat="42.08992" lon="12.8883">
        <ele>635</ele>
        <time>2010-01-01T02:27:37.000Z</time>
      </trkpt>
      <trkpt lat="42.090149" lon="12.88834">
        <ele>638</ele>
        <time>2010-01-01T02:27:46.000Z</time>
      </trkpt>
      <trkpt lat="42.090309" lon="12.8884">
        <ele>642</ele>
        <time>2010-01-01T02:27:53.000Z</time>
      </trkpt>
      <trkpt lat="42.090408" lon="12.8884">
        <ele>646</ele>
        <time>2010-01-01T02:27:57.000Z</time>
      </trkpt>
      <trkpt lat="42.090488" lon="12.88839">
        <ele>648</ele>
        <time>2010-01-01T02:28:00.000Z</time>
      </trkpt>
      <trkpt lat="42.090561" lon="12.88834">
        <ele>649</ele>
        <time>2010-01-01T02:28:03.000Z</time>
      </trkpt>
      <trkpt lat="42.09058" lon="12.88829">
        <ele>648</ele>
        <time>2010-01-01T02:28:05.000Z</time>
      </trkpt>
      <trkpt lat="42.090599" lon="12.88823">
        <ele>647</ele>
        <time>2010-01-01T02:28:07.000Z</time>
      </trkpt>
      <trkpt lat="42.090591" lon="12.88812">
        <ele>643</ele>
        <time>2010-01-01T02:28:10.000Z</time>
      </trkpt>
      <trkpt lat="42.090511" lon="12.88778">
        <ele>632</ele>
        <time>2010-01-01T02:28:21.000Z</time>
      </trkpt>
      <trkpt lat="42.090519" lon="12.88754">
        <ele>630</ele>
        <time>2010-01-01T02:28:28.000Z</time>
      </trkpt>
      <trkpt lat="42.09082" lon="12.88685">
        <ele>635</ele>
        <time>2010-01-01T02:28:52.000Z</time>
      </trkpt>
      <trkpt lat="42.091011" lon="12.88631">
        <ele>633</ele>
        <time>2010-01-01T02:29:10.000Z</time>
      </trkpt>
      <trkpt lat="42.091148" lon="12.88599">
        <ele>633</ele>
        <time>2010-01-01T02:29:21.000Z</time>
      </trkpt>
      <trkpt lat="42.091202" lon="12.88575">
        <ele>633</ele>
        <time>2010-01-01T02:29:28.000Z</time>
      </trkpt>
      <trkpt lat="42.091179" lon="12.88542">
        <ele>631</ele>
        <time>2010-01-01T02:29:38.000Z</time>
      </trkpt>
      <trkpt lat="42.091202" lon="12.88528">
        <ele>632</ele>
        <time>2010-01-01T02:29:42.000Z</time>
      </trkpt>
      <trkpt lat="42.091282" lon="12.88508">
        <ele>635</ele>
        <time>2010-01-01T02:29:49.000Z</time>
      </trkpt>
      <trkpt lat="42.0914" lon="12.8849">
        <ele>638</ele>
        <time>2010-01-01T02:29:56.000Z</time>
      </trkpt>
      <trkpt lat="42.0914" lon="12.88477">
        <ele>638</ele>
        <time>2010-01-01T02:30:00.000Z</time>
      </trkpt>
      <trkpt lat="42.09137" lon="12.88472">
        <ele>639</ele>
        <time>2010-01-01T02:30:02.000Z</time>
      </trkpt>
      <trkpt lat="42.091309" lon="12.88467">
        <ele>640</ele>
        <time>2010-01-01T02:30:05.000Z</time>
      </trkpt>
      <trkpt lat="42.091228" lon="12.88466">
        <ele>641</ele>
        <time>2010-01-01T02:30:08.000Z</time>
      </trkpt>
      <trkpt lat="42.091061" lon="12.88466">
        <ele>644</ele>
        <time>2010-01-01T02:30:15.000Z</time>
      </trkpt>
      <trkpt lat="42.090939" lon="12.88472">
        <ele>645</ele>
        <time>2010-01-01T02:30:20.000Z</time>
      </trkpt>
      <trkpt lat="42.090698" lon="12.88496">
        <ele>645</ele>
        <time>2010-01-01T02:30:32.000Z</time>
      </trkpt>
      <trkpt lat="42.090599" lon="12.88502">
        <ele>647</ele>
        <time>2010-01-01T02:30:36.000Z</time>
      </trkpt>
      <trkpt lat="42.090221" lon="12.88541">
        <ele>644</ele>
        <time>2010-01-01T02:30:55.000Z</time>
      </trkpt>
      <trkpt lat="42.089771" lon="12.88582">
        <ele>636</ele>
        <time>2010-01-01T02:31:17.000Z</time>
      </trkpt>
      <trkpt lat="42.089352" lon="12.88599">
        <ele>646</ele>
        <time>2010-01-01T02:31:34.000Z</time>
      </trkpt>
      <trkpt lat="42.089211" lon="12.88596">
        <ele>651</ele>
        <time>2010-01-01T02:31:40.000Z</time>
      </trkpt>
      <trkpt lat="42.089111" lon="12.88603">
        <ele>649</ele>
        <time>2010-01-01T02:31:45.000Z</time>
      </trkpt>
      <trkpt lat="42.088711" lon="12.88611">
        <ele>648</ele>
        <time>2010-01-01T02:32:01.000Z</time>
      </trkpt>
      <trkpt lat="42.088509" lon="12.88612">
        <ele>646</ele>
        <time>2010-01-01T02:32:09.000Z</time>
      </trkpt>
      <trkpt lat="42.08844" lon="12.88612">
        <ele>645</ele>
        <time>2010-01-01T02:32:12.000Z</time>
      </trkpt>
      <trkpt lat="42.08791" lon="12.88596">
        <ele>654</ele>
        <time>2010-01-01T02:32:33.000Z</time>
      </trkpt>
      <trkpt lat="42.0877" lon="12.88588">
        <ele>660</ele>
        <time>2010-01-01T02:32:42.000Z</time>
      </trkpt>
      <trkpt lat="42.087631" lon="12.88587">
        <ele>662</ele>
        <time>2010-01-01T02:32:45.000Z</time>
      </trkpt>
      <trkpt lat="42.086929" lon="12.8861">
        <ele>653</ele>
        <time>2010-01-01T02:33:14.000Z</time>
      </trkpt>
      <trkpt lat="42.086639" lon="12.88626">
        <ele>657</ele>
        <time>2010-01-01T02:33:26.000Z</time>
      </trkpt>
      <trkpt lat="42.086269" lon="12.88655">
        <ele>647</ele>
        <time>2010-01-01T02:33:43.000Z</time>
      </trkpt>
      <trkpt lat="42.086109" lon="12.88665">
        <ele>639</ele>
        <time>2010-01-01T02:33:51.000Z</time>
      </trkpt>
      <trkpt lat="42.086021" lon="12.88668">
        <ele>636</ele>
        <time>2010-01-01T02:33:54.000Z</time>
      </trkpt>
      <trkpt lat="42.085941" lon="12.88668">
        <ele>635</ele>
        <time>2010-01-01T02:33:57.000Z</time>
      </trkpt>
      <trkpt lat="42.08588" lon="12.88664">
        <ele>634</ele>
        <time>2010-01-01T02:34:00.000Z</time>
      </trkpt>
      <trkpt lat="42.085831" lon="12.88658">
        <ele>635</ele>
        <time>2010-01-01T02:34:03.000Z</time>
      </trkpt>
      <trkpt lat="42.085758" lon="12.88639">
        <ele>635</ele>
        <time>2010-01-01T02:34:09.000Z</time>
      </trkpt>
      <trkpt lat="42.08572" lon="12.88617">
        <ele>636</ele>
        <time>2010-01-01T02:34:16.000Z</time>
      </trkpt>
      <trkpt lat="42.08577" lon="12.88577">
        <ele>643</ele>
        <time>2010-01-01T02:34:28.000Z</time>
      </trkpt>
      <trkpt lat="42.085911" lon="12.88506">
        <ele>648</ele>
        <time>2010-01-01T02:34:50.000Z</time>
      </trkpt>
      <trkpt lat="42.085899" lon="12.88484">
        <ele>647</ele>
        <time>2010-01-01T02:34:56.000Z</time>
      </trkpt>
      <trkpt lat="42.08556" lon="12.8834">
        <ele>656</ele>
        <time>2010-01-01T02:35:41.000Z</time>
      </trkpt>
      <trkpt lat="42.085529" lon="12.88324">
        <ele>654</ele>
        <time>2010-01-01T02:35:46.000Z</time>
      </trkpt>
      <trkpt lat="42.085522" lon="12.883">
        <ele>655</ele>
        <time>2010-01-01T02:35:53.000Z</time>
      </trkpt>
      <trkpt lat="42.085468" lon="12.88272">
        <ele>660</ele>
        <time>2010-01-01T02:36:02.000Z</time>
      </trkpt>
      <trkpt lat="42.08543" lon="12.88265">
        <ele>659</ele>
        <time>2010-01-01T02:36:04.000Z</time>
      </trkpt>
      <trkpt lat="42.085369" lon="12.88262">
        <ele>656</ele>
        <time>2010-01-01T02:36:07.000Z</time>
      </trkpt>
      <trkpt lat="42.08527" lon="12.88263">
        <ele>651</ele>
        <time>2010-01-01T02:36:11.000Z</time>
      </trkpt>
      <trkpt lat="42.084991" lon="12.88285">
        <ele>642</ele>
        <time>2010-01-01T02:36:24.000Z</time>
      </trkpt>
      <trkpt lat="42.084942" lon="12.88294">
        <ele>643</ele>
        <time>2010-01-01T02:36:27.000Z</time>
      </trkpt>
      <trkpt lat="42.084702" lon="12.88342">
        <ele>639</ele>
        <time>2010-01-01T02:36:44.000Z</time>
      </trkpt>
      <trkpt lat="42.084641" lon="12.88379">
        <ele>631</ele>
        <time>2010-01-01T02:36:56.000Z</time>
      </trkpt>
      <trkpt lat="42.08445" lon="12.88408">
        <ele>637</ele>
        <time>2010-01-01T02:37:07.000Z</time>
      </trkpt>
      <trkpt lat="42.084381" lon="12.88429">
        <ele>635</ele>
        <time>2010-01-01T02:37:14.000Z</time>
      </trkpt>
      <trkpt lat="42.084259" lon="12.88447">
        <ele>637</ele>
        <time>2010-01-01T02:37:21.000Z</time>
      </trkpt>
      <trkpt lat="42.083981" lon="12.8848">
        <ele>641</ele>
        <time>2010-01-01T02:37:36.000Z</time>
      </trkpt>
      <trkpt lat="42.08379" lon="12.88506">
        <ele>640</ele>
        <time>2010-01-01T02:37:47.000Z</time>
      </trkpt>
      <trkpt lat="42.083591" lon="12.88514">
        <ele>648</ele>
        <time>2010-01-01T02:37:55.000Z</time>
      </trkpt>
      <trkpt lat="42.083321" lon="12.88531">
        <ele>655</ele>
        <time>2010-01-01T02:38:07.000Z</time>
      </trkpt>
      <trkpt lat="42.083179" lon="12.88551">
        <ele>658</ele>
        <time>2010-01-01T02:38:15.000Z</time>
      </trkpt>
      <trkpt lat="42.083118" lon="12.88576">
        <ele>653</ele>
        <time>2010-01-01T02:38:23.000Z</time>
      </trkpt>
      <trkpt lat="42.083031" lon="12.88585">
        <ele>655</ele>
        <time>2010-01-01T02:38:28.000Z</time>
      </trkpt>
      <trkpt lat="42.082878" lon="12.88609">
        <ele>658</ele>
        <time>2010-01-01T02:38:37.000Z</time>
      </trkpt>
      <trkpt lat="42.082809" lon="12.88628">
        <ele>657</ele>
        <time>2010-01-01T02:38:43.000Z</time>
      </trkpt>
      <trkpt lat="42.082561" lon="12.88665">
        <ele>658</ele>
        <time>2010-01-01T02:38:58.000Z</time>
      </trkpt>
      <trkpt lat="42.08234" lon="12.88692">
        <ele>652</ele>
        <time>2010-01-01T02:39:10.000Z</time>
      </trkpt>
      <trkpt lat="42.08218" lon="12.88698">
        <ele>652</ele>
        <time>2010-01-01T02:39:17.000Z</time>
      </trkpt>
      <trkpt lat="42.08202" lon="12.88698">
        <ele>653</ele>
        <time>2010-01-01T02:39:23.000Z</time>
      </trkpt>
      <trkpt lat="42.081879" lon="12.88686">
        <ele>659</ele>
        <time>2010-01-01T02:39:30.000Z</time>
      </trkpt>
      <trkpt lat="42.081718" lon="12.88676">
        <ele>663</ele>
        <time>2010-01-01T02:39:37.000Z</time>
      </trkpt>
      <trkpt lat="42.081539" lon="12.88659">
        <ele>672</ele>
        <time>2010-01-01T02:39:46.000Z</time>
      </trkpt>
      <trkpt lat="42.08144" lon="12.88655">
        <ele>676</ele>
        <time>2010-01-01T02:39:50.000Z</time>
      </trkpt>
      <trkpt lat="42.081341" lon="12.88664">
        <ele>676</ele>
        <time>2010-01-01T02:39:55.000Z</time>
      </trkpt>
      <trkpt lat="42.081268" lon="12.88677">
        <ele>674</ele>
        <time>2010-01-01T02:39:59.000Z</time>
      </trkpt>
      <trkpt lat="42.081211" lon="12.88693">
        <ele>669</ele>
        <time>2010-01-01T02:40:05.000Z</time>
      </trkpt>
      <trkpt lat="42.080971" lon="12.8872">
        <ele>660</ele>
        <time>2010-01-01T02:40:17.000Z</time>
      </trkpt>
      <trkpt lat="42.08083" lon="12.88732">
        <ele>660</ele>
        <time>2010-01-01T02:40:24.000Z</time>
      </trkpt>
      <trkpt lat="42.080761" lon="12.88736">
        <ele>661</ele>
        <time>2010-01-01T02:40:27.000Z</time>
      </trkpt>
      <trkpt lat="42.080471" lon="12.88734">
        <ele>675</ele>
        <time>2010-01-01T02:40:39.000Z</time>
      </trkpt>
      <trkpt lat="42.08025" lon="12.88737">
        <ele>678</ele>
        <time>2010-01-01T02:40:47.000Z</time>
      </trkpt>
      <trkpt lat="42.080109" lon="12.88742">
        <ele>676</ele>
        <time>2010-01-01T02:40:53.000Z</time>
      </trkpt>
      <trkpt lat="42.07996" lon="12.88754">
        <ele>670</ele>
        <time>2010-01-01T02:41:00.000Z</time>
      </trkpt>
      <trkpt lat="42.079739" lon="12.88767">
        <ele>667</ele>
        <time>2010-01-01T02:41:10.000Z</time>
      </trkpt>
      <trkpt lat="42.07954" lon="12.88765">
        <ele>672</ele>
        <time>2010-01-01T02:41:18.000Z</time>
      </trkpt>
      <trkpt lat="42.079201" lon="12.88774">
        <ele>674</ele>
        <time>2010-01-01T02:41:32.000Z</time>
      </trkpt>
      <trkpt lat="42.078831" lon="12.88775">
        <ele>671</ele>
        <time>2010-01-01T02:41:47.000Z</time>
      </trkpt>
      <trkpt lat="42.07877" lon="12.88773">
        <ele>670</ele>
        <time>2010-01-01T02:41:49.000Z</time>
      </trkpt>
      <trkpt lat="42.078701" lon="12.88768">
        <ele>671</ele>
        <time>2010-01-01T02:41:52.000Z</time>
      </trkpt>
      <trkpt lat="42.078651" lon="12.8876">
        <ele>673</ele>
        <time>2010-01-01T02:41:55.000Z</time>
      </trkpt>
      <trkpt lat="42.078259" lon="12.88659">
        <ele>700</ele>
        <time>2010-01-01T02:42:29.000Z</time>
      </trkpt>
      <trkpt lat="42.078209" lon="12.88652">
        <ele>703</ele>
        <time>2010-01-01T02:42:32.000Z</time>
      </trkpt>
      <trkpt lat="42.078098" lon="12.88651">
        <ele>701</ele>
        <time>2010-01-01T02:42:36.000Z</time>
      </trkpt>
      <trkpt lat="42.077839" lon="12.88673">
        <ele>698</ele>
        <time>2010-01-01T02:42:49.000Z</time>
      </trkpt>
      <trkpt lat="42.077721" lon="12.88691">
        <ele>696</ele>
        <time>2010-01-01T02:42:56.000Z</time>
      </trkpt>
      <trkpt lat="42.077511" lon="12.88712">
        <ele>697</ele>
        <time>2010-01-01T02:43:06.000Z</time>
      </trkpt>
      <trkpt lat="42.077209" lon="12.88725">
        <ele>702</ele>
        <time>2010-01-01T02:43:19.000Z</time>
      </trkpt>
      <trkpt lat="42.076931" lon="12.8873">
        <ele>707</ele>
        <time>2010-01-01T02:43:30.000Z</time>
      </trkpt>
      <trkpt lat="42.076752" lon="12.88745">
        <ele>706</ele>
        <time>2010-01-01T02:43:39.000Z</time>
      </trkpt>
      <trkpt lat="42.076618" lon="12.88764">
        <ele>703</ele>
        <time>2010-01-01T02:43:46.000Z</time>
      </trkpt>
      <trkpt lat="42.076431" lon="12.88786">
        <ele>701</ele>
        <time>2010-01-01T02:43:56.000Z</time>
      </trkpt>
      <trkpt lat="42.076351" lon="12.8879">
        <ele>702</ele>
        <time>2010-01-01T02:44:00.000Z</time>
      </trkpt>
      <trkpt lat="42.076321" lon="12.88788">
        <ele>703</ele>
        <time>2010-01-01T02:44:01.000Z</time>
      </trkpt>
      <trkpt lat="42.076309" lon="12.88783">
        <ele>705</ele>
        <time>2010-01-01T02:44:03.000Z</time>
      </trkpt>
      <trkpt lat="42.076328" lon="12.88779">
        <ele>706</ele>
        <time>2010-01-01T02:44:04.000Z</time>
      </trkpt>
      <trkpt lat="42.076542" lon="12.88753">
        <ele>711</ele>
        <time>2010-01-01T02:44:16.000Z</time>
      </trkpt>
      <trkpt lat="42.076752" lon="12.88715">
        <ele>723</ele>
        <time>2010-01-01T02:44:30.000Z</time>
      </trkpt>
      <trkpt lat="42.076832" lon="12.88708">
        <ele>725</ele>
        <time>2010-01-01T02:44:34.000Z</time>
      </trkpt>
      <trkpt lat="42.077209" lon="12.88693">
        <ele>721</ele>
        <time>2010-01-01T02:44:49.000Z</time>
      </trkpt>
      <trkpt lat="42.077431" lon="12.88676">
        <ele>721</ele>
        <time>2010-01-01T02:45:00.000Z</time>
      </trkpt>
      <trkpt lat="42.077549" lon="12.88658">
        <ele>725</ele>
        <time>2010-01-01T02:45:07.000Z</time>
      </trkpt>
      <trkpt lat="42.077648" lon="12.8864">
        <ele>728</ele>
        <time>2010-01-01T02:45:13.000Z</time>
      </trkpt>
      <trkpt lat="42.077728" lon="12.88614">
        <ele>732</ele>
        <time>2010-01-01T02:45:22.000Z</time>
      </trkpt>
      <trkpt lat="42.077862" lon="12.88558">
        <ele>742</ele>
        <time>2010-01-01T02:45:39.000Z</time>
      </trkpt>
      <trkpt lat="42.07798" lon="12.88544">
        <ele>743</ele>
        <time>2010-01-01T02:45:46.000Z</time>
      </trkpt>
      <trkpt lat="42.078171" lon="12.8854">
        <ele>743</ele>
        <time>2010-01-01T02:45:53.000Z</time>
      </trkpt>
      <trkpt lat="42.078251" lon="12.88543">
        <ele>743</ele>
        <time>2010-01-01T02:45:57.000Z</time>
      </trkpt>
      <trkpt lat="42.078419" lon="12.88555">
        <ele>744</ele>
        <time>2010-01-01T02:46:04.000Z</time>
      </trkpt>
      <trkpt lat="42.079029" lon="12.88629">
        <ele>738</ele>
        <time>2010-01-01T02:46:37.000Z</time>
      </trkpt>
      <trkpt lat="42.079208" lon="12.88642">
        <ele>737</ele>
        <time>2010-01-01T02:46:45.000Z</time>
      </trkpt>
      <trkpt lat="42.07951" lon="12.88637">
        <ele>746</ele>
        <time>2010-01-01T02:46:57.000Z</time>
      </trkpt>
      <trkpt lat="42.079842" lon="12.88635">
        <ele>748</ele>
        <time>2010-01-01T02:47:11.000Z</time>
      </trkpt>
      <trkpt lat="42.08012" lon="12.88638">
        <ele>744</ele>
        <time>2010-01-01T02:47:22.000Z</time>
      </trkpt>
      <trkpt lat="42.08025" lon="12.88636">
        <ele>743</ele>
        <time>2010-01-01T02:47:27.000Z</time>
      </trkpt>
      <trkpt lat="42.08033" lon="12.88629">
        <ele>743</ele>
        <time>2010-01-01T02:47:31.000Z</time>
      </trkpt>
      <trkpt lat="42.080448" lon="12.88615">
        <ele>744</ele>
        <time>2010-01-01T02:47:37.000Z</time>
      </trkpt>
      <trkpt lat="42.080521" lon="12.88602">
        <ele>745</ele>
        <time>2010-01-01T02:47:42.000Z</time>
      </trkpt>
      <trkpt lat="42.080528" lon="12.88586">
        <ele>750</ele>
        <time>2010-01-01T02:47:47.000Z</time>
      </trkpt>
      <trkpt lat="42.080521" lon="12.88576">
        <ele>752</ele>
        <time>2010-01-01T02:47:50.000Z</time>
      </trkpt>
      <trkpt lat="42.08049" lon="12.88567">
        <ele>755</ele>
        <time>2010-01-01T02:47:53.000Z</time>
      </trkpt>
      <trkpt lat="42.08049" lon="12.88554">
        <ele>758</ele>
        <time>2010-01-01T02:47:57.000Z</time>
      </trkpt>
      <trkpt lat="42.080551" lon="12.88546">
        <ele>758</ele>
        <time>2010-01-01T02:48:00.000Z</time>
      </trkpt>
      <trkpt lat="42.080669" lon="12.88535">
        <ele>759</ele>
        <time>2010-01-01T02:48:06.000Z</time>
      </trkpt>
      <trkpt lat="42.080791" lon="12.88517">
        <ele>765</ele>
        <time>2010-01-01T02:48:13.000Z</time>
      </trkpt>
      <trkpt lat="42.081108" lon="12.88486">
        <ele>772</ele>
        <time>2010-01-01T02:48:29.000Z</time>
      </trkpt>
      <trkpt lat="42.081211" lon="12.88483">
        <ele>772</ele>
        <time>2010-01-01T02:48:33.000Z</time>
      </trkpt>
      <trkpt lat="42.081379" lon="12.88484">
        <ele>769</ele>
        <time>2010-01-01T02:48:40.000Z</time>
      </trkpt>
      <trkpt lat="42.081692" lon="12.88502">
        <ele>755</ele>
        <time>2010-01-01T02:48:53.000Z</time>
      </trkpt>
      <trkpt lat="42.081772" lon="12.88504">
        <ele>754</ele>
        <time>2010-01-01T02:48:56.000Z</time>
      </trkpt>
      <trkpt lat="42.081821" lon="12.885">
        <ele>755</ele>
        <time>2010-01-01T02:48:59.000Z</time>
      </trkpt>
      <trkpt lat="42.081821" lon="12.88493">
        <ele>758</ele>
        <time>2010-01-01T02:49:01.000Z</time>
      </trkpt>
      <trkpt lat="42.081772" lon="12.88486">
        <ele>762</ele>
        <time>2010-01-01T02:49:04.000Z</time>
      </trkpt>
      <trkpt lat="42.08128" lon="12.88468">
        <ele>779</ele>
        <time>2010-01-01T02:49:24.000Z</time>
      </trkpt>
      <trkpt lat="42.081059" lon="12.88462">
        <ele>787</ele>
        <time>2010-01-01T02:49:33.000Z</time>
      </trkpt>
      <trkpt lat="42.08091" lon="12.8847">
        <ele>788</ele>
        <time>2010-01-01T02:49:39.000Z</time>
      </trkpt>
      <trkpt lat="42.080688" lon="12.88495">
        <ele>780</ele>
        <time>2010-01-01T02:49:51.000Z</time>
      </trkpt>
      <trkpt lat="42.080559" lon="12.88506">
        <ele>778</ele>
        <time>2010-01-01T02:49:57.000Z</time>
      </trkpt>
      <trkpt lat="42.080448" lon="12.88506">
        <ele>781</ele>
        <time>2010-01-01T02:50:02.000Z</time>
      </trkpt>
      <trkpt lat="42.080292" lon="12.88509">
        <ele>784</ele>
        <time>2010-01-01T02:50:08.000Z</time>
      </trkpt>
      <trkpt lat="42.080189" lon="12.88516">
        <ele>782</ele>
        <time>2010-01-01T02:50:13.000Z</time>
      </trkpt>
      <trkpt lat="42.080059" lon="12.88539">
        <ele>777</ele>
        <time>2010-01-01T02:50:21.000Z</time>
      </trkpt>
      <trkpt lat="42.080021" lon="12.88557">
        <ele>773</ele>
        <time>2010-01-01T02:50:27.000Z</time>
      </trkpt>
      <trkpt lat="42.079971" lon="12.88564">
        <ele>772</ele>
        <time>2010-01-01T02:50:30.000Z</time>
      </trkpt>
      <trkpt lat="42.07983" lon="12.88565">
        <ele>772</ele>
        <time>2010-01-01T02:50:35.000Z</time>
      </trkpt>
      <trkpt lat="42.079659" lon="12.88563">
        <ele>773</ele>
        <time>2010-01-01T02:50:42.000Z</time>
      </trkpt>
      <trkpt lat="42.079449" lon="12.88553">
        <ele>776</ele>
        <time>2010-01-01T02:50:51.000Z</time>
      </trkpt>
      <trkpt lat="42.07935" lon="12.88544">
        <ele>777</ele>
        <time>2010-01-01T02:50:56.000Z</time>
      </trkpt>
      <trkpt lat="42.079269" lon="12.88531">
        <ele>780</ele>
        <time>2010-01-01T02:51:01.000Z</time>
      </trkpt>
      <trkpt lat="42.079109" lon="12.88499">
        <ele>786</ele>
        <time>2010-01-01T02:51:12.000Z</time>
      </trkpt>
      <trkpt lat="42.079041" lon="12.88474">
        <ele>790</ele>
        <time>2010-01-01T02:51:20.000Z</time>
      </trkpt>
      <trkpt lat="42.079021" lon="12.88441">
        <ele>798</ele>
        <time>2010-01-01T02:51:30.000Z</time>
      </trkpt>
      <trkpt lat="42.078972" lon="12.88427">
        <ele>801</ele>
        <time>2010-01-01T02:51:35.000Z</time>
      </trkpt>
      <trkpt lat="42.078899" lon="12.88417">
        <ele>802</ele>
        <time>2010-01-01T02:51:39.000Z</time>
      </trkpt>
      <trkpt lat="42.078751" lon="12.88403">
        <ele>802</ele>
        <time>2010-01-01T02:51:46.000Z</time>
      </trkpt>
      <trkpt lat="42.078381" lon="12.88372">
        <ele>805</ele>
        <time>2010-01-01T02:52:03.000Z</time>
      </trkpt>
      <trkpt lat="42.078049" lon="12.88354">
        <ele>809</ele>
        <time>2010-01-01T02:52:18.000Z</time>
      </trkpt>
      <trkpt lat="42.07748" lon="12.88349">
        <ele>809</ele>
        <time>2010-01-01T02:52:41.000Z</time>
      </trkpt>
      <trkpt lat="42.07732" lon="12.88349">
        <ele>808</ele>
        <time>2010-01-01T02:52:47.000Z</time>
      </trkpt>
      <trkpt lat="42.076988" lon="12.88362">
        <ele>808</ele>
        <time>2010-01-01T02:53:01.000Z</time>
      </trkpt>
      <trkpt lat="42.076698" lon="12.88368">
        <ele>815</ele>
        <time>2010-01-01T02:53:12.000Z</time>
      </trkpt>
      <trkpt lat="42.076618" lon="12.88372">
        <ele>816</ele>
        <time>2010-01-01T02:53:16.000Z</time>
      </trkpt>
      <trkpt lat="42.0765" lon="12.88387">
        <ele>818</ele>
        <time>2010-01-01T02:53:22.000Z</time>
      </trkpt>
      <trkpt lat="42.076462" lon="12.88395">
        <ele>818</ele>
        <time>2010-01-01T02:53:25.000Z</time>
      </trkpt>
      <trkpt lat="42.07645" lon="12.88414">
        <ele>816</ele>
        <time>2010-01-01T02:53:31.000Z</time>
      </trkpt>
      <trkpt lat="42.076488" lon="12.8843">
        <ele>814</ele>
        <time>2010-01-01T02:53:36.000Z</time>
      </trkpt>
      <trkpt lat="42.076591" lon="12.88449">
        <ele>811</ele>
        <time>2010-01-01T02:53:43.000Z</time>
      </trkpt>
      <trkpt lat="42.076618" lon="12.88466">
        <ele>810</ele>
        <time>2010-01-01T02:53:48.000Z</time>
      </trkpt>
      <trkpt lat="42.076599" lon="12.8847">
        <ele>810</ele>
        <time>2010-01-01T02:53:50.000Z</time>
      </trkpt>
      <trkpt lat="42.076569" lon="12.88472">
        <ele>810</ele>
        <time>2010-01-01T02:53:51.000Z</time>
      </trkpt>
      <trkpt lat="42.07653" lon="12.88471">
        <ele>810</ele>
        <time>2010-01-01T02:53:53.000Z</time>
      </trkpt>
      <trkpt lat="42.076511" lon="12.88466">
        <ele>811</ele>
        <time>2010-01-01T02:53:54.000Z</time>
      </trkpt>
      <trkpt lat="42.076488" lon="12.88449">
        <ele>813</ele>
        <time>2010-01-01T02:53:59.000Z</time>
      </trkpt>
      <trkpt lat="42.076408" lon="12.88433">
        <ele>816</ele>
        <time>2010-01-01T02:54:05.000Z</time>
      </trkpt>
      <trkpt lat="42.07634" lon="12.88414">
        <ele>819</ele>
        <time>2010-01-01T02:54:11.000Z</time>
      </trkpt>
      <trkpt lat="42.076328" lon="12.88406">
        <ele>820</ele>
        <time>2010-01-01T02:54:14.000Z</time>
      </trkpt>
      <trkpt lat="42.07634" lon="12.88382">
        <ele>823</ele>
        <time>2010-01-01T02:54:21.000Z</time>
      </trkpt>
      <trkpt lat="42.076359" lon="12.8837">
        <ele>824</ele>
        <time>2010-01-01T02:54:25.000Z</time>
      </trkpt>
      <trkpt lat="42.076439" lon="12.88352">
        <ele>825</ele>
        <time>2010-01-01T02:54:31.000Z</time>
      </trkpt>
      <trkpt lat="42.076542" lon="12.88339">
        <ele>825</ele>
        <time>2010-01-01T02:54:36.000Z</time>
      </trkpt>
      <trkpt lat="42.07671" lon="12.88323">
        <ele>825</ele>
        <time>2010-01-01T02:54:45.000Z</time>
      </trkpt>
      <trkpt lat="42.077042" lon="12.88313">
        <ele>825</ele>
        <time>2010-01-01T02:54:58.000Z</time>
      </trkpt>
      <trkpt lat="42.077499" lon="12.88302">
        <ele>830</ele>
        <time>2010-01-01T02:55:17.000Z</time>
      </trkpt>
      <trkpt lat="42.07756" lon="12.88298">
        <ele>830</ele>
        <time>2010-01-01T02:55:20.000Z</time>
      </trkpt>
      <trkpt lat="42.077782" lon="12.88273">
        <ele>835</ele>
        <time>2010-01-01T02:55:31.000Z</time>
      </trkpt>
      <trkpt lat="42.078072" lon="12.88259">
        <ele>835</ele>
        <time>2010-01-01T02:55:43.000Z</time>
      </trkpt>
      <trkpt lat="42.078209" lon="12.88258">
        <ele>836</ele>
        <time>2010-01-01T02:55:49.000Z</time>
      </trkpt>
      <trkpt lat="42.07835" lon="12.88262">
        <ele>836</ele>
        <time>2010-01-01T02:55:55.000Z</time>
      </trkpt>
      <trkpt lat="42.07869" lon="12.88301">
        <ele>833</ele>
        <time>2010-01-01T02:56:13.000Z</time>
      </trkpt>
      <trkpt lat="42.078781" lon="12.88308">
        <ele>834</ele>
        <time>2010-01-01T02:56:17.000Z</time>
      </trkpt>
      <trkpt lat="42.079231" lon="12.88334">
        <ele>835</ele>
        <time>2010-01-01T02:56:36.000Z</time>
      </trkpt>
      <trkpt lat="42.079521" lon="12.88354">
        <ele>835</ele>
        <time>2010-01-01T02:56:49.000Z</time>
      </trkpt>
      <trkpt lat="42.079681" lon="12.88358">
        <ele>838</ele>
        <time>2010-01-01T02:56:56.000Z</time>
      </trkpt>
      <trkpt lat="42.079868" lon="12.88348">
        <ele>841</ele>
        <time>2010-01-01T02:57:04.000Z</time>
      </trkpt>
      <trkpt lat="42.080421" lon="12.88327">
        <ele>844</ele>
        <time>2010-01-01T02:57:27.000Z</time>
      </trkpt>
      <trkpt lat="42.080509" lon="12.88316">
        <ele>846</ele>
        <time>2010-01-01T02:57:32.000Z</time>
      </trkpt>
      <trkpt lat="42.081108" lon="12.88292">
        <ele>851</ele>
        <time>2010-01-01T02:57:57.000Z</time>
      </trkpt>
      <trkpt lat="42.081268" lon="12.88283">
        <ele>851</ele>
        <time>2010-01-01T02:58:04.000Z</time>
      </trkpt>
      <trkpt lat="42.081409" lon="12.88271">
        <ele>852</ele>
        <time>2010-01-01T02:58:11.000Z</time>
      </trkpt>
      <trkpt lat="42.081539" lon="12.88253">
        <ele>855</ele>
        <time>2010-01-01T02:58:18.000Z</time>
      </trkpt>
      <trkpt lat="42.08181" lon="12.88194">
        <ele>861</ele>
        <time>2010-01-01T02:58:39.000Z</time>
      </trkpt>
      <trkpt lat="42.082001" lon="12.88165">
        <ele>859</ele>
        <time>2010-01-01T02:58:50.000Z</time>
      </trkpt>
      <trkpt lat="42.08202" lon="12.88152">
        <ele>860</ele>
        <time>2010-01-01T02:58:54.000Z</time>
      </trkpt>
      <trkpt lat="42.082031" lon="12.88137">
        <ele>860</ele>
        <time>2010-01-01T02:58:58.000Z</time>
      </trkpt>
      <trkpt lat="42.081982" lon="12.88119">
        <ele>861</ele>
        <time>2010-01-01T02:59:04.000Z</time>
      </trkpt>
      <trkpt lat="42.081921" lon="12.88112">
        <ele>863</ele>
        <time>2010-01-01T02:59:07.000Z</time>
      </trkpt>
      <trkpt lat="42.08186" lon="12.88109">
        <ele>863</ele>
        <time>2010-01-01T02:59:10.000Z</time>
      </trkpt>
      <trkpt lat="42.081631" lon="12.88103">
        <ele>866</ele>
        <time>2010-01-01T02:59:19.000Z</time>
      </trkpt>
      <trkpt lat="42.081421" lon="12.88103">
        <ele>867</ele>
        <time>2010-01-01T02:59:28.000Z</time>
      </trkpt>
      <trkpt lat="42.081169" lon="12.88109">
        <ele>874</ele>
        <time>2010-01-01T02:59:38.000Z</time>
      </trkpt>
      <trkpt lat="42.080921" lon="12.88109">
        <ele>878</ele>
        <time>2010-01-01T02:59:48.000Z</time>
      </trkpt>
      <trkpt lat="42.080879" lon="12.88116">
        <ele>879</ele>
        <time>2010-01-01T02:59:51.000Z</time>
      </trkpt>
      <trkpt lat="42.081032" lon="12.88145">
        <ele>879</ele>
        <time>2010-01-01T03:00:01.000Z</time>
      </trkpt>
      <trkpt lat="42.081089" lon="12.88164">
        <ele>879</ele>
        <time>2010-01-01T03:00:07.000Z</time>
      </trkpt>
      <trkpt lat="42.08112" lon="12.8818">
        <ele>879</ele>
        <time>2010-01-01T03:00:12.000Z</time>
      </trkpt>
      <trkpt lat="42.0811" lon="12.88192">
        <ele>879</ele>
        <time>2010-01-01T03:00:16.000Z</time>
      </trkpt>
      <trkpt lat="42.081039" lon="12.88197">
        <ele>878</ele>
        <time>2010-01-01T03:00:19.000Z</time>
      </trkpt>
      <trkpt lat="42.080971" lon="12.88198">
        <ele>878</ele>
        <time>2010-01-01T03:00:21.000Z</time>
      </trkpt>
      <trkpt lat="42.080662" lon="12.88188">
        <ele>879</ele>
        <time>2010-01-01T03:00:34.000Z</time>
      </trkpt>
      <trkpt lat="42.080509" lon="12.88184">
        <ele>880</ele>
        <time>2010-01-01T03:00:40.000Z</time>
      </trkpt>
      <trkpt lat="42.080311" lon="12.88189">
        <ele>883</ele>
        <time>2010-01-01T03:00:48.000Z</time>
      </trkpt>
      <trkpt lat="42.080151" lon="12.88198">
        <ele>885</ele>
        <time>2010-01-01T03:00:55.000Z</time>
      </trkpt>
      <trkpt lat="42.079819" lon="12.88208">
        <ele>886</ele>
        <time>2010-01-01T03:01:09.000Z</time>
      </trkpt>
      <trkpt lat="42.0797" lon="12.88208">
        <ele>886</ele>
        <time>2010-01-01T03:01:14.000Z</time>
      </trkpt>
      <trkpt lat="42.079552" lon="12.88203">
        <ele>886</ele>
        <time>2010-01-01T03:01:20.000Z</time>
      </trkpt>
      <trkpt lat="42.07951" lon="12.88199">
        <ele>887</ele>
        <time>2010-01-01T03:01:22.000Z</time>
      </trkpt>
      <trkpt lat="42.079498" lon="12.88199">
        <ele>886</ele>
        <time>2010-01-01T03:01:22.000Z</time>
      </trkpt>
      <trkpt lat="42.079479" lon="12.88196">
        <ele>887</ele>
        <time>2010-01-01T03:01:23.000Z</time>
      </trkpt>
      <trkpt lat="42.079479" lon="12.88191">
        <ele>889</ele>
        <time>2010-01-01T03:01:25.000Z</time>
      </trkpt>
      <trkpt lat="42.07951" lon="12.88188">
        <ele>890</ele>
        <time>2010-01-01T03:01:26.000Z</time>
      </trkpt>
      <trkpt lat="42.079708" lon="12.88189">
        <ele>891</ele>
        <time>2010-01-01T03:01:34.000Z</time>
      </trkpt>
      <trkpt lat="42.079819" lon="12.88183">
        <ele>891</ele>
        <time>2010-01-01T03:01:39.000Z</time>
      </trkpt>
      <trkpt lat="42.079849" lon="12.88174">
        <ele>892</ele>
        <time>2010-01-01T03:01:42.000Z</time>
      </trkpt>
      <trkpt lat="42.07983" lon="12.88163">
        <ele>894</ele>
        <time>2010-01-01T03:01:45.000Z</time>
      </trkpt>
      <trkpt lat="42.079571" lon="12.88117">
        <ele>900</ele>
        <time>2010-01-01T03:02:03.000Z</time>
      </trkpt>
      <trkpt lat="42.07943" lon="12.88085">
        <ele>904</ele>
        <time>2010-01-01T03:02:14.000Z</time>
      </trkpt>
      <trkpt lat="42.079369" lon="12.88056">
        <ele>910</ele>
        <time>2010-01-01T03:02:23.000Z</time>
      </trkpt>
      <trkpt lat="42.07938" lon="12.88048">
        <ele>911</ele>
        <time>2010-01-01T03:02:25.000Z</time>
      </trkpt>
      <trkpt lat="42.079441" lon="12.88032">
        <ele>913</ele>
        <time>2010-01-01T03:02:30.000Z</time>
      </trkpt>
      <trkpt lat="42.079552" lon="12.88014">
        <ele>914</ele>
        <time>2010-01-01T03:02:37.000Z</time>
      </trkpt>
      <trkpt lat="42.07975" lon="12.8799">
        <ele>914</ele>
        <time>2010-01-01T03:02:48.000Z</time>
      </trkpt>
      <trkpt lat="42.079868" lon="12.87958">
        <ele>917</ele>
        <time>2010-01-01T03:02:59.000Z</time>
      </trkpt>
      <trkpt lat="42.079941" lon="12.8795">
        <ele>918</ele>
        <time>2010-01-01T03:03:02.000Z</time>
      </trkpt>
      <trkpt lat="42.080101" lon="12.87948">
        <ele>914</ele>
        <time>2010-01-01T03:03:09.000Z</time>
      </trkpt>
      <trkpt lat="42.0802" lon="12.87941">
        <ele>913</ele>
        <time>2010-01-01T03:03:13.000Z</time>
      </trkpt>
      <trkpt lat="42.080292" lon="12.87932">
        <ele>913</ele>
        <time>2010-01-01T03:03:18.000Z</time>
      </trkpt>
      <trkpt lat="42.080349" lon="12.87917">
        <ele>915</ele>
        <time>2010-01-01T03:03:23.000Z</time>
      </trkpt>
      <trkpt lat="42.08041" lon="12.87895">
        <ele>921</ele>
        <time>2010-01-01T03:03:30.000Z</time>
      </trkpt>
      <trkpt lat="42.080471" lon="12.87874">
        <ele>926</ele>
        <time>2010-01-01T03:03:36.000Z</time>
      </trkpt>
      <trkpt lat="42.080509" lon="12.8785">
        <ele>933</ele>
        <time>2010-01-01T03:03:44.000Z</time>
      </trkpt>
      <trkpt lat="42.08057" lon="12.87832">
        <ele>937</ele>
        <time>2010-01-01T03:03:50.000Z</time>
      </trkpt>
      <trkpt lat="42.080639" lon="12.87823">
        <ele>938</ele>
        <time>2010-01-01T03:03:54.000Z</time>
      </trkpt>
      <trkpt lat="42.080761" lon="12.87816">
        <ele>937</ele>
        <time>2010-01-01T03:03:59.000Z</time>
      </trkpt>
      <trkpt lat="42.080952" lon="12.87812">
        <ele>933</ele>
        <time>2010-01-01T03:04:06.000Z</time>
      </trkpt>
      <trkpt lat="42.080978" lon="12.87807">
        <ele>933</ele>
        <time>2010-01-01T03:04:08.000Z</time>
      </trkpt>
      <trkpt lat="42.081001" lon="12.87799">
        <ele>935</ele>
        <time>2010-01-01T03:04:11.000Z</time>
      </trkpt>
      <trkpt lat="42.08102" lon="12.87766">
        <ele>945</ele>
        <time>2010-01-01T03:04:21.000Z</time>
      </trkpt>
      <trkpt lat="42.081059" lon="12.87756">
        <ele>947</ele>
        <time>2010-01-01T03:04:24.000Z</time>
      </trkpt>
      <trkpt lat="42.081261" lon="12.87739">
        <ele>945</ele>
        <time>2010-01-01T03:04:34.000Z</time>
      </trkpt>
      <trkpt lat="42.08136" lon="12.87728">
        <ele>946</ele>
        <time>2010-01-01T03:04:39.000Z</time>
      </trkpt>
      <trkpt lat="42.081421" lon="12.87714">
        <ele>949</ele>
        <time>2010-01-01T03:04:44.000Z</time>
      </trkpt>
      <trkpt lat="42.081478" lon="12.8769">
        <ele>955</ele>
        <time>2010-01-01T03:04:51.000Z</time>
      </trkpt>
      <trkpt lat="42.081551" lon="12.87674">
        <ele>958</ele>
        <time>2010-01-01T03:04:57.000Z</time>
      </trkpt>
      <trkpt lat="42.081669" lon="12.87663">
        <ele>958</ele>
        <time>2010-01-01T03:05:02.000Z</time>
      </trkpt>
      <trkpt lat="42.081871" lon="12.8764">
        <ele>959</ele>
        <time>2010-01-01T03:05:13.000Z</time>
      </trkpt>
      <trkpt lat="42.081982" lon="12.87625">
        <ele>959</ele>
        <time>2010-01-01T03:05:19.000Z</time>
      </trkpt>
      <trkpt lat="42.082008" lon="12.87618">
        <ele>959</ele>
        <time>2010-01-01T03:05:22.000Z</time>
      </trkpt>
      <trkpt lat="42.082001" lon="12.87609">
        <ele>961</ele>
        <time>2010-01-01T03:05:24.000Z</time>
      </trkpt>
      <trkpt lat="42.08194" lon="12.87574">
        <ele>969</ele>
        <time>2010-01-01T03:05:35.000Z</time>
      </trkpt>
      <trkpt lat="42.08194" lon="12.87556">
        <ele>971</ele>
        <time>2010-01-01T03:05:40.000Z</time>
      </trkpt>
      <trkpt lat="42.082008" lon="12.87522">
        <ele>971</ele>
        <time>2010-01-01T03:05:51.000Z</time>
      </trkpt>
      <trkpt lat="42.0821" lon="12.87492">
        <ele>966</ele>
        <time>2010-01-01T03:06:00.000Z</time>
      </trkpt>
      <trkpt lat="42.082111" lon="12.87483">
        <ele>965</ele>
        <time>2010-01-01T03:06:03.000Z</time>
      </trkpt>
      <trkpt lat="42.082088" lon="12.87477">
        <ele>965</ele>
        <time>2010-01-01T03:06:05.000Z</time>
      </trkpt>
      <trkpt lat="42.082001" lon="12.87468">
        <ele>969</ele>
        <time>2010-01-01T03:06:10.000Z</time>
      </trkpt>
      <trkpt lat="42.081848" lon="12.87463">
        <ele>975</ele>
        <time>2010-01-01T03:06:16.000Z</time>
      </trkpt>
      <trkpt lat="42.081772" lon="12.87456">
        <ele>976</ele>
        <time>2010-01-01T03:06:20.000Z</time>
      </trkpt>
      <trkpt lat="42.0816" lon="12.87432">
        <ele>976</ele>
        <time>2010-01-01T03:06:29.000Z</time>
      </trkpt>
      <trkpt lat="42.081429" lon="12.87416">
        <ele>976</ele>
        <time>2010-01-01T03:06:38.000Z</time>
      </trkpt>
      <trkpt lat="42.081322" lon="12.87407">
        <ele>977</ele>
        <time>2010-01-01T03:06:43.000Z</time>
      </trkpt>
      <trkpt lat="42.0812" lon="12.87402">
        <ele>980</ele>
        <time>2010-01-01T03:06:48.000Z</time>
      </trkpt>
      <trkpt lat="42.081108" lon="12.87395">
        <ele>982</ele>
        <time>2010-01-01T03:06:52.000Z</time>
      </trkpt>
      <trkpt lat="42.08107" lon="12.8739">
        <ele>983</ele>
        <time>2010-01-01T03:06:54.000Z</time>
      </trkpt>
      <trkpt lat="42.081039" lon="12.87369">
        <ele>983</ele>
        <time>2010-01-01T03:07:01.000Z</time>
      </trkpt>
      <trkpt lat="42.081009" lon="12.87311">
        <ele>979</ele>
        <time>2010-01-01T03:07:18.000Z</time>
      </trkpt>
      <trkpt lat="42.080971" lon="12.87298">
        <ele>978</ele>
        <time>2010-01-01T03:07:22.000Z</time>
      </trkpt>
      <trkpt lat="42.08086" lon="12.87293">
        <ele>982</ele>
        <time>2010-01-01T03:07:27.000Z</time>
      </trkpt>
      <trkpt lat="42.080559" lon="12.87282">
        <ele>990</ele>
        <time>2010-01-01T03:07:39.000Z</time>
      </trkpt>
      <trkpt lat="42.080441" lon="12.87274">
        <ele>994</ele>
        <time>2010-01-01T03:07:44.000Z</time>
      </trkpt>
      <trkpt lat="42.080341" lon="12.87218">
        <ele>993</ele>
        <time>2010-01-01T03:08:02.000Z</time>
      </trkpt>
      <trkpt lat="42.08025" lon="12.87204">
        <ele>995</ele>
        <time>2010-01-01T03:08:07.000Z</time>
      </trkpt>
      <trkpt lat="42.080151" lon="12.87194">
        <ele>996</ele>
        <time>2010-01-01T03:08:12.000Z</time>
      </trkpt>
      <trkpt lat="42.079922" lon="12.87179">
        <ele>999</ele>
        <time>2010-01-01T03:08:22.000Z</time>
      </trkpt>
      <trkpt lat="42.079819" lon="12.87169">
        <ele>998</ele>
        <time>2010-01-01T03:08:27.000Z</time>
      </trkpt>
      <trkpt lat="42.07975" lon="12.87154">
        <ele>994</ele>
        <time>2010-01-01T03:08:33.000Z</time>
      </trkpt>
      <trkpt lat="42.07972" lon="12.87138">
        <ele>990</ele>
        <time>2010-01-01T03:08:37.000Z</time>
      </trkpt>
      <trkpt lat="42.079708" lon="12.8712">
        <ele>990</ele>
        <time>2010-01-01T03:08:43.000Z</time>
      </trkpt>
      <trkpt lat="42.079708" lon="12.87084">
        <ele>992</ele>
        <time>2010-01-01T03:08:54.000Z</time>
      </trkpt>
      <trkpt lat="42.07972" lon="12.87074">
        <ele>993</ele>
        <time>2010-01-01T03:08:57.000Z</time>
      </trkpt>
      <trkpt lat="42.079811" lon="12.87045">
        <ele>997</ele>
        <time>2010-01-01T03:09:06.000Z</time>
      </trkpt>
      <trkpt lat="42.079868" lon="12.87022">
        <ele>999</ele>
        <time>2010-01-01T03:09:13.000Z</time>
      </trkpt>
      <trkpt lat="42.079861" lon="12.87014">
        <ele>1001</ele>
        <time>2010-01-01T03:09:16.000Z</time>
      </trkpt>
      <trkpt lat="42.079788" lon="12.86978">
        <ele>1005</ele>
        <time>2010-01-01T03:09:27.000Z</time>
      </trkpt>
      <trkpt lat="42.0798" lon="12.86957">
        <ele>1007</ele>
        <time>2010-01-01T03:09:33.000Z</time>
      </trkpt>
      <trkpt lat="42.07983" lon="12.86949">
        <ele>1008</ele>
        <time>2010-01-01T03:09:35.000Z</time>
      </trkpt>
      <trkpt lat="42.079849" lon="12.86944">
        <ele>1009</ele>
        <time>2010-01-01T03:09:37.000Z</time>
      </trkpt>
      <trkpt lat="42.079922" lon="12.86936">
        <ele>1011</ele>
        <time>2010-01-01T03:09:41.000Z</time>
      </trkpt>
      <trkpt lat="42.08007" lon="12.86926">
        <ele>1014</ele>
        <time>2010-01-01T03:09:48.000Z</time>
      </trkpt>
      <trkpt lat="42.080379" lon="12.86911">
        <ele>1017</ele>
        <time>2010-01-01T03:10:01.000Z</time>
      </trkpt>
      <trkpt lat="42.08065" lon="12.86902">
        <ele>1022</ele>
        <time>2010-01-01T03:10:12.000Z</time>
      </trkpt>
      <trkpt lat="42.081081" lon="12.86902">
        <ele>1028</ele>
        <time>2010-01-01T03:10:29.000Z</time>
      </trkpt>
      <trkpt lat="42.081371" lon="12.86887">
        <ele>1033</ele>
        <time>2010-01-01T03:10:42.000Z</time>
      </trkpt>
      <trkpt lat="42.081551" lon="12.86888">
        <ele>1030</ele>
        <time>2010-01-01T03:10:49.000Z</time>
      </trkpt>
      <trkpt lat="42.08165" lon="12.86887">
        <ele>1030</ele>
        <time>2010-01-01T03:10:53.000Z</time>
      </trkpt>
      <trkpt lat="42.082062" lon="12.86869">
        <ele>1040</ele>
        <time>2010-01-01T03:11:10.000Z</time>
      </trkpt>
      <trkpt lat="42.082211" lon="12.86866">
        <ele>1041</ele>
        <time>2010-01-01T03:11:16.000Z</time>
      </trkpt>
      <trkpt lat="42.082352" lon="12.86859">
        <ele>1041</ele>
        <time>2010-01-01T03:11:22.000Z</time>
      </trkpt>
      <trkpt lat="42.082451" lon="12.86851">
        <ele>1042</ele>
        <time>2010-01-01T03:11:27.000Z</time>
      </trkpt>
      <trkpt lat="42.082802" lon="12.86819">
        <ele>1045</ele>
        <time>2010-01-01T03:11:44.000Z</time>
      </trkpt>
      <trkpt lat="42.08287" lon="12.86803">
        <ele>1049</ele>
        <time>2010-01-01T03:11:49.000Z</time>
      </trkpt>
      <trkpt lat="42.082909" lon="12.86765">
        <ele>1059</ele>
        <time>2010-01-01T03:12:01.000Z</time>
      </trkpt>
      <trkpt lat="42.083179" lon="12.86714">
        <ele>1059</ele>
        <time>2010-01-01T03:12:19.000Z</time>
      </trkpt>
      <trkpt lat="42.08334" lon="12.86689">
        <ele>1061</ele>
        <time>2010-01-01T03:12:29.000Z</time>
      </trkpt>
      <trkpt lat="42.083729" lon="12.86646">
        <ele>1070</ele>
        <time>2010-01-01T03:12:49.000Z</time>
      </trkpt>
      <trkpt lat="42.084049" lon="12.86617">
        <ele>1074</ele>
        <time>2010-01-01T03:13:05.000Z</time>
      </trkpt>
      <trkpt lat="42.084179" lon="12.86603">
        <ele>1074</ele>
        <time>2010-01-01T03:13:11.000Z</time>
      </trkpt>
      <trkpt lat="42.08424" lon="12.86592">
        <ele>1075</ele>
        <time>2010-01-01T03:13:15.000Z</time>
      </trkpt>
      <trkpt lat="42.08427" lon="12.86581">
        <ele>1077</ele>
        <time>2010-01-01T03:13:19.000Z</time>
      </trkpt>
      <trkpt lat="42.08429" lon="12.86569">
        <ele>1079</ele>
        <time>2010-01-01T03:13:22.000Z</time>
      </trkpt>
      <trkpt lat="42.08429" lon="12.86527">
        <ele>1084</ele>
        <time>2010-01-01T03:13:35.000Z</time>
      </trkpt>
      <trkpt lat="42.084209" lon="12.86499">
        <ele>1088</ele>
        <time>2010-01-01T03:13:44.000Z</time>
      </trkpt>
      <trkpt lat="42.084129" lon="12.86484">
        <ele>1093</ele>
        <time>2010-01-01T03:13:49.000Z</time>
      </trkpt>
      <trkpt lat="42.084099" lon="12.86473">
        <ele>1095</ele>
        <time>2010-01-01T03:13:53.000Z</time>
      </trkpt>
      <trkpt lat="42.084091" lon="12.86461">
        <ele>1098</ele>
        <time>2010-01-01T03:13:56.000Z</time>
      </trkpt>
      <trkpt lat="42.084122" lon="12.8645">
        <ele>1099</ele>
        <time>2010-01-01T03:14:00.000Z</time>
      </trkpt>
      <trkpt lat="42.08427" lon="12.86442">
        <ele>1098</ele>
        <time>2010-01-01T03:14:06.000Z</time>
      </trkpt>
      <trkpt lat="42.084492" lon="12.86436">
        <ele>1095</ele>
        <time>2010-01-01T03:14:15.000Z</time>
      </trkpt>
      <trkpt lat="42.084579" lon="12.86429">
        <ele>1095</ele>
        <time>2010-01-01T03:14:19.000Z</time>
      </trkpt>
      <trkpt lat="42.085011" lon="12.86392">
        <ele>1097</ele>
        <time>2010-01-01T03:14:40.000Z</time>
      </trkpt>
      <trkpt lat="42.085091" lon="12.86379">
        <ele>1098</ele>
        <time>2010-01-01T03:14:45.000Z</time>
      </trkpt>
      <trkpt lat="42.085129" lon="12.86363">
        <ele>1101</ele>
        <time>2010-01-01T03:14:50.000Z</time>
      </trkpt>
      <trkpt lat="42.085159" lon="12.86343">
        <ele>1106</ele>
        <time>2010-01-01T03:14:56.000Z</time>
      </trkpt>
      <trkpt lat="42.085232" lon="12.86323">
        <ele>1106</ele>
        <time>2010-01-01T03:15:03.000Z</time>
      </trkpt>
      <trkpt lat="42.085281" lon="12.86284">
        <ele>1112</ele>
        <time>2010-01-01T03:15:14.000Z</time>
      </trkpt>
      <trkpt lat="42.085331" lon="12.8626">
        <ele>1115</ele>
        <time>2010-01-01T03:15:22.000Z</time>
      </trkpt>
      <trkpt lat="42.085449" lon="12.86233">
        <ele>1118</ele>
        <time>2010-01-01T03:15:31.000Z</time>
      </trkpt>
      <trkpt lat="42.085548" lon="12.86198">
        <ele>1123</ele>
        <time>2010-01-01T03:15:42.000Z</time>
      </trkpt>
      <trkpt lat="42.085609" lon="12.86186">
        <ele>1125</ele>
        <time>2010-01-01T03:15:47.000Z</time>
      </trkpt>
      <trkpt lat="42.085678" lon="12.8618">
        <ele>1125</ele>
        <time>2010-01-01T03:15:50.000Z</time>
      </trkpt>
      <trkpt lat="42.085751" lon="12.86179">
        <ele>1124</ele>
        <time>2010-01-01T03:15:53.000Z</time>
      </trkpt>
      <trkpt lat="42.086151" lon="12.86195">
        <ele>1119</ele>
        <time>2010-01-01T03:16:09.000Z</time>
      </trkpt>
      <trkpt lat="42.08638" lon="12.86192">
        <ele>1123</ele>
        <time>2010-01-01T03:16:19.000Z</time>
      </trkpt>
      <trkpt lat="42.086578" lon="12.86193">
        <ele>1124</ele>
        <time>2010-01-01T03:16:27.000Z</time>
      </trkpt>
      <trkpt lat="42.0868" lon="12.86198">
        <ele>1123</ele>
        <time>2010-01-01T03:16:36.000Z</time>
      </trkpt>
      <trkpt lat="42.08754" lon="12.86202">
        <ele>1121</ele>
        <time>2010-01-01T03:17:05.000Z</time>
      </trkpt>
      <trkpt lat="42.087631" lon="12.86205">
        <ele>1120</ele>
        <time>2010-01-01T03:17:09.000Z</time>
      </trkpt>
      <trkpt lat="42.087799" lon="12.86214">
        <ele>1118</ele>
        <time>2010-01-01T03:17:16.000Z</time>
      </trkpt>
      <trkpt lat="42.087898" lon="12.86225">
        <ele>1117</ele>
        <time>2010-01-01T03:17:21.000Z</time>
      </trkpt>
      <trkpt lat="42.087929" lon="12.86214">
        <ele>1118</ele>
        <time>2010-01-01T03:17:25.000Z</time>
      </trkpt>
      <trkpt lat="42.088009" lon="12.86206">
        <ele>1118</ele>
        <time>2010-01-01T03:17:29.000Z</time>
      </trkpt>
      <trkpt lat="42.08807" lon="12.86195">
        <ele>1117</ele>
        <time>2010-01-01T03:17:33.000Z</time>
      </trkpt>
      <trkpt lat="42.088261" lon="12.8618">
        <ele>1114</ele>
        <time>2010-01-01T03:17:42.000Z</time>
      </trkpt>
      <trkpt lat="42.08836" lon="12.86163">
        <ele>1111</ele>
        <time>2010-01-01T03:17:48.000Z</time>
      </trkpt>
      <trkpt lat="42.088409" lon="12.86152">
        <ele>1109</ele>
        <time>2010-01-01T03:17:52.000Z</time>
      </trkpt>
      <trkpt lat="42.088451" lon="12.86129">
        <ele>1107</ele>
        <time>2010-01-01T03:17:59.000Z</time>
      </trkpt>
      <trkpt lat="42.08849" lon="12.8612">
        <ele>1105</ele>
        <time>2010-01-01T03:18:02.000Z</time>
      </trkpt>
      <trkpt lat="42.088539" lon="12.86101">
        <ele>1104</ele>
        <time>2010-01-01T03:18:08.000Z</time>
      </trkpt>
      <trkpt lat="42.088699" lon="12.8606">
        <ele>1100</ele>
        <time>2010-01-01T03:18:22.000Z</time>
      </trkpt>
      <trkpt lat="42.088821" lon="12.86047">
        <ele>1095</ele>
        <time>2010-01-01T03:18:28.000Z</time>
      </trkpt>
      <trkpt lat="42.08884" lon="12.8603">
        <ele>1093</ele>
        <time>2010-01-01T03:18:33.000Z</time>
      </trkpt>
      <trkpt lat="42.088909" lon="12.86022">
        <ele>1089</ele>
        <time>2010-01-01T03:18:37.000Z</time>
      </trkpt>
      <trkpt lat="42.08902" lon="12.86015">
        <ele>1086</ele>
        <time>2010-01-01T03:18:42.000Z</time>
      </trkpt>
      <trkpt lat="42.089031" lon="12.86002">
        <ele>1085</ele>
        <time>2010-01-01T03:18:46.000Z</time>
      </trkpt>
      <trkpt lat="42.088989" lon="12.85987">
        <ele>1085</ele>
        <time>2010-01-01T03:18:50.000Z</time>
      </trkpt>
      <trkpt lat="42.089039" lon="12.85974">
        <ele>1084</ele>
        <time>2010-01-01T03:18:55.000Z</time>
      </trkpt>
      <trkpt lat="42.089352" lon="12.85944">
        <ele>1080</ele>
        <time>2010-01-01T03:19:10.000Z</time>
      </trkpt>
      <trkpt lat="42.08952" lon="12.85935">
        <ele>1079</ele>
        <time>2010-01-01T03:19:17.000Z</time>
      </trkpt>
      <trkpt lat="42.089569" lon="12.85924">
        <ele>1078</ele>
        <time>2010-01-01T03:19:21.000Z</time>
      </trkpt>
      <trkpt lat="42.08947" lon="12.85891">
        <ele>1079</ele>
        <time>2010-01-01T03:19:32.000Z</time>
      </trkpt>
      <trkpt lat="42.089512" lon="12.85858">
        <ele>1082</ele>
        <time>2010-01-01T03:19:42.000Z</time>
      </trkpt>
      <trkpt lat="42.089432" lon="12.85837">
        <ele>1083</ele>
        <time>2010-01-01T03:19:49.000Z</time>
      </trkpt>
      <trkpt lat="42.089401" lon="12.8582">
        <ele>1085</ele>
        <time>2010-01-01T03:19:54.000Z</time>
      </trkpt>
      <trkpt lat="42.08939" lon="12.85798">
        <ele>1086</ele>
        <time>2010-01-01T03:20:00.000Z</time>
      </trkpt>
      <trkpt lat="42.089401" lon="12.85787">
        <ele>1087</ele>
        <time>2010-01-01T03:20:04.000Z</time>
      </trkpt>
      <trkpt lat="42.089588" lon="12.85732">
        <ele>1092</ele>
        <time>2010-01-01T03:20:22.000Z</time>
      </trkpt>
      <trkpt lat="42.089691" lon="12.8572">
        <ele>1093</ele>
        <time>2010-01-01T03:20:27.000Z</time>
      </trkpt>
      <trkpt lat="42.089802" lon="12.85715">
        <ele>1094</ele>
        <time>2010-01-01T03:20:32.000Z</time>
      </trkpt>
      <trkpt lat="42.090229" lon="12.85739">
        <ele>1094</ele>
        <time>2010-01-01T03:20:50.000Z</time>
      </trkpt>
      <trkpt lat="42.090359" lon="12.85739">
        <ele>1093</ele>
        <time>2010-01-01T03:20:56.000Z</time>
      </trkpt>
      <trkpt lat="42.090549" lon="12.85733">
        <ele>1091</ele>
        <time>2010-01-01T03:21:03.000Z</time>
      </trkpt>
      <trkpt lat="42.090698" lon="12.85722">
        <ele>1090</ele>
        <time>2010-01-01T03:21:10.000Z</time>
      </trkpt>
      <trkpt lat="42.090759" lon="12.85711">
        <ele>1089</ele>
        <time>2010-01-01T03:21:14.000Z</time>
      </trkpt>
      <trkpt lat="42.090801" lon="12.85701">
        <ele>1087</ele>
        <time>2010-01-01T03:21:18.000Z</time>
      </trkpt>
      <trkpt lat="42.090839" lon="12.85685">
        <ele>1085</ele>
        <time>2010-01-01T03:21:23.000Z</time>
      </trkpt>
      <trkpt lat="42.090858" lon="12.85634">
        <ele>1083</ele>
        <time>2010-01-01T03:21:38.000Z</time>
      </trkpt>
      <trkpt lat="42.090752" lon="12.85606">
        <ele>1081</ele>
        <time>2010-01-01T03:21:47.000Z</time>
      </trkpt>
      <trkpt lat="42.090721" lon="12.8559">
        <ele>1078</ele>
        <time>2010-01-01T03:21:52.000Z</time>
      </trkpt>
      <trkpt lat="42.090691" lon="12.85568">
        <ele>1075</ele>
        <time>2010-01-01T03:21:59.000Z</time>
      </trkpt>
      <trkpt lat="42.090672" lon="12.8556">
        <ele>1074</ele>
        <time>2010-01-01T03:22:01.000Z</time>
      </trkpt>
      <trkpt lat="42.09063" lon="12.85557">
        <ele>1073</ele>
        <time>2010-01-01T03:22:03.000Z</time>
      </trkpt>
      <trkpt lat="42.09058" lon="12.85557">
        <ele>1074</ele>
        <time>2010-01-01T03:22:05.000Z</time>
      </trkpt>
      <trkpt lat="42.09026" lon="12.85564">
        <ele>1075</ele>
        <time>2010-01-01T03:22:18.000Z</time>
      </trkpt>
      <trkpt lat="42.09021" lon="12.85563">
        <ele>1076</ele>
        <time>2010-01-01T03:22:20.000Z</time>
      </trkpt>
      <trkpt lat="42.090191" lon="12.85552">
        <ele>1073</ele>
        <time>2010-01-01T03:22:23.000Z</time>
      </trkpt>
      <trkpt lat="42.090302" lon="12.85537">
        <ele>1070</ele>
        <time>2010-01-01T03:22:30.000Z</time>
      </trkpt>
      <trkpt lat="42.09058" lon="12.8548">
        <ele>1056</ele>
        <time>2010-01-01T03:22:50.000Z</time>
      </trkpt>
      <trkpt lat="42.090721" lon="12.85458">
        <ele>1051</ele>
        <time>2010-01-01T03:22:59.000Z</time>
      </trkpt>
      <trkpt lat="42.090839" lon="12.85446">
        <ele>1047</ele>
        <time>2010-01-01T03:23:05.000Z</time>
      </trkpt>
      <trkpt lat="42.090981" lon="12.85436">
        <ele>1046</ele>
        <time>2010-01-01T03:23:11.000Z</time>
      </trkpt>
      <trkpt lat="42.091251" lon="12.8542">
        <ele>1042</ele>
        <time>2010-01-01T03:23:23.000Z</time>
      </trkpt>
      <trkpt lat="42.091419" lon="12.85418">
        <ele>1041</ele>
        <time>2010-01-01T03:23:30.000Z</time>
      </trkpt>
      <trkpt lat="42.09156" lon="12.85419">
        <ele>1037</ele>
        <time>2010-01-01T03:23:35.000Z</time>
      </trkpt>
      <trkpt lat="42.091679" lon="12.85425">
        <ele>1034</ele>
        <time>2010-01-01T03:23:40.000Z</time>
      </trkpt>
      <trkpt lat="42.09174" lon="12.85424">
        <ele>1032</ele>
        <time>2010-01-01T03:23:43.000Z</time>
      </trkpt>
      <trkpt lat="42.092091" lon="12.85396">
        <ele>1020</ele>
        <time>2010-01-01T03:23:59.000Z</time>
      </trkpt>
      <trkpt lat="42.092331" lon="12.85374">
        <ele>1016</ele>
        <time>2010-01-01T03:24:11.000Z</time>
      </trkpt>
      <trkpt lat="42.092411" lon="12.8537">
        <ele>1016</ele>
        <time>2010-01-01T03:24:14.000Z</time>
      </trkpt>
      <trkpt lat="42.092579" lon="12.85367">
        <ele>1015</ele>
        <time>2010-01-01T03:24:21.000Z</time>
      </trkpt>
      <trkpt lat="42.092659" lon="12.85362">
        <ele>1015</ele>
        <time>2010-01-01T03:24:24.000Z</time>
      </trkpt>
      <trkpt lat="42.092918" lon="12.85313">
        <ele>1011</ele>
        <time>2010-01-01T03:24:42.000Z</time>
      </trkpt>
      <trkpt lat="42.093079" lon="12.85296">
        <ele>1010</ele>
        <time>2010-01-01T03:24:51.000Z</time>
      </trkpt>
      <trkpt lat="42.093151" lon="12.85258">
        <ele>1010</ele>
        <time>2010-01-01T03:25:02.000Z</time>
      </trkpt>
      <trkpt lat="42.09314" lon="12.85224">
        <ele>1011</ele>
        <time>2010-01-01T03:25:12.000Z</time>
      </trkpt>
      <trkpt lat="42.09314" lon="12.85223">
        <ele>1011</ele>
        <time>2010-01-01T03:25:13.000Z</time>
      </trkpt>
      <trkpt lat="42.093121" lon="12.85188">
        <ele>1010</ele>
        <time>2010-01-01T03:25:23.000Z</time>
      </trkpt>
      <trkpt lat="42.093079" lon="12.8516">
        <ele>1011</ele>
        <time>2010-01-01T03:25:31.000Z</time>
      </trkpt>
      <trkpt lat="42.093029" lon="12.85143">
        <ele>1012</ele>
        <time>2010-01-01T03:25:37.000Z</time>
      </trkpt>
      <trkpt lat="42.092941" lon="12.85085">
        <ele>1014</ele>
        <time>2010-01-01T03:25:54.000Z</time>
      </trkpt>
      <trkpt lat="42.09314" lon="12.85022">
        <ele>1010</ele>
        <time>2010-01-01T03:26:15.000Z</time>
      </trkpt>
      <trkpt lat="42.093151" lon="12.85013">
        <ele>1009</ele>
        <time>2010-01-01T03:26:18.000Z</time>
      </trkpt>
      <trkpt lat="42.093128" lon="12.84983">
        <ele>1004</ele>
        <time>2010-01-01T03:26:27.000Z</time>
      </trkpt>
      <trkpt lat="42.093151" lon="12.84967">
        <ele>1001</ele>
        <time>2010-01-01T03:26:31.000Z</time>
      </trkpt>
      <trkpt lat="42.093262" lon="12.8494">
        <ele>997</ele>
        <time>2010-01-01T03:26:40.000Z</time>
      </trkpt>
      <trkpt lat="42.093342" lon="12.84932">
        <ele>997</ele>
        <time>2010-01-01T03:26:44.000Z</time>
      </trkpt>
      <trkpt lat="42.093449" lon="12.84925">
        <ele>996</ele>
        <time>2010-01-01T03:26:49.000Z</time>
      </trkpt>
      <trkpt lat="42.093578" lon="12.84922">
        <ele>996</ele>
        <time>2010-01-01T03:26:55.000Z</time>
      </trkpt>
      <trkpt lat="42.093842" lon="12.84923">
        <ele>992</ele>
        <time>2010-01-01T03:27:05.000Z</time>
      </trkpt>
      <trkpt lat="42.09388" lon="12.84929">
        <ele>993</ele>
        <time>2010-01-01T03:27:07.000Z</time>
      </trkpt>
      <trkpt lat="42.09391" lon="12.84955">
        <ele>996</ele>
        <time>2010-01-01T03:27:15.000Z</time>
      </trkpt>
      <trkpt lat="42.093868" lon="12.84971">
        <ele>999</ele>
        <time>2010-01-01T03:27:20.000Z</time>
      </trkpt>
      <trkpt lat="42.093861" lon="12.84984">
        <ele>1000</ele>
        <time>2010-01-01T03:27:24.000Z</time>
      </trkpt>
      <trkpt lat="42.09383" lon="12.84999">
        <ele>1001</ele>
        <time>2010-01-01T03:27:29.000Z</time>
      </trkpt>
      <trkpt lat="42.093842" lon="12.85014">
        <ele>1003</ele>
        <time>2010-01-01T03:27:33.000Z</time>
      </trkpt>
      <trkpt lat="42.093861" lon="12.85026">
        <ele>1004</ele>
        <time>2010-01-01T03:27:37.000Z</time>
      </trkpt>
      <trkpt lat="42.093891" lon="12.85031">
        <ele>1004</ele>
        <time>2010-01-01T03:27:39.000Z</time>
      </trkpt>
      <trkpt lat="42.094028" lon="12.8504">
        <ele>1000</ele>
        <time>2010-01-01T03:27:45.000Z</time>
      </trkpt>
      <trkpt lat="42.094311" lon="12.85063">
        <ele>993</ele>
        <time>2010-01-01T03:27:58.000Z</time>
      </trkpt>
      <trkpt lat="42.094589" lon="12.85082">
        <ele>982</ele>
        <time>2010-01-01T03:28:11.000Z</time>
      </trkpt>
      <trkpt lat="42.09465" lon="12.85091">
        <ele>981</ele>
        <time>2010-01-01T03:28:14.000Z</time>
      </trkpt>
      <trkpt lat="42.094688" lon="12.85105">
        <ele>981</ele>
        <time>2010-01-01T03:28:19.000Z</time>
      </trkpt>
      <trkpt lat="42.094742" lon="12.85133">
        <ele>978</ele>
        <time>2010-01-01T03:28:27.000Z</time>
      </trkpt>
      <trkpt lat="42.094749" lon="12.85153">
        <ele>978</ele>
        <time>2010-01-01T03:28:33.000Z</time>
      </trkpt>
      <trkpt lat="42.094681" lon="12.85198">
        <ele>981</ele>
        <time>2010-01-01T03:28:47.000Z</time>
      </trkpt>
      <trkpt lat="42.094799" lon="12.8522">
        <ele>971</ele>
        <time>2010-01-01T03:28:55.000Z</time>
      </trkpt>
      <trkpt lat="42.094818" lon="12.8523">
        <ele>967</ele>
        <time>2010-01-01T03:28:58.000Z</time>
      </trkpt>
      <trkpt lat="42.0947" lon="12.85282">
        <ele>963</ele>
        <time>2010-01-01T03:29:14.000Z</time>
      </trkpt>
      <trkpt lat="42.09454" lon="12.85345">
        <ele>954</ele>
        <time>2010-01-01T03:29:34.000Z</time>
      </trkpt>
      <trkpt lat="42.094372" lon="12.85378">
        <ele>953</ele>
        <time>2010-01-01T03:29:46.000Z</time>
      </trkpt>
      <trkpt lat="42.094391" lon="12.85392">
        <ele>948</ele>
        <time>2010-01-01T03:29:50.000Z</time>
      </trkpt>
      <trkpt lat="42.094379" lon="12.85402">
        <ele>947</ele>
        <time>2010-01-01T03:29:53.000Z</time>
      </trkpt>
      <trkpt lat="42.094238" lon="12.85425">
        <ele>950</ele>
        <time>2010-01-01T03:30:02.000Z</time>
      </trkpt>
      <trkpt lat="42.09425" lon="12.85435">
        <ele>948</ele>
        <time>2010-01-01T03:30:05.000Z</time>
      </trkpt>
      <trkpt lat="42.094299" lon="12.85443">
        <ele>945</ele>
        <time>2010-01-01T03:30:08.000Z</time>
      </trkpt>
      <trkpt lat="42.094391" lon="12.85449">
        <ele>943</ele>
        <time>2010-01-01T03:30:12.000Z</time>
      </trkpt>
      <trkpt lat="42.094608" lon="12.85477">
        <ele>940</ele>
        <time>2010-01-01T03:30:24.000Z</time>
      </trkpt>
      <trkpt lat="42.094669" lon="12.8548">
        <ele>939</ele>
        <time>2010-01-01T03:30:27.000Z</time>
      </trkpt>
      <trkpt lat="42.094719" lon="12.85476">
        <ele>936</ele>
        <time>2010-01-01T03:30:29.000Z</time>
      </trkpt>
      <trkpt lat="42.094742" lon="12.85471">
        <ele>934</ele>
        <time>2010-01-01T03:30:31.000Z</time>
      </trkpt>
      <trkpt lat="42.09473" lon="12.85458">
        <ele>932</ele>
        <time>2010-01-01T03:30:35.000Z</time>
      </trkpt>
      <trkpt lat="42.094749" lon="12.85448">
        <ele>930</ele>
        <time>2010-01-01T03:30:38.000Z</time>
      </trkpt>
      <trkpt lat="42.09491" lon="12.85415">
        <ele>925</ele>
        <time>2010-01-01T03:30:50.000Z</time>
      </trkpt>
      <trkpt lat="42.09502" lon="12.8538">
        <ele>924</ele>
        <time>2010-01-01T03:31:01.000Z</time>
      </trkpt>
      <trkpt lat="42.0952" lon="12.85351">
        <ele>918</ele>
        <time>2010-01-01T03:31:12.000Z</time>
      </trkpt>
      <trkpt lat="42.095268" lon="12.85328">
        <ele>916</ele>
        <time>2010-01-01T03:31:19.000Z</time>
      </trkpt>
      <trkpt lat="42.09544" lon="12.85289">
        <ele>916</ele>
        <time>2010-01-01T03:31:33.000Z</time>
      </trkpt>
      <trkpt lat="42.095619" lon="12.85265">
        <ele>913</ele>
        <time>2010-01-01T03:31:43.000Z</time>
      </trkpt>
      <trkpt lat="42.095718" lon="12.85249">
        <ele>909</ele>
        <time>2010-01-01T03:31:49.000Z</time>
      </trkpt>
      <trkpt lat="42.095772" lon="12.85228">
        <ele>904</ele>
        <time>2010-01-01T03:31:56.000Z</time>
      </trkpt>
      <trkpt lat="42.095829" lon="12.85188">
        <ele>899</ele>
        <time>2010-01-01T03:32:08.000Z</time>
      </trkpt>
      <trkpt lat="42.095821" lon="12.85168">
        <ele>901</ele>
        <time>2010-01-01T03:32:14.000Z</time>
      </trkpt>
      <trkpt lat="42.095951" lon="12.85139">
        <ele>896</ele>
        <time>2010-01-01T03:32:24.000Z</time>
      </trkpt>
      <trkpt lat="42.096062" lon="12.85117">
        <ele>887</ele>
        <time>2010-01-01T03:32:32.000Z</time>
      </trkpt>
      <trkpt lat="42.096069" lon="12.85104">
        <ele>886</ele>
        <time>2010-01-01T03:32:36.000Z</time>
      </trkpt>
      <trkpt lat="42.09613" lon="12.85075">
        <ele>881</ele>
        <time>2010-01-01T03:32:45.000Z</time>
      </trkpt>
      <trkpt lat="42.09613" lon="12.8506">
        <ele>878</ele>
        <time>2010-01-01T03:32:49.000Z</time>
      </trkpt>
      <trkpt lat="42.096031" lon="12.85021">
        <ele>878</ele>
        <time>2010-01-01T03:33:01.000Z</time>
      </trkpt>
      <trkpt lat="42.096069" lon="12.84986">
        <ele>872</ele>
        <time>2010-01-01T03:33:12.000Z</time>
      </trkpt>
      <trkpt lat="42.09605" lon="12.84941">
        <ele>875</ele>
        <time>2010-01-01T03:33:25.000Z</time>
      </trkpt>
      <trkpt lat="42.096062" lon="12.84926">
        <ele>874</ele>
        <time>2010-01-01T03:33:30.000Z</time>
      </trkpt>
      <trkpt lat="42.09613" lon="12.8489">
        <ele>866</ele>
        <time>2010-01-01T03:33:41.000Z</time>
      </trkpt>
      <trkpt lat="42.096149" lon="12.84869">
        <ele>862</ele>
        <time>2010-01-01T03:33:47.000Z</time>
      </trkpt>
      <trkpt lat="42.096149" lon="12.84851">
        <ele>861</ele>
        <time>2010-01-01T03:33:52.000Z</time>
      </trkpt>
      <trkpt lat="42.09618" lon="12.84839">
        <ele>859</ele>
        <time>2010-01-01T03:33:56.000Z</time>
      </trkpt>
      <trkpt lat="42.096569" lon="12.84727">
        <ele>842</ele>
        <time>2010-01-01T03:34:33.000Z</time>
      </trkpt>
      <trkpt lat="42.09663" lon="12.84715">
        <ele>839</ele>
        <time>2010-01-01T03:34:37.000Z</time>
      </trkpt>
      <trkpt lat="42.096939" lon="12.84684">
        <ele>833</ele>
        <time>2010-01-01T03:34:53.000Z</time>
      </trkpt>
      <trkpt lat="42.097301" lon="12.84608">
        <ele>823</ele>
        <time>2010-01-01T03:35:19.000Z</time>
      </trkpt>
      <trkpt lat="42.097309" lon="12.84593">
        <ele>824</ele>
        <time>2010-01-01T03:35:24.000Z</time>
      </trkpt>
      <trkpt lat="42.09734" lon="12.84581">
        <ele>824</ele>
        <time>2010-01-01T03:35:28.000Z</time>
      </trkpt>
      <trkpt lat="42.097488" lon="12.84585">
        <ele>821</ele>
        <time>2010-01-01T03:35:34.000Z</time>
      </trkpt>
      <trkpt lat="42.097569" lon="12.84567">
        <ele>822</ele>
        <time>2010-01-01T03:35:40.000Z</time>
      </trkpt>
      <trkpt lat="42.097599" lon="12.84554">
        <ele>822</ele>
        <time>2010-01-01T03:35:44.000Z</time>
      </trkpt>
      <trkpt lat="42.09763" lon="12.84541">
        <ele>824</ele>
        <time>2010-01-01T03:35:48.000Z</time>
      </trkpt>
      <trkpt lat="42.0979" lon="12.84493">
        <ele>824</ele>
        <time>2010-01-01T03:36:06.000Z</time>
      </trkpt>
      <trkpt lat="42.097919" lon="12.84478">
        <ele>823</ele>
        <time>2010-01-01T03:36:11.000Z</time>
      </trkpt>
      <trkpt lat="42.097912" lon="12.84469">
        <ele>822</ele>
        <time>2010-01-01T03:36:13.000Z</time>
      </trkpt>
      <trkpt lat="42.097931" lon="12.84462">
        <ele>823</ele>
        <time>2010-01-01T03:36:15.000Z</time>
      </trkpt>
      <trkpt lat="42.098068" lon="12.84428">
        <ele>824</ele>
        <time>2010-01-01T03:36:27.000Z</time>
      </trkpt>
      <trkpt lat="42.098179" lon="12.84368">
        <ele>817</ele>
        <time>2010-01-01T03:36:45.000Z</time>
      </trkpt>
      <trkpt lat="42.098358" lon="12.84348">
        <ele>822</ele>
        <time>2010-01-01T03:36:55.000Z</time>
      </trkpt>
      <trkpt lat="42.098381" lon="12.84339">
        <ele>823</ele>
        <time>2010-01-01T03:36:57.000Z</time>
      </trkpt>
      <trkpt lat="42.098358" lon="12.84332">
        <ele>822</ele>
        <time>2010-01-01T03:37:00.000Z</time>
      </trkpt>
      <trkpt lat="42.09819" lon="12.84307">
        <ele>817</ele>
        <time>2010-01-01T03:37:10.000Z</time>
      </trkpt>
      <trkpt lat="42.098129" lon="12.84295">
        <ele>815</ele>
        <time>2010-01-01T03:37:14.000Z</time>
      </trkpt>
      <trkpt lat="42.09803" lon="12.84259">
        <ele>813</ele>
        <time>2010-01-01T03:37:25.000Z</time>
      </trkpt>
      <trkpt lat="42.097969" lon="12.84242">
        <ele>813</ele>
        <time>2010-01-01T03:37:31.000Z</time>
      </trkpt>
      <trkpt lat="42.097809" lon="12.84217">
        <ele>809</ele>
        <time>2010-01-01T03:37:41.000Z</time>
      </trkpt>
      <trkpt lat="42.097729" lon="12.84204">
        <ele>807</ele>
        <time>2010-01-01T03:37:46.000Z</time>
      </trkpt>
      <trkpt lat="42.09766" lon="12.84183">
        <ele>804</ele>
        <time>2010-01-01T03:37:53.000Z</time>
      </trkpt>
      <trkpt lat="42.097591" lon="12.84158">
        <ele>800</ele>
        <time>2010-01-01T03:38:01.000Z</time>
      </trkpt>
      <trkpt lat="42.09758" lon="12.84147">
        <ele>799</ele>
        <time>2010-01-01T03:38:04.000Z</time>
      </trkpt>
      <trkpt lat="42.09758" lon="12.84133">
        <ele>799</ele>
        <time>2010-01-01T03:38:08.000Z</time>
      </trkpt>
      <trkpt lat="42.097599" lon="12.84124">
        <ele>799</ele>
        <time>2010-01-01T03:38:11.000Z</time>
      </trkpt>
      <trkpt lat="42.097672" lon="12.84116">
        <ele>800</ele>
        <time>2010-01-01T03:38:15.000Z</time>
      </trkpt>
      <trkpt lat="42.097778" lon="12.8411">
        <ele>803</ele>
        <time>2010-01-01T03:38:19.000Z</time>
      </trkpt>
      <trkpt lat="42.097881" lon="12.84106">
        <ele>807</ele>
        <time>2010-01-01T03:38:24.000Z</time>
      </trkpt>
      <trkpt lat="42.09795" lon="12.841">
        <ele>809</ele>
        <time>2010-01-01T03:38:27.000Z</time>
      </trkpt>
      <trkpt lat="42.097988" lon="12.84094">
        <ele>810</ele>
        <time>2010-01-01T03:38:29.000Z</time>
      </trkpt>
      <trkpt lat="42.098011" lon="12.84086">
        <ele>811</ele>
        <time>2010-01-01T03:38:32.000Z</time>
      </trkpt>
      <trkpt lat="42.097969" lon="12.8407">
        <ele>810</ele>
        <time>2010-01-01T03:38:37.000Z</time>
      </trkpt>
      <trkpt lat="42.097698" lon="12.84018">
        <ele>804</ele>
        <time>2010-01-01T03:38:56.000Z</time>
      </trkpt>
      <trkpt lat="42.097641" lon="12.84003">
        <ele>803</ele>
        <time>2010-01-01T03:39:01.000Z</time>
      </trkpt>
      <trkpt lat="42.097519" lon="12.83914">
        <ele>802</ele>
        <time>2010-01-01T03:39:28.000Z</time>
      </trkpt>
      <trkpt lat="42.097519" lon="12.83889">
        <ele>804</ele>
        <time>2010-01-01T03:39:35.000Z</time>
      </trkpt>
      <trkpt lat="42.097591" lon="12.83834">
        <ele>814</ele>
        <time>2010-01-01T03:39:52.000Z</time>
      </trkpt>
      <trkpt lat="42.09758" lon="12.83812">
        <ele>815</ele>
        <time>2010-01-01T03:39:58.000Z</time>
      </trkpt>
      <trkpt lat="42.097511" lon="12.83764">
        <ele>811</ele>
        <time>2010-01-01T03:40:13.000Z</time>
      </trkpt>
      <trkpt lat="42.097511" lon="12.83725">
        <ele>809</ele>
        <time>2010-01-01T03:40:24.000Z</time>
      </trkpt>
      <trkpt lat="42.09753" lon="12.83713">
        <ele>810</ele>
        <time>2010-01-01T03:40:28.000Z</time>
      </trkpt>
      <trkpt lat="42.09774" lon="12.83686">
        <ele>819</ele>
        <time>2010-01-01T03:40:39.000Z</time>
      </trkpt>
      <trkpt lat="42.097771" lon="12.83674">
        <ele>819</ele>
        <time>2010-01-01T03:40:43.000Z</time>
      </trkpt>
      <trkpt lat="42.097752" lon="12.83663">
        <ele>817</ele>
        <time>2010-01-01T03:40:47.000Z</time>
      </trkpt>
      <trkpt lat="42.097599" lon="12.83636">
        <ele>809</ele>
        <time>2010-01-01T03:40:57.000Z</time>
      </trkpt>
      <trkpt lat="42.097549" lon="12.83624">
        <ele>806</ele>
        <time>2010-01-01T03:41:01.000Z</time>
      </trkpt>
      <trkpt lat="42.097561" lon="12.83614">
        <ele>806</ele>
        <time>2010-01-01T03:41:04.000Z</time>
      </trkpt>
      <trkpt lat="42.097679" lon="12.83587">
        <ele>810</ele>
        <time>2010-01-01T03:41:13.000Z</time>
      </trkpt>
      <trkpt lat="42.097698" lon="12.83572">
        <ele>809</ele>
        <time>2010-01-01T03:41:18.000Z</time>
      </trkpt>
      <trkpt lat="42.097729" lon="12.83518">
        <ele>806</ele>
        <time>2010-01-01T03:41:34.000Z</time>
      </trkpt>
      <trkpt lat="42.097729" lon="12.83486">
        <ele>806</ele>
        <time>2010-01-01T03:41:43.000Z</time>
      </trkpt>
      <trkpt lat="42.097641" lon="12.83459">
        <ele>803</ele>
        <time>2010-01-01T03:41:52.000Z</time>
      </trkpt>
      <trkpt lat="42.097618" lon="12.83426">
        <ele>802</ele>
        <time>2010-01-01T03:42:02.000Z</time>
      </trkpt>
      <trkpt lat="42.097618" lon="12.83393">
        <ele>800</ele>
        <time>2010-01-01T03:42:12.000Z</time>
      </trkpt>
      <trkpt lat="42.097691" lon="12.83363">
        <ele>801</ele>
        <time>2010-01-01T03:42:21.000Z</time>
      </trkpt>
      <trkpt lat="42.097679" lon="12.8335">
        <ele>800</ele>
        <time>2010-01-01T03:42:25.000Z</time>
      </trkpt>
      <trkpt lat="42.097618" lon="12.83303">
        <ele>794</ele>
        <time>2010-01-01T03:42:39.000Z</time>
      </trkpt>
      <trkpt lat="42.097618" lon="12.83283">
        <ele>792</ele>
        <time>2010-01-01T03:42:45.000Z</time>
      </trkpt>
      <trkpt lat="42.097649" lon="12.83259">
        <ele>791</ele>
        <time>2010-01-01T03:42:52.000Z</time>
      </trkpt>
      <trkpt lat="42.097729" lon="12.83215">
        <ele>790</ele>
        <time>2010-01-01T03:43:06.000Z</time>
      </trkpt>
      <trkpt lat="42.09795" lon="12.83157">
        <ele>794</ele>
        <time>2010-01-01T03:43:25.000Z</time>
      </trkpt>
      <trkpt lat="42.09819" lon="12.83117">
        <ele>798</ele>
        <time>2010-01-01T03:43:40.000Z</time>
      </trkpt>
      <trkpt lat="42.09824" lon="12.83036">
        <ele>796</ele>
        <time>2010-01-01T03:44:04.000Z</time>
      </trkpt>
      <trkpt lat="42.098301" lon="12.82994">
        <ele>792</ele>
        <time>2010-01-01T03:44:17.000Z</time>
      </trkpt>
      <trkpt lat="42.098381" lon="12.82965">
        <ele>787</ele>
        <time>2010-01-01T03:44:26.000Z</time>
      </trkpt>
      <trkpt lat="42.0984" lon="12.82943">
        <ele>786</ele>
        <time>2010-01-01T03:44:33.000Z</time>
      </trkpt>
      <trkpt lat="42.098351" lon="12.82896">
        <ele>784</ele>
        <time>2010-01-01T03:44:47.000Z</time>
      </trkpt>
      <trkpt lat="42.098358" lon="12.82884">
        <ele>783</ele>
        <time>2010-01-01T03:44:51.000Z</time>
      </trkpt>
      <trkpt lat="42.098652" lon="12.82803">
        <ele>780</ele>
        <time>2010-01-01T03:45:17.000Z</time>
      </trkpt>
      <trkpt lat="42.098728" lon="12.82792">
        <ele>779</ele>
        <time>2010-01-01T03:45:22.000Z</time>
      </trkpt>
      <trkpt lat="42.099049" lon="12.82773">
        <ele>776</ele>
        <time>2010-01-01T03:45:36.000Z</time>
      </trkpt>
      <trkpt lat="42.099209" lon="12.82761">
        <ele>775</ele>
        <time>2010-01-01T03:45:43.000Z</time>
      </trkpt>
      <trkpt lat="42.09938" lon="12.82752">
        <ele>775</ele>
        <time>2010-01-01T03:45:50.000Z</time>
      </trkpt>
      <trkpt lat="42.099739" lon="12.82732">
        <ele>774</ele>
        <time>2010-01-01T03:46:06.000Z</time>
      </trkpt>
      <trkpt lat="42.100159" lon="12.82717">
        <ele>773</ele>
        <time>2010-01-01T03:46:23.000Z</time>
      </trkpt>
      <trkpt lat="42.100498" lon="12.82708">
        <ele>774</ele>
        <time>2010-01-01T03:46:37.000Z</time>
      </trkpt>
      <trkpt lat="42.100922" lon="12.82688">
        <ele>778</ele>
        <time>2010-01-01T03:46:55.000Z</time>
      </trkpt>
      <trkpt lat="42.101009" lon="12.82675">
        <ele>779</ele>
        <time>2010-01-01T03:47:00.000Z</time>
      </trkpt>
      <trkpt lat="42.100471" lon="12.82694">
        <ele>776</ele>
        <time>2010-01-01T03:47:23.000Z</time>
      </trkpt>
      <trkpt lat="42.100159" lon="12.82697">
        <ele>776</ele>
        <time>2010-01-01T03:47:35.000Z</time>
      </trkpt>
      <trkpt lat="42.100052" lon="12.82694">
        <ele>776</ele>
        <time>2010-01-01T03:47:40.000Z</time>
      </trkpt>
      <trkpt lat="42.09996" lon="12.82687">
        <ele>778</ele>
        <time>2010-01-01T03:47:44.000Z</time>
      </trkpt>
      <trkpt lat="42.099369" lon="12.82622">
        <ele>779</ele>
        <time>2010-01-01T03:48:14.000Z</time>
      </trkpt>
      <trkpt lat="42.098881" lon="12.82578">
        <ele>782</ele>
        <time>2010-01-01T03:48:38.000Z</time>
      </trkpt>
      <trkpt lat="42.09864" lon="12.82551">
        <ele>784</ele>
        <time>2010-01-01T03:48:50.000Z</time>
      </trkpt>
      <trkpt lat="42.097912" lon="12.82458">
        <ele>791</ele>
        <time>2010-01-01T03:49:31.000Z</time>
      </trkpt>
      <trkpt lat="42.097889" lon="12.82438">
        <ele>789</ele>
        <time>2010-01-01T03:49:37.000Z</time>
      </trkpt>
      <trkpt lat="42.097912" lon="12.82404">
        <ele>786</ele>
        <time>2010-01-01T03:49:47.000Z</time>
      </trkpt>
      <trkpt lat="42.0979" lon="12.8238">
        <ele>783</ele>
        <time>2010-01-01T03:49:54.000Z</time>
      </trkpt>
      <trkpt lat="42.097961" lon="12.82342">
        <ele>779</ele>
        <time>2010-01-01T03:50:05.000Z</time>
      </trkpt>
      <trkpt lat="42.098011" lon="12.82331">
        <ele>778</ele>
        <time>2010-01-01T03:50:09.000Z</time>
      </trkpt>
      <trkpt lat="42.098068" lon="12.82321">
        <ele>778</ele>
        <time>2010-01-01T03:50:13.000Z</time>
      </trkpt>
      <trkpt lat="42.09824" lon="12.82309">
        <ele>780</ele>
        <time>2010-01-01T03:50:21.000Z</time>
      </trkpt>
      <trkpt lat="42.098331" lon="12.82293">
        <ele>781</ele>
        <time>2010-01-01T03:50:27.000Z</time>
      </trkpt>
      <trkpt lat="42.098358" lon="12.82265">
        <ele>779</ele>
        <time>2010-01-01T03:50:35.000Z</time>
      </trkpt>
      <trkpt lat="42.098289" lon="12.82222">
        <ele>773</ele>
        <time>2010-01-01T03:50:48.000Z</time>
      </trkpt>
      <trkpt lat="42.098221" lon="12.82203">
        <ele>771</ele>
        <time>2010-01-01T03:50:55.000Z</time>
      </trkpt>
      <trkpt lat="42.098091" lon="12.8218">
        <ele>769</ele>
        <time>2010-01-01T03:51:03.000Z</time>
      </trkpt>
      <trkpt lat="42.097919" lon="12.82154">
        <ele>766</ele>
        <time>2010-01-01T03:51:13.000Z</time>
      </trkpt>
      <trkpt lat="42.09745" lon="12.82096">
        <ele>763</ele>
        <time>2010-01-01T03:51:39.000Z</time>
      </trkpt>
      <trkpt lat="42.097221" lon="12.82076">
        <ele>762</ele>
        <time>2010-01-01T03:51:50.000Z</time>
      </trkpt>
      <trkpt lat="42.097012" lon="12.82062">
        <ele>757</ele>
        <time>2010-01-01T03:51:59.000Z</time>
      </trkpt>
      <trkpt lat="42.09687" lon="12.82048">
        <ele>754</ele>
        <time>2010-01-01T03:52:06.000Z</time>
      </trkpt>
      <trkpt lat="42.096371" lon="12.81975">
        <ele>749</ele>
        <time>2010-01-01T03:52:36.000Z</time>
      </trkpt>
      <trkpt lat="42.096321" lon="12.81959">
        <ele>748</ele>
        <time>2010-01-01T03:52:41.000Z</time>
      </trkpt>
      <trkpt lat="42.09631" lon="12.81949">
        <ele>748</ele>
        <time>2010-01-01T03:52:44.000Z</time>
      </trkpt>
      <trkpt lat="42.096329" lon="12.81942">
        <ele>748</ele>
        <time>2010-01-01T03:52:46.000Z</time>
      </trkpt>
      <trkpt lat="42.096809" lon="12.81877">
        <ele>744</ele>
        <time>2010-01-01T03:53:13.000Z</time>
      </trkpt>
      <trkpt lat="42.097198" lon="12.81818">
        <ele>737</ele>
        <time>2010-01-01T03:53:37.000Z</time>
      </trkpt>
      <trkpt lat="42.097301" lon="12.81798">
        <ele>736</ele>
        <time>2010-01-01T03:53:44.000Z</time>
      </trkpt>
      <trkpt lat="42.09734" lon="12.81783">
        <ele>736</ele>
        <time>2010-01-01T03:53:49.000Z</time>
      </trkpt>
      <trkpt lat="42.097351" lon="12.81765">
        <ele>735</ele>
        <time>2010-01-01T03:53:54.000Z</time>
      </trkpt>
      <trkpt lat="42.09734" lon="12.81747">
        <ele>734</ele>
        <time>2010-01-01T03:53:59.000Z</time>
      </trkpt>
      <trkpt lat="42.097301" lon="12.81729">
        <ele>732</ele>
        <time>2010-01-01T03:54:05.000Z</time>
      </trkpt>
      <trkpt lat="42.096561" lon="12.81573">
        <ele>724</ele>
        <time>2010-01-01T03:55:00.000Z</time>
      </trkpt>
      <trkpt lat="42.096458" lon="12.81553">
        <ele>723</ele>
        <time>2010-01-01T03:55:07.000Z</time>
      </trkpt>
      <trkpt lat="42.096352" lon="12.81541">
        <ele>721</ele>
        <time>2010-01-01T03:55:13.000Z</time>
      </trkpt>
      <trkpt lat="42.096039" lon="12.81515">
        <ele>720</ele>
        <time>2010-01-01T03:55:27.000Z</time>
      </trkpt>
      <trkpt lat="42.095001" lon="12.81453">
        <ele>705</ele>
        <time>2010-01-01T03:56:13.000Z</time>
      </trkpt>
      <trkpt lat="42.094681" lon="12.81429">
        <ele>703</ele>
        <time>2010-01-01T03:56:28.000Z</time>
      </trkpt>
      <trkpt lat="42.094372" lon="12.81397">
        <ele>702</ele>
        <time>2010-01-01T03:56:43.000Z</time>
      </trkpt>
      <trkpt lat="42.094238" lon="12.8138">
        <ele>701</ele>
        <time>2010-01-01T03:56:51.000Z</time>
      </trkpt>
      <trkpt lat="42.09417" lon="12.81379">
        <ele>699</ele>
        <time>2010-01-01T03:56:53.000Z</time>
      </trkpt>
      <trkpt lat="42.094028" lon="12.81362">
        <ele>698</ele>
        <time>2010-01-01T03:57:01.000Z</time>
      </trkpt>
      <trkpt lat="42.093861" lon="12.81317">
        <ele>694</ele>
        <time>2010-01-01T03:57:16.000Z</time>
      </trkpt>
      <trkpt lat="42.0938" lon="12.81294">
        <ele>692</ele>
        <time>2010-01-01T03:57:23.000Z</time>
      </trkpt>
      <trkpt lat="42.09375" lon="12.81291">
        <ele>692</ele>
        <time>2010-01-01T03:57:25.000Z</time>
      </trkpt>
      <trkpt lat="42.093712" lon="12.81297">
        <ele>692</ele>
        <time>2010-01-01T03:57:28.000Z</time>
      </trkpt>
      <trkpt lat="42.09359" lon="12.81383">
        <ele>684</ele>
        <time>2010-01-01T03:57:54.000Z</time>
      </trkpt>
      <trkpt lat="42.093571" lon="12.81405">
        <ele>681</ele>
        <time>2010-01-01T03:58:00.000Z</time>
      </trkpt>
      <trkpt lat="42.09359" lon="12.8142">
        <ele>679</ele>
        <time>2010-01-01T03:58:05.000Z</time>
      </trkpt>
      <trkpt lat="42.093651" lon="12.81435">
        <ele>678</ele>
        <time>2010-01-01T03:58:10.000Z</time>
      </trkpt>
      <trkpt lat="42.094059" lon="12.81494">
        <ele>674</ele>
        <time>2010-01-01T03:58:34.000Z</time>
      </trkpt>
      <trkpt lat="42.094139" lon="12.81512">
        <ele>671</ele>
        <time>2010-01-01T03:58:40.000Z</time>
      </trkpt>
      <trkpt lat="42.094238" lon="12.81527">
        <ele>671</ele>
        <time>2010-01-01T03:58:46.000Z</time>
      </trkpt>
      <trkpt lat="42.094318" lon="12.81534">
        <ele>671</ele>
        <time>2010-01-01T03:58:50.000Z</time>
      </trkpt>
      <trkpt lat="42.094341" lon="12.8154">
        <ele>670</ele>
        <time>2010-01-01T03:58:52.000Z</time>
      </trkpt>
      <trkpt lat="42.09433" lon="12.81545">
        <ele>668</ele>
        <time>2010-01-01T03:58:53.000Z</time>
      </trkpt>
      <trkpt lat="42.09428" lon="12.81546">
        <ele>666</ele>
        <time>2010-01-01T03:58:55.000Z</time>
      </trkpt>
      <trkpt lat="42.09388" lon="12.81515">
        <ele>666</ele>
        <time>2010-01-01T03:59:14.000Z</time>
      </trkpt>
      <trkpt lat="42.093658" lon="12.8151">
        <ele>663</ele>
        <time>2010-01-01T03:59:23.000Z</time>
      </trkpt>
      <trkpt lat="42.093151" lon="12.81494">
        <ele>655</ele>
        <time>2010-01-01T03:59:44.000Z</time>
      </trkpt>
      <trkpt lat="42.09272" lon="12.81468">
        <ele>648</ele>
        <time>2010-01-01T04:00:03.000Z</time>
      </trkpt>
      <trkpt lat="42.092628" lon="12.8146">
        <ele>648</ele>
        <time>2010-01-01T04:00:07.000Z</time>
      </trkpt>
      <trkpt lat="42.092491" lon="12.81441">
        <ele>649</ele>
        <time>2010-01-01T04:00:15.000Z</time>
      </trkpt>
      <trkpt lat="42.092411" lon="12.81435">
        <ele>650</ele>
        <time>2010-01-01T04:00:19.000Z</time>
      </trkpt>
      <trkpt lat="42.092331" lon="12.81431">
        <ele>651</ele>
        <time>2010-01-01T04:00:22.000Z</time>
      </trkpt>
      <trkpt lat="42.09132" lon="12.81432">
        <ele>637</ele>
        <time>2010-01-01T04:01:02.000Z</time>
      </trkpt>
      <trkpt lat="42.090839" lon="12.81438">
        <ele>637</ele>
        <time>2010-01-01T04:01:22.000Z</time>
      </trkpt>
      <trkpt lat="42.090382" lon="12.81438">
        <ele>632</ele>
        <time>2010-01-01T04:01:40.000Z</time>
      </trkpt>
      <trkpt lat="42.09037" lon="12.81438">
        <ele>632</ele>
        <time>2010-01-01T04:01:41.000Z</time>
      </trkpt>
      <trkpt lat="42.090149" lon="12.81437">
        <ele>630</ele>
        <time>2010-01-01T04:01:49.000Z</time>
      </trkpt>
      <trkpt lat="42.089699" lon="12.81446">
        <ele>620</ele>
        <time>2010-01-01T04:02:08.000Z</time>
      </trkpt>
      <trkpt lat="42.088581" lon="12.81495">
        <ele>608</ele>
        <time>2010-01-01T04:02:55.000Z</time>
      </trkpt>
      <trkpt lat="42.08786" lon="12.81531">
        <ele>602</ele>
        <time>2010-01-01T04:03:26.000Z</time>
      </trkpt>
      <trkpt lat="42.087269" lon="12.81569">
        <ele>596</ele>
        <time>2010-01-01T04:03:52.000Z</time>
      </trkpt>
      <trkpt lat="42.086922" lon="12.81586">
        <ele>591</ele>
        <time>2010-01-01T04:04:07.000Z</time>
      </trkpt>
      <trkpt lat="42.08662" lon="12.81609">
        <ele>586</ele>
        <time>2010-01-01T04:04:20.000Z</time>
      </trkpt>
      <trkpt lat="42.086319" lon="12.81629">
        <ele>581</ele>
        <time>2010-01-01T04:04:34.000Z</time>
      </trkpt>
      <trkpt lat="42.086109" lon="12.8165">
        <ele>575</ele>
        <time>2010-01-01T04:04:44.000Z</time>
      </trkpt>
      <trkpt lat="42.085732" lon="12.81697">
        <ele>572</ele>
        <time>2010-01-01T04:05:05.000Z</time>
      </trkpt>
      <trkpt lat="42.085369" lon="12.81733">
        <ele>568</ele>
        <time>2010-01-01T04:05:23.000Z</time>
      </trkpt>
      <trkpt lat="42.08493" lon="12.81774">
        <ele>557</ele>
        <time>2010-01-01T04:05:44.000Z</time>
      </trkpt>
      <trkpt lat="42.084499" lon="12.81818">
        <ele>551</ele>
        <time>2010-01-01T04:06:06.000Z</time>
      </trkpt>
      <trkpt lat="42.084042" lon="12.8185">
        <ele>544</ele>
        <time>2010-01-01T04:06:27.000Z</time>
      </trkpt>
      <trkpt lat="42.083481" lon="12.81889">
        <ele>540</ele>
        <time>2010-01-01T04:06:52.000Z</time>
      </trkpt>
      <trkpt lat="42.083061" lon="12.8191">
        <ele>534</ele>
        <time>2010-01-01T04:07:10.000Z</time>
      </trkpt>
      <trkpt lat="42.082661" lon="12.81926">
        <ele>529</ele>
        <time>2010-01-01T04:07:26.000Z</time>
      </trkpt>
      <trkpt lat="42.082439" lon="12.81929">
        <ele>527</ele>
        <time>2010-01-01T04:07:35.000Z</time>
      </trkpt>
      <trkpt lat="42.082321" lon="12.81936">
        <ele>524</ele>
        <time>2010-01-01T04:07:41.000Z</time>
      </trkpt>
      <trkpt lat="42.082062" lon="12.81943">
        <ele>519</ele>
        <time>2010-01-01T04:07:51.000Z</time>
      </trkpt>
      <trkpt lat="42.081791" lon="12.81941">
        <ele>514</ele>
        <time>2010-01-01T04:08:02.000Z</time>
      </trkpt>
      <trkpt lat="42.081589" lon="12.81931">
        <ele>512</ele>
        <time>2010-01-01T04:08:11.000Z</time>
      </trkpt>
      <trkpt lat="42.081211" lon="12.81898">
        <ele>508</ele>
        <time>2010-01-01T04:08:29.000Z</time>
      </trkpt>
      <trkpt lat="42.08099" lon="12.81867">
        <ele>506</ele>
        <time>2010-01-01T04:08:41.000Z</time>
      </trkpt>
      <trkpt lat="42.080849" lon="12.81832">
        <ele>507</ele>
        <time>2010-01-01T04:08:53.000Z</time>
      </trkpt>
      <trkpt lat="42.080818" lon="12.81799">
        <ele>506</ele>
        <time>2010-01-01T04:09:03.000Z</time>
      </trkpt>
      <trkpt lat="42.080742" lon="12.81734">
        <ele>503</ele>
        <time>2010-01-01T04:09:23.000Z</time>
      </trkpt>
      <trkpt lat="42.080601" lon="12.81688">
        <ele>499</ele>
        <time>2010-01-01T04:09:37.000Z</time>
      </trkpt>
      <trkpt lat="42.080601" lon="12.81677">
        <ele>499</ele>
        <time>2010-01-01T04:09:41.000Z</time>
      </trkpt>
      <trkpt lat="42.080662" lon="12.81628">
        <ele>498</ele>
        <time>2010-01-01T04:09:55.000Z</time>
      </trkpt>
      <trkpt lat="42.080608" lon="12.81605">
        <ele>496</ele>
        <time>2010-01-01T04:10:03.000Z</time>
      </trkpt>
      <trkpt lat="42.080441" lon="12.81551">
        <ele>492</ele>
        <time>2010-01-01T04:10:20.000Z</time>
      </trkpt>
      <trkpt lat="42.080479" lon="12.81529">
        <ele>492</ele>
        <time>2010-01-01T04:10:27.000Z</time>
      </trkpt>
      <trkpt lat="42.080448" lon="12.81523">
        <ele>492</ele>
        <time>2010-01-01T04:10:29.000Z</time>
      </trkpt>
      <trkpt lat="42.080078" lon="12.81474">
        <ele>489</ele>
        <time>2010-01-01T04:10:50.000Z</time>
      </trkpt>
      <trkpt lat="42.07991" lon="12.81447">
        <ele>487</ele>
        <time>2010-01-01T04:11:00.000Z</time>
      </trkpt>
      <trkpt lat="42.079849" lon="12.81427">
        <ele>486</ele>
        <time>2010-01-01T04:11:07.000Z</time>
      </trkpt>
      <trkpt lat="42.079681" lon="12.81349">
        <ele>490</ele>
        <time>2010-01-01T04:11:31.000Z</time>
      </trkpt>
      <trkpt lat="42.07959" lon="12.81317">
        <ele>494</ele>
        <time>2010-01-01T04:11:41.000Z</time>
      </trkpt>
      <trkpt lat="42.079361" lon="12.81269">
        <ele>499</ele>
        <time>2010-01-01T04:11:58.000Z</time>
      </trkpt>
      <trkpt lat="42.079391" lon="12.81231">
        <ele>500</ele>
        <time>2010-01-01T04:12:09.000Z</time>
      </trkpt>
      <trkpt lat="42.079479" lon="12.81176">
        <ele>497</ele>
        <time>2010-01-01T04:12:26.000Z</time>
      </trkpt>
      <trkpt lat="42.07951" lon="12.81147">
        <ele>495</ele>
        <time>2010-01-01T04:12:35.000Z</time>
      </trkpt>
      <trkpt lat="42.07954" lon="12.8114">
        <ele>494</ele>
        <time>2010-01-01T04:12:37.000Z</time>
      </trkpt>
      <trkpt lat="42.07909" lon="12.809822">
        <ele>494</ele>
        <time>2010-01-01T04:13:27.000Z</time>
      </trkpt>
      <trkpt lat="42.078789" lon="12.809007">
        <ele>487</ele>
        <time>2010-01-01T04:13:54.000Z</time>
      </trkpt>
      <trkpt lat="42.078629" lon="12.808814">
        <ele>488</ele>
        <time>2010-01-01T04:14:03.000Z</time>
      </trkpt>
      <trkpt lat="42.078568" lon="12.808197">
        <ele>480</ele>
        <time>2010-01-01T04:14:21.000Z</time>
      </trkpt>
      <trkpt lat="42.07864" lon="12.807768">
        <ele>479</ele>
        <time>2010-01-01T04:14:34.000Z</time>
      </trkpt>
      <trkpt lat="42.078728" lon="12.807189">
        <ele>483</ele>
        <time>2010-01-01T04:14:52.000Z</time>
      </trkpt>
      <trkpt lat="42.078793" lon="12.806877">
        <ele>487</ele>
        <time>2010-01-01T04:15:02.000Z</time>
      </trkpt>
      <trkpt lat="42.07885" lon="12.80647">
        <ele>487</ele>
        <time>2010-01-01T04:15:14.000Z</time>
      </trkpt>
      <trkpt lat="42.078823" lon="12.806298">
        <ele>487</ele>
        <time>2010-01-01T04:15:19.000Z</time>
      </trkpt>
      <trkpt lat="42.078854" lon="12.805859">
        <ele>486</ele>
        <time>2010-01-01T04:15:32.000Z</time>
      </trkpt>
      <trkpt lat="42.078915" lon="12.805633">
        <ele>484</ele>
        <time>2010-01-01T04:15:39.000Z</time>
      </trkpt>
      <trkpt lat="42.078983" lon="12.805429">
        <ele>483</ele>
        <time>2010-01-01T04:15:46.000Z</time>
      </trkpt>
      <trkpt lat="42.079018" lon="12.804957">
        <ele>483</ele>
        <time>2010-01-01T04:16:00.000Z</time>
      </trkpt>
      <trkpt lat="42.079098" lon="12.804614">
        <ele>480</ele>
        <time>2010-01-01T04:16:11.000Z</time>
      </trkpt>
      <trkpt lat="42.079048" lon="12.804185">
        <ele>484</ele>
        <time>2010-01-01T04:16:24.000Z</time>
      </trkpt>
      <trkpt lat="42.079014" lon="12.804024">
        <ele>486</ele>
        <time>2010-01-01T04:16:29.000Z</time>
      </trkpt>
      <trkpt lat="42.07925" lon="12.803723">
        <ele>479</ele>
        <time>2010-01-01T04:16:42.000Z</time>
      </trkpt>
      <trkpt lat="42.079311" lon="12.803487">
        <ele>476</ele>
        <time>2010-01-01T04:16:49.000Z</time>
      </trkpt>
      <trkpt lat="42.079319" lon="12.802714">
        <ele>476</ele>
        <time>2010-01-01T04:17:12.000Z</time>
      </trkpt>
      <trkpt lat="42.079426" lon="12.802297">
        <ele>475</ele>
        <time>2010-01-01T04:17:25.000Z</time>
      </trkpt>
      <trkpt lat="42.079514" lon="12.801422">
        <ele>466</ele>
        <time>2010-01-01T04:17:51.000Z</time>
      </trkpt>
      <trkpt lat="42.079376" lon="12.800826">
        <ele>464</ele>
        <time>2010-01-01T04:18:10.000Z</time>
      </trkpt>
      <trkpt lat="42.079514" lon="12.800097">
        <ele>462</ele>
        <time>2010-01-01T04:18:32.000Z</time>
      </trkpt>
      <trkpt lat="42.079372" lon="12.799641">
        <ele>463</ele>
        <time>2010-01-01T04:18:47.000Z</time>
      </trkpt>
      <trkpt lat="42.078979" lon="12.799136">
        <ele>463</ele>
        <time>2010-01-01T04:19:09.000Z</time>
      </trkpt>
      <trkpt lat="42.078442" lon="12.798263">
        <ele>459</ele>
        <time>2010-01-01T04:19:42.000Z</time>
      </trkpt>
      <trkpt lat="42.078773" lon="12.796471">
        <ele>449</ele>
        <time>2010-01-01T04:20:37.000Z</time>
      </trkpt>
      <trkpt lat="42.078777" lon="12.793434">
        <ele>448</ele>
        <time>2010-01-01T04:22:08.000Z</time>
      </trkpt>
      <trkpt lat="42.078575" lon="12.793075">
        <ele>449</ele>
        <time>2010-01-01T04:22:21.000Z</time>
      </trkpt>
      <trkpt lat="42.078186" lon="12.792469">
        <ele>453</ele>
        <time>2010-01-01T04:22:45.000Z</time>
      </trkpt>
      <trkpt lat="42.078064" lon="12.791685">
        <ele>450</ele>
        <time>2010-01-01T04:23:09.000Z</time>
      </trkpt>
      <trkpt lat="42.077938" lon="12.791149">
        <ele>452</ele>
        <time>2010-01-01T04:23:25.000Z</time>
      </trkpt>
      <trkpt lat="42.07774" lon="12.790495">
        <ele>453</ele>
        <time>2010-01-01T04:23:46.000Z</time>
      </trkpt>
      <trkpt lat="42.077469" lon="12.790167">
        <ele>457</ele>
        <time>2010-01-01T04:24:01.000Z</time>
      </trkpt>
      <trkpt lat="42.077229" lon="12.789502">
        <ele>456</ele>
        <time>2010-01-01T04:24:23.000Z</time>
      </trkpt>
      <trkpt lat="42.077217" lon="12.789083">
        <ele>455</ele>
        <time>2010-01-01T04:24:35.000Z</time>
      </trkpt>
      <trkpt lat="42.077229" lon="12.78908">
        <ele>455</ele>
        <time>2010-01-01T04:24:36.000Z</time>
      </trkpt>
      <trkpt lat="42.07724" lon="12.78857">
        <ele>458</ele>
        <time>2010-01-01T04:24:51.000Z</time>
      </trkpt>
      <trkpt lat="42.077309" lon="12.78827">
        <ele>461</ele>
        <time>2010-01-01T04:25:00.000Z</time>
      </trkpt>
      <trkpt lat="42.077511" lon="12.78787">
        <ele>461</ele>
        <time>2010-01-01T04:25:15.000Z</time>
      </trkpt>
      <trkpt lat="42.077869" lon="12.78735">
        <ele>464</ele>
        <time>2010-01-01T04:25:36.000Z</time>
      </trkpt>
      <trkpt lat="42.078178" lon="12.78718">
        <ele>464</ele>
        <time>2010-01-01T04:25:49.000Z</time>
      </trkpt>
      <trkpt lat="42.078331" lon="12.78703">
        <ele>463</ele>
        <time>2010-01-01T04:25:57.000Z</time>
      </trkpt>
      <trkpt lat="42.078362" lon="12.7869">
        <ele>462</ele>
        <time>2010-01-01T04:26:01.000Z</time>
      </trkpt>
      <trkpt lat="42.078369" lon="12.7869">
        <ele>462</ele>
        <time>2010-01-01T04:26:01.000Z</time>
      </trkpt>
      <trkpt lat="42.078388" lon="12.78678">
        <ele>462</ele>
        <time>2010-01-01T04:26:05.000Z</time>
      </trkpt>
      <trkpt lat="42.078362" lon="12.78651">
        <ele>465</ele>
        <time>2010-01-01T04:26:13.000Z</time>
      </trkpt>
      <trkpt lat="42.078381" lon="12.7858">
        <ele>466</ele>
        <time>2010-01-01T04:26:34.000Z</time>
      </trkpt>
      <trkpt lat="42.078419" lon="12.78536">
        <ele>462</ele>
        <time>2010-01-01T04:26:47.000Z</time>
      </trkpt>
      <trkpt lat="42.078529" lon="12.78502">
        <ele>458</ele>
        <time>2010-01-01T04:26:58.000Z</time>
      </trkpt>
      <trkpt lat="42.07864" lon="12.78458">
        <ele>458</ele>
        <time>2010-01-01T04:27:12.000Z</time>
      </trkpt>
      <trkpt lat="42.078609" lon="12.78398">
        <ele>462</ele>
        <time>2010-01-01T04:27:30.000Z</time>
      </trkpt>
      <trkpt lat="42.078751" lon="12.78367">
        <ele>456</ele>
        <time>2010-01-01T04:27:41.000Z</time>
      </trkpt>
      <trkpt lat="42.078781" lon="12.78336">
        <ele>459</ele>
        <time>2010-01-01T04:27:50.000Z</time>
      </trkpt>
      <trkpt lat="42.078869" lon="12.78284">
        <ele>460</ele>
        <time>2010-01-01T04:28:06.000Z</time>
      </trkpt>
      <trkpt lat="42.07893" lon="12.78227">
        <ele>459</ele>
        <time>2010-01-01T04:28:23.000Z</time>
      </trkpt>
      <trkpt lat="42.079121" lon="12.78113">
        <ele>454</ele>
        <time>2010-01-01T04:28:57.000Z</time>
      </trkpt>
      <trkpt lat="42.079189" lon="12.78023">
        <ele>454</ele>
        <time>2010-01-01T04:29:24.000Z</time>
      </trkpt>
      <trkpt lat="42.079189" lon="12.7799">
        <ele>453</ele>
        <time>2010-01-01T04:29:34.000Z</time>
      </trkpt>
      <trkpt lat="42.079231" lon="12.7797">
        <ele>450</ele>
        <time>2010-01-01T04:29:40.000Z</time>
      </trkpt>
      <trkpt lat="42.079231" lon="12.77953">
        <ele>448</ele>
        <time>2010-01-01T04:29:45.000Z</time>
      </trkpt>
      <trkpt lat="42.079102" lon="12.77917">
        <ele>455</ele>
        <time>2010-01-01T04:29:57.000Z</time>
      </trkpt>
      <trkpt lat="42.07885" lon="12.77786">
        <ele>452</ele>
        <time>2010-01-01T04:30:37.000Z</time>
      </trkpt>
      <trkpt lat="42.0788" lon="12.77774">
        <ele>453</ele>
        <time>2010-01-01T04:30:42.000Z</time>
      </trkpt>
      <trkpt lat="42.078678" lon="12.77761">
        <ele>456</ele>
        <time>2010-01-01T04:30:48.000Z</time>
      </trkpt>
      <trkpt lat="42.078602" lon="12.77748">
        <ele>456</ele>
        <time>2010-01-01T04:30:53.000Z</time>
      </trkpt>
      <trkpt lat="42.078419" lon="12.77728">
        <ele>455</ele>
        <time>2010-01-01T04:31:02.000Z</time>
      </trkpt>
      <trkpt lat="42.078178" lon="12.77711">
        <ele>457</ele>
        <time>2010-01-01T04:31:13.000Z</time>
      </trkpt>
      <trkpt lat="42.077942" lon="12.77683">
        <ele>457</ele>
        <time>2010-01-01T04:31:26.000Z</time>
      </trkpt>
      <trkpt lat="42.077782" lon="12.77661">
        <ele>456</ele>
        <time>2010-01-01T04:31:35.000Z</time>
      </trkpt>
      <trkpt lat="42.077511" lon="12.77615">
        <ele>454</ele>
        <time>2010-01-01T04:31:52.000Z</time>
      </trkpt>
      <trkpt lat="42.077339" lon="12.77593">
        <ele>454</ele>
        <time>2010-01-01T04:32:02.000Z</time>
      </trkpt>
      <trkpt lat="42.077171" lon="12.77575">
        <ele>452</ele>
        <time>2010-01-01T04:32:10.000Z</time>
      </trkpt>
      <trkpt lat="42.077049" lon="12.77567">
        <ele>450</ele>
        <time>2010-01-01T04:32:16.000Z</time>
      </trkpt>
      <trkpt lat="42.076832" lon="12.77534">
        <ele>445</ele>
        <time>2010-01-01T04:32:29.000Z</time>
      </trkpt>
      <trkpt lat="42.076832" lon="12.77533">
        <ele>445</ele>
        <time>2010-01-01T04:32:29.000Z</time>
      </trkpt>
      <trkpt lat="42.07674" lon="12.7752">
        <ele>443</ele>
        <time>2010-01-01T04:32:34.000Z</time>
      </trkpt>
      <trkpt lat="42.076641" lon="12.77519">
        <ele>441</ele>
        <time>2010-01-01T04:32:38.000Z</time>
      </trkpt>
      <trkpt lat="42.076359" lon="12.77519">
        <ele>439</ele>
        <time>2010-01-01T04:32:50.000Z</time>
      </trkpt>
      <trkpt lat="42.076099" lon="12.77514">
        <ele>438</ele>
        <time>2010-01-01T04:33:00.000Z</time>
      </trkpt>
      <trkpt lat="42.075939" lon="12.77509">
        <ele>436</ele>
        <time>2010-01-01T04:33:07.000Z</time>
      </trkpt>
      <trkpt lat="42.075661" lon="12.77503">
        <ele>434</ele>
        <time>2010-01-01T04:33:18.000Z</time>
      </trkpt>
      <trkpt lat="42.074799" lon="12.77471">
        <ele>421</ele>
        <time>2010-01-01T04:33:54.000Z</time>
      </trkpt>
      <trkpt lat="42.074478" lon="12.77462">
        <ele>416</ele>
        <time>2010-01-01T04:34:07.000Z</time>
      </trkpt>
      <trkpt lat="42.073841" lon="12.77456">
        <ele>417</ele>
        <time>2010-01-01T04:34:33.000Z</time>
      </trkpt>
      <trkpt lat="42.073509" lon="12.77448">
        <ele>416</ele>
        <time>2010-01-01T04:34:46.000Z</time>
      </trkpt>
      <trkpt lat="42.073372" lon="12.77441">
        <ele>412</ele>
        <time>2010-01-01T04:34:52.000Z</time>
      </trkpt>
      <trkpt lat="42.073399" lon="12.77435">
        <ele>410</ele>
        <time>2010-01-01T04:34:54.000Z</time>
      </trkpt>
      <trkpt lat="42.072941" lon="12.77432">
        <ele>399</ele>
        <time>2010-01-01T04:35:13.000Z</time>
      </trkpt>
      <trkpt lat="42.072479" lon="12.77456">
        <ele>399</ele>
        <time>2010-01-01T04:35:32.000Z</time>
      </trkpt>
      <trkpt lat="42.071819" lon="12.77493">
        <ele>398</ele>
        <time>2010-01-01T04:36:01.000Z</time>
      </trkpt>
      <trkpt lat="42.071602" lon="12.77508">
        <ele>397</ele>
        <time>2010-01-01T04:36:11.000Z</time>
      </trkpt>
      <trkpt lat="42.071381" lon="12.77531">
        <ele>395</ele>
        <time>2010-01-01T04:36:22.000Z</time>
      </trkpt>
      <trkpt lat="42.070881" lon="12.77604">
        <ele>399</ele>
        <time>2010-01-01T04:36:51.000Z</time>
      </trkpt>
      <trkpt lat="42.070671" lon="12.77639">
        <ele>401</ele>
        <time>2010-01-01T04:37:05.000Z</time>
      </trkpt>
      <trkpt lat="42.070278" lon="12.77696">
        <ele>402</ele>
        <time>2010-01-01T04:37:28.000Z</time>
      </trkpt>
      <trkpt lat="42.070011" lon="12.77723">
        <ele>403</ele>
        <time>2010-01-01T04:37:41.000Z</time>
      </trkpt>
      <trkpt lat="42.069599" lon="12.77752">
        <ele>408</ele>
        <time>2010-01-01T04:38:00.000Z</time>
      </trkpt>
      <trkpt lat="42.069389" lon="12.77758">
        <ele>408</ele>
        <time>2010-01-01T04:38:08.000Z</time>
      </trkpt>
      <trkpt lat="42.069309" lon="12.77763">
        <ele>407</ele>
        <time>2010-01-01T04:38:12.000Z</time>
      </trkpt>
      <trkpt lat="42.069149" lon="12.77778">
        <ele>407</ele>
        <time>2010-01-01T04:38:20.000Z</time>
      </trkpt>
      <trkpt lat="42.068981" lon="12.77792">
        <ele>406</ele>
        <time>2010-01-01T04:38:28.000Z</time>
      </trkpt>
      <trkpt lat="42.06892" lon="12.77802">
        <ele>406</ele>
        <time>2010-01-01T04:38:32.000Z</time>
      </trkpt>
      <trkpt lat="42.06881" lon="12.77849">
        <ele>412</ele>
        <time>2010-01-01T04:38:46.000Z</time>
      </trkpt>
      <trkpt lat="42.068748" lon="12.77841">
        <ele>409</ele>
        <time>2010-01-01T04:38:50.000Z</time>
      </trkpt>
      <trkpt lat="42.06876" lon="12.77824">
        <ele>407</ele>
        <time>2010-01-01T04:38:55.000Z</time>
      </trkpt>
      <trkpt lat="42.068821" lon="12.77777">
        <ele>399</ele>
        <time>2010-01-01T04:39:09.000Z</time>
      </trkpt>
      <trkpt lat="42.068981" lon="12.77733">
        <ele>394</ele>
        <time>2010-01-01T04:39:23.000Z</time>
      </trkpt>
      <trkpt lat="42.068958" lon="12.77726">
        <ele>392</ele>
        <time>2010-01-01T04:39:26.000Z</time>
      </trkpt>
      <trkpt lat="42.068451" lon="12.77726">
        <ele>383</ele>
        <time>2010-01-01T04:39:46.000Z</time>
      </trkpt>
      <trkpt lat="42.06839" lon="12.77715">
        <ele>380</ele>
        <time>2010-01-01T04:39:50.000Z</time>
      </trkpt>
      <trkpt lat="42.068321" lon="12.77693">
        <ele>377</ele>
        <time>2010-01-01T04:39:57.000Z</time>
      </trkpt>
      <trkpt lat="42.06839" lon="12.77681">
        <ele>376</ele>
        <time>2010-01-01T04:40:02.000Z</time>
      </trkpt>
      <trkpt lat="42.068501" lon="12.77671">
        <ele>374</ele>
        <time>2010-01-01T04:40:07.000Z</time>
      </trkpt>
      <trkpt lat="42.068649" lon="12.77661">
        <ele>372</ele>
        <time>2010-01-01T04:40:14.000Z</time>
      </trkpt>
      <trkpt lat="42.068981" lon="12.77651">
        <ele>372</ele>
        <time>2010-01-01T04:40:27.000Z</time>
      </trkpt>
      <trkpt lat="42.069099" lon="12.77643">
        <ele>371</ele>
        <time>2010-01-01T04:40:33.000Z</time>
      </trkpt>
      <trkpt lat="42.06918" lon="12.77636">
        <ele>370</ele>
        <time>2010-01-01T04:40:36.000Z</time>
      </trkpt>
      <trkpt lat="42.06926" lon="12.77625">
        <ele>367</ele>
        <time>2010-01-01T04:40:41.000Z</time>
      </trkpt>
      <trkpt lat="42.069328" lon="12.77603">
        <ele>363</ele>
        <time>2010-01-01T04:40:48.000Z</time>
      </trkpt>
      <trkpt lat="42.069832" lon="12.77507">
        <ele>357</ele>
        <time>2010-01-01T04:41:23.000Z</time>
      </trkpt>
      <trkpt lat="42.069801" lon="12.77506">
        <ele>356</ele>
        <time>2010-01-01T04:41:24.000Z</time>
      </trkpt>
      <trkpt lat="42.06974" lon="12.77499">
        <ele>354</ele>
        <time>2010-01-01T04:41:27.000Z</time>
      </trkpt>
      <trkpt lat="42.06974" lon="12.77491">
        <ele>353</ele>
        <time>2010-01-01T04:41:30.000Z</time>
      </trkpt>
      <trkpt lat="42.069771" lon="12.77482">
        <ele>352</ele>
        <time>2010-01-01T04:41:33.000Z</time>
      </trkpt>
      <trkpt lat="42.069832" lon="12.77473">
        <ele>352</ele>
        <time>2010-01-01T04:41:36.000Z</time>
      </trkpt>
      <trkpt lat="42.069901" lon="12.77447">
        <ele>350</ele>
        <time>2010-01-01T04:41:45.000Z</time>
      </trkpt>
      <trkpt lat="42.069901" lon="12.77438">
        <ele>349</ele>
        <time>2010-01-01T04:41:47.000Z</time>
      </trkpt>
      <trkpt lat="42.069881" lon="12.77431">
        <ele>348</ele>
        <time>2010-01-01T04:41:49.000Z</time>
      </trkpt>
      <trkpt lat="42.069611" lon="12.7738">
        <ele>341</ele>
        <time>2010-01-01T04:42:08.000Z</time>
      </trkpt>
      <trkpt lat="42.06937" lon="12.77346">
        <ele>335</ele>
        <time>2010-01-01T04:42:22.000Z</time>
      </trkpt>
      <trkpt lat="42.06929" lon="12.7733">
        <ele>332</ele>
        <time>2010-01-01T04:42:28.000Z</time>
      </trkpt>
      <trkpt lat="42.069031" lon="12.77356">
        <ele>330</ele>
        <time>2010-01-01T04:42:41.000Z</time>
      </trkpt>
      <trkpt lat="42.068958" lon="12.77358">
        <ele>329</ele>
        <time>2010-01-01T04:42:44.000Z</time>
      </trkpt>
      <trkpt lat="42.068909" lon="12.77356">
        <ele>329</ele>
        <time>2010-01-01T04:42:46.000Z</time>
      </trkpt>
      <trkpt lat="42.068619" lon="12.77329">
        <ele>322</ele>
        <time>2010-01-01T04:43:00.000Z</time>
      </trkpt>
      <trkpt lat="42.068481" lon="12.77309">
        <ele>318</ele>
        <time>2010-01-01T04:43:08.000Z</time>
      </trkpt>
      <trkpt lat="42.068039" lon="12.77223">
        <ele>304</ele>
        <time>2010-01-01T04:43:39.000Z</time>
      </trkpt>
      <trkpt lat="42.067879" lon="12.77185">
        <ele>303</ele>
        <time>2010-01-01T04:43:52.000Z</time>
      </trkpt>
      <trkpt lat="42.067661" lon="12.7711">
        <ele>297</ele>
        <time>2010-01-01T04:44:16.000Z</time>
      </trkpt>
      <trkpt lat="42.067501" lon="12.77076">
        <ele>294</ele>
        <time>2010-01-01T04:44:28.000Z</time>
      </trkpt>
      <trkpt lat="42.06781" lon="12.77054">
        <ele>291</ele>
        <time>2010-01-01T04:44:42.000Z</time>
      </trkpt>
      <trkpt lat="42.067909" lon="12.77043">
        <ele>289</ele>
        <time>2010-01-01T04:44:47.000Z</time>
      </trkpt>
      <trkpt lat="42.06916" lon="12.769396">
        <ele>295</ele>
        <time>2010-01-01T04:45:46.000Z</time>
      </trkpt>
      <trkpt lat="42.069557" lon="12.768538">
        <ele>294</ele>
        <time>2010-01-01T04:46:16.000Z</time>
      </trkpt>
      <trkpt lat="42.069843" lon="12.768302">
        <ele>295</ele>
        <time>2010-01-01T04:46:29.000Z</time>
      </trkpt>
      <trkpt lat="42.069397" lon="12.76828">
        <ele>293</ele>
        <time>2010-01-01T04:46:47.000Z</time>
      </trkpt>
      <trkpt lat="42.069286" lon="12.768002">
        <ele>293</ele>
        <time>2010-01-01T04:46:57.000Z</time>
      </trkpt>
    </trkseg>
  </trk>
</gpx>